<?xml version='1.0' encoding='UTF-8'?><gpx version="1.1" creator="JPX - https://github.com/jenetics/jpx" xmlns="http://www.topografix.com/GPX/1/1"><trk><trkseg><trkpt lat="44.7522324" lon="7.872407"><ele>352.0</ele><time>2026-04-08T09:53:12.981Z</time></trkpt><trkpt lat="44.7521648" lon="7.8725678"><ele>352.0</ele><time>2026-04-08T09:53:14.981Z</time></trkpt><trkpt lat="44.7521248" lon="7.8726655"><ele>352.0</ele><time>2026-04-08T09:53:15.981Z</time></trkpt><trkpt lat="44.7520741" lon="7.8727879"><ele>352.0</ele><time>2026-04-08T09:53:16.981Z</time></trkpt><trkpt lat="44.7520177" lon="7.8729166"><ele>352.0</ele><time>2026-04-08T09:53:17.981Z</time></trkpt><trkpt lat="44.7519482" lon="7.8730691"><ele>352.0</ele><time>2026-04-08T09:53:18.981Z</time></trkpt><trkpt lat="44.7518768" lon="7.8732232"><ele>352.0</ele><time>2026-04-08T09:53:19.981Z</time></trkpt><trkpt lat="44.7517982" lon="7.8733825"><ele>352.0</ele><time>2026-04-08T09:53:20.981Z</time></trkpt><trkpt lat="44.7517129" lon="7.8735324"><ele>352.0</ele><time>2026-04-08T09:53:21.981Z</time></trkpt><trkpt lat="44.7516161" lon="7.873671"><ele>352.0</ele><time>2026-04-08T09:53:22.981Z</time></trkpt><trkpt lat="44.7515037" lon="7.8737987"><ele>352.0</ele><time>2026-04-08T09:53:23.981Z</time></trkpt><trkpt lat="44.751393" lon="7.8739227"><ele>352.0</ele><time>2026-04-08T09:53:24.981Z</time></trkpt><trkpt lat="44.751293" lon="7.8740471"><ele>352.0</ele><time>2026-04-08T09:53:25.981Z</time></trkpt><trkpt lat="44.7512006" lon="7.8741768"><ele>352.75</ele><time>2026-04-08T09:53:26.981Z</time></trkpt><trkpt lat="44.7510933" lon="7.8743021"><ele>353.5</ele><time>2026-04-08T09:53:27.981Z</time></trkpt><trkpt lat="44.7509965" lon="7.874412"><ele>354.25</ele><time>2026-04-08T09:53:28.981Z</time></trkpt><trkpt lat="44.7509063" lon="7.8745245"><ele>355.0</ele><time>2026-04-08T09:53:29.981Z</time></trkpt><trkpt lat="44.7508313" lon="7.8746204"><ele>355.0</ele><time>2026-04-08T09:53:30.981Z</time></trkpt><trkpt lat="44.7507445" lon="7.8747154"><ele>355.0</ele><time>2026-04-08T09:53:31.981Z</time></trkpt><trkpt lat="44.7506407" lon="7.8748035"><ele>355.0</ele><time>2026-04-08T09:53:32.981Z</time></trkpt><trkpt lat="44.7505295" lon="7.8748904"><ele>355.0</ele><time>2026-04-08T09:53:33.981Z</time></trkpt><trkpt lat="44.7504292" lon="7.8749805"><ele>355.0</ele><time>2026-04-08T09:53:34.981Z</time></trkpt><trkpt lat="44.7503212" lon="7.8750641"><ele>355.0</ele><time>2026-04-08T09:53:35.981Z</time></trkpt><trkpt lat="44.7502277" lon="7.8751629"><ele>355.0</ele><time>2026-04-08T09:53:36.981Z</time></trkpt><trkpt lat="44.7501561" lon="7.8752833"><ele>355.0</ele><time>2026-04-08T09:53:37.981Z</time></trkpt><trkpt lat="44.7500911" lon="7.8754021"><ele>355.75</ele><time>2026-04-08T09:53:38.981Z</time></trkpt><trkpt lat="44.7500421" lon="7.875545"><ele>356.5</ele><time>2026-04-08T09:53:39.981Z</time></trkpt><trkpt lat="44.7500353" lon="7.8757376"><ele>357.25</ele><time>2026-04-08T09:53:40.981Z</time></trkpt><trkpt lat="44.7500109" lon="7.8759022"><ele>358.0</ele><time>2026-04-08T09:53:41.981Z</time></trkpt><trkpt lat="44.749977" lon="7.8760675"><ele>358.0</ele><time>2026-04-08T09:53:42.981Z</time></trkpt><trkpt lat="44.7499477" lon="7.8762234"><ele>358.0</ele><time>2026-04-08T09:53:43.981Z</time></trkpt><trkpt lat="44.7499175" lon="7.8763746"><ele>358.0</ele><time>2026-04-08T09:53:44.981Z</time></trkpt><trkpt lat="44.7498827" lon="7.8765122"><ele>358.0</ele><time>2026-04-08T09:53:45.981Z</time></trkpt><trkpt lat="44.7498361" lon="7.8766509"><ele>358.0</ele><time>2026-04-08T09:53:46.981Z</time></trkpt><trkpt lat="44.7497928" lon="7.8768139"><ele>359.75</ele><time>2026-04-08T09:53:47.981Z</time></trkpt><trkpt lat="44.7497657" lon="7.8769896"><ele>361.5</ele><time>2026-04-08T09:53:48.981Z</time></trkpt><trkpt lat="44.7497171" lon="7.8771458"><ele>363.25</ele><time>2026-04-08T09:53:49.981Z</time></trkpt><trkpt lat="44.7496709" lon="7.8772848"><ele>365.0</ele><time>2026-04-08T09:53:50.981Z</time></trkpt><trkpt lat="44.7496375" lon="7.8774093"><ele>365.0</ele><time>2026-04-08T09:53:51.981Z</time></trkpt><trkpt lat="44.7495993" lon="7.8775262"><ele>365.0</ele><time>2026-04-08T09:53:52.981Z</time></trkpt><trkpt lat="44.7495544" lon="7.8776295"><ele>365.0</ele><time>2026-04-08T09:53:53.981Z</time></trkpt><trkpt lat="44.7495155" lon="7.8777141"><ele>365.0</ele><time>2026-04-08T09:53:54.981Z</time></trkpt><trkpt lat="44.7494822" lon="7.8777954"><ele>365.0</ele><time>2026-04-08T09:53:55.981Z</time></trkpt><trkpt lat="44.7493924" lon="7.8778564"><ele>365.0</ele><time>2026-04-08T09:53:57.981Z</time></trkpt><trkpt lat="44.7493155" lon="7.8778235"><ele>364.2</ele><time>2026-04-08T09:54:00.178Z</time></trkpt><trkpt lat="44.7492714" lon="7.8777548"><ele>363.4</ele><time>2026-04-08T09:54:01.355Z</time></trkpt><trkpt lat="44.7491631" lon="7.8775839"><ele>362.6</ele><time>2026-04-08T09:54:02.979Z</time></trkpt><trkpt lat="44.7490863" lon="7.8775059"><ele>361.8</ele><time>2026-04-08T09:54:03.981Z</time></trkpt><trkpt lat="44.749005" lon="7.8774445"><ele>361.0</ele><time>2026-04-08T09:54:04.979Z</time></trkpt><trkpt lat="44.7489306" lon="7.8774084"><ele>361.5</ele><time>2026-04-08T09:54:05.978Z</time></trkpt><trkpt lat="44.7488552" lon="7.8773883"><ele>362.0</ele><time>2026-04-08T09:54:06.978Z</time></trkpt><trkpt lat="44.7487695" lon="7.8773787"><ele>362.5</ele><time>2026-04-08T09:54:07.978Z</time></trkpt><trkpt lat="44.7486794" lon="7.8773909"><ele>363.0</ele><time>2026-04-08T09:54:08.978Z</time></trkpt><trkpt lat="44.7485856" lon="7.8773959"><ele>363.5</ele><time>2026-04-08T09:54:09.978Z</time></trkpt><trkpt lat="44.7484983" lon="7.877388"><ele>364.0</ele><time>2026-04-08T09:54:10.978Z</time></trkpt><trkpt lat="44.7484068" lon="7.8773781"><ele>364.0</ele><time>2026-04-08T09:54:11.978Z</time></trkpt><trkpt lat="44.748298" lon="7.8773619"><ele>364.0</ele><time>2026-04-08T09:54:12.978Z</time></trkpt><trkpt lat="44.7482012" lon="7.877365"><ele>364.0</ele><time>2026-04-08T09:54:13.978Z</time></trkpt><trkpt lat="44.748098" lon="7.8773647"><ele>364.0</ele><time>2026-04-08T09:54:14.978Z</time></trkpt><trkpt lat="44.7479995" lon="7.8773823"><ele>364.0</ele><time>2026-04-08T09:54:15.978Z</time></trkpt><trkpt lat="44.7479046" lon="7.8774139"><ele>364.0</ele><time>2026-04-08T09:54:16.978Z</time></trkpt><trkpt lat="44.7478039" lon="7.8774432"><ele>364.0</ele><time>2026-04-08T09:54:17.978Z</time></trkpt><trkpt lat="44.7477165" lon="7.8774637"><ele>364.0</ele><time>2026-04-08T09:54:18.978Z</time></trkpt><trkpt lat="44.7476195" lon="7.8774734"><ele>364.0</ele><time>2026-04-08T09:54:19.978Z</time></trkpt><trkpt lat="44.7475344" lon="7.8774998"><ele>364.0</ele><time>2026-04-08T09:54:20.978Z</time></trkpt><trkpt lat="44.7474435" lon="7.8775191"><ele>362.79999999999995</ele><time>2026-04-08T09:54:21.978Z</time></trkpt><trkpt lat="44.7473579" lon="7.8775331"><ele>361.59999999999997</ele><time>2026-04-08T09:54:22.978Z</time></trkpt><trkpt lat="44.747275" lon="7.8775544"><ele>360.4</ele><time>2026-04-08T09:54:23.978Z</time></trkpt><trkpt lat="44.7471782" lon="7.8775906"><ele>359.2</ele><time>2026-04-08T09:54:24.978Z</time></trkpt><trkpt lat="44.7470795" lon="7.8776086"><ele>358.0</ele><time>2026-04-08T09:54:25.978Z</time></trkpt><trkpt lat="44.746966" lon="7.8776472"><ele>359.2</ele><time>2026-04-08T09:54:26.978Z</time></trkpt><trkpt lat="44.74686" lon="7.8776567"><ele>360.4</ele><time>2026-04-08T09:54:27.978Z</time></trkpt><trkpt lat="44.7467503" lon="7.8776773"><ele>361.59999999999997</ele><time>2026-04-08T09:54:28.978Z</time></trkpt><trkpt lat="44.7466386" lon="7.8776886"><ele>362.79999999999995</ele><time>2026-04-08T09:54:29.978Z</time></trkpt><trkpt lat="44.746533" lon="7.8776969"><ele>364.0</ele><time>2026-04-08T09:54:30.978Z</time></trkpt><trkpt lat="44.7464202" lon="7.8777216"><ele>364.0</ele><time>2026-04-08T09:54:31.978Z</time></trkpt><trkpt lat="44.7463219" lon="7.8777569"><ele>364.0</ele><time>2026-04-08T09:54:32.978Z</time></trkpt><trkpt lat="44.7462221" lon="7.8777885"><ele>364.0</ele><time>2026-04-08T09:54:33.978Z</time></trkpt><trkpt lat="44.7461363" lon="7.8777982"><ele>364.0</ele><time>2026-04-08T09:54:34.978Z</time></trkpt><trkpt lat="44.7460501" lon="7.877838"><ele>364.0</ele><time>2026-04-08T09:54:35.978Z</time></trkpt><trkpt lat="44.7459613" lon="7.8779135"><ele>364.25</ele><time>2026-04-08T09:54:36.978Z</time></trkpt><trkpt lat="44.7458809" lon="7.8780373"><ele>364.5</ele><time>2026-04-08T09:54:37.978Z</time></trkpt><trkpt lat="44.7458054" lon="7.8781473"><ele>364.75</ele><time>2026-04-08T09:54:38.978Z</time></trkpt><trkpt lat="44.7457263" lon="7.878298"><ele>365.0</ele><time>2026-04-08T09:54:39.978Z</time></trkpt><trkpt lat="44.7456484" lon="7.8784299"><ele>365.25</ele><time>2026-04-08T09:54:40.978Z</time></trkpt><trkpt lat="44.7455767" lon="7.8785838"><ele>365.5</ele><time>2026-04-08T09:54:41.978Z</time></trkpt><trkpt lat="44.7454901" lon="7.8787346"><ele>365.75</ele><time>2026-04-08T09:54:42.978Z</time></trkpt><trkpt lat="44.7454205" lon="7.8788851"><ele>366.0</ele><time>2026-04-08T09:54:43.978Z</time></trkpt><trkpt lat="44.7453374" lon="7.87904"><ele>366.0</ele><time>2026-04-08T09:54:44.978Z</time></trkpt><trkpt lat="44.7452694" lon="7.8792249"><ele>366.0</ele><time>2026-04-08T09:54:45.978Z</time></trkpt><trkpt lat="44.7451957" lon="7.8793938"><ele>366.0</ele><time>2026-04-08T09:54:46.978Z</time></trkpt><trkpt lat="44.7451162" lon="7.8795252"><ele>366.0</ele><time>2026-04-08T09:54:47.978Z</time></trkpt><trkpt lat="44.7450261" lon="7.8796571"><ele>365.5</ele><time>2026-04-08T09:54:48.978Z</time></trkpt><trkpt lat="44.7449265" lon="7.879781"><ele>365.0</ele><time>2026-04-08T09:54:49.978Z</time></trkpt><trkpt lat="44.7448133" lon="7.8799"><ele>364.5</ele><time>2026-04-08T09:54:50.978Z</time></trkpt><trkpt lat="44.7447028" lon="7.8800164"><ele>364.0</ele><time>2026-04-08T09:54:51.978Z</time></trkpt><trkpt lat="44.7446062" lon="7.8801185"><ele>364.75</ele><time>2026-04-08T09:54:52.978Z</time></trkpt><trkpt lat="44.7445084" lon="7.8802185"><ele>365.5</ele><time>2026-04-08T09:54:53.978Z</time></trkpt><trkpt lat="44.7444227" lon="7.8803008"><ele>366.25</ele><time>2026-04-08T09:54:54.978Z</time></trkpt><trkpt lat="44.7443316" lon="7.8804227"><ele>367.0</ele><time>2026-04-08T09:54:55.978Z</time></trkpt><trkpt lat="44.7442289" lon="7.8805486"><ele>367.0</ele><time>2026-04-08T09:54:56.978Z</time></trkpt><trkpt lat="44.7441197" lon="7.8806735"><ele>367.0</ele><time>2026-04-08T09:54:57.978Z</time></trkpt><trkpt lat="44.7440045" lon="7.8807968"><ele>367.0</ele><time>2026-04-08T09:54:58.978Z</time></trkpt><trkpt lat="44.7438728" lon="7.8809266"><ele>367.0</ele><time>2026-04-08T09:54:59.978Z</time></trkpt><trkpt lat="44.7437426" lon="7.8810482"><ele>368.25</ele><time>2026-04-08T09:55:00.978Z</time></trkpt><trkpt lat="44.7436242" lon="7.8811463"><ele>369.5</ele><time>2026-04-08T09:55:01.978Z</time></trkpt><trkpt lat="44.7435046" lon="7.8812354"><ele>370.75</ele><time>2026-04-08T09:55:02.978Z</time></trkpt><trkpt lat="44.7433866" lon="7.8813224"><ele>372.0</ele><time>2026-04-08T09:55:03.978Z</time></trkpt><trkpt lat="44.7433036" lon="7.8814202"><ele>372.0</ele><time>2026-04-08T09:55:04.978Z</time></trkpt><trkpt lat="44.7432341" lon="7.8814758"><ele>372.0</ele><time>2026-04-08T09:55:05.978Z</time></trkpt><trkpt lat="44.743146" lon="7.8815767"><ele>372.0</ele><time>2026-04-08T09:55:06.978Z</time></trkpt><trkpt lat="44.7430658" lon="7.8816535"><ele>372.0</ele><time>2026-04-08T09:55:07.978Z</time></trkpt><trkpt lat="44.7429906" lon="7.881724"><ele>372.0</ele><time>2026-04-08T09:55:08.978Z</time></trkpt><trkpt lat="44.7429143" lon="7.8817996"><ele>372.20000000000005</ele><time>2026-04-08T09:55:09.978Z</time></trkpt><trkpt lat="44.7428512" lon="7.8818734"><ele>372.4</ele><time>2026-04-08T09:55:10.978Z</time></trkpt><trkpt lat="44.7427722" lon="7.8819472"><ele>372.6</ele><time>2026-04-08T09:55:11.978Z</time></trkpt><trkpt lat="44.7427015" lon="7.8820476"><ele>372.79999999999995</ele><time>2026-04-08T09:55:12.978Z</time></trkpt><trkpt lat="44.7426316" lon="7.8821472"><ele>373.0</ele><time>2026-04-08T09:55:13.978Z</time></trkpt><trkpt lat="44.7425603" lon="7.8822372"><ele>373.0</ele><time>2026-04-08T09:55:14.978Z</time></trkpt><trkpt lat="44.7424822" lon="7.8823343"><ele>373.0</ele><time>2026-04-08T09:55:15.978Z</time></trkpt><trkpt lat="44.7424038" lon="7.8824548"><ele>373.0</ele><time>2026-04-08T09:55:16.978Z</time></trkpt><trkpt lat="44.7423316" lon="7.8825502"><ele>373.0</ele><time>2026-04-08T09:55:17.978Z</time></trkpt><trkpt lat="44.7422592" lon="7.8826315"><ele>373.0</ele><time>2026-04-08T09:55:18.978Z</time></trkpt><trkpt lat="44.7421931" lon="7.8827383"><ele>373.0</ele><time>2026-04-08T09:55:19.978Z</time></trkpt><trkpt lat="44.7421118" lon="7.8828392"><ele>373.0</ele><time>2026-04-08T09:55:20.978Z</time></trkpt><trkpt lat="44.7420297" lon="7.8829323"><ele>373.0</ele><time>2026-04-08T09:55:21.978Z</time></trkpt><trkpt lat="44.7419344" lon="7.8830148"><ele>373.0</ele><time>2026-04-08T09:55:22.978Z</time></trkpt><trkpt lat="44.7418759" lon="7.8831204"><ele>373.0</ele><time>2026-04-08T09:55:23.978Z</time></trkpt><trkpt lat="44.7418296" lon="7.8832305"><ele>373.0</ele><time>2026-04-08T09:55:24.978Z</time></trkpt><trkpt lat="44.7418059" lon="7.8833567"><ele>373.0</ele><time>2026-04-08T09:55:25.978Z</time></trkpt><trkpt lat="44.7417935" lon="7.8835075"><ele>373.0</ele><time>2026-04-08T09:55:26.978Z</time></trkpt><trkpt lat="44.7417913" lon="7.8836529"><ele>373.0</ele><time>2026-04-08T09:55:27.978Z</time></trkpt><trkpt lat="44.7417831" lon="7.8837842"><ele>373.0</ele><time>2026-04-08T09:55:28.978Z</time></trkpt><trkpt lat="44.741776" lon="7.8839135"><ele>373.59999999999997</ele><time>2026-04-08T09:55:29.978Z</time></trkpt><trkpt lat="44.7417546" lon="7.8840512"><ele>374.2</ele><time>2026-04-08T09:55:30.978Z</time></trkpt><trkpt lat="44.7417294" lon="7.8841826"><ele>374.8</ele><time>2026-04-08T09:55:31.978Z</time></trkpt><trkpt lat="44.74169" lon="7.8843397"><ele>375.4</ele><time>2026-04-08T09:55:32.978Z</time></trkpt><trkpt lat="44.7416522" lon="7.8844973"><ele>376.0</ele><time>2026-04-08T09:55:33.978Z</time></trkpt><trkpt lat="44.7416241" lon="7.8846508"><ele>376.25</ele><time>2026-04-08T09:55:34.978Z</time></trkpt><trkpt lat="44.7415895" lon="7.8848044"><ele>376.5</ele><time>2026-04-08T09:55:35.978Z</time></trkpt><trkpt lat="44.7415491" lon="7.8849729"><ele>376.75</ele><time>2026-04-08T09:55:36.978Z</time></trkpt><trkpt lat="44.7415094" lon="7.8851486"><ele>377.0</ele><time>2026-04-08T09:55:37.978Z</time></trkpt><trkpt lat="44.7414608" lon="7.8853261"><ele>378.0</ele><time>2026-04-08T09:55:38.978Z</time></trkpt><trkpt lat="44.7414186" lon="7.8855177"><ele>379.0</ele><time>2026-04-08T09:55:39.978Z</time></trkpt><trkpt lat="44.7413792" lon="7.8856894"><ele>380.0</ele><time>2026-04-08T09:55:40.978Z</time></trkpt><trkpt lat="44.741348" lon="7.8858564"><ele>381.0</ele><time>2026-04-08T09:55:41.978Z</time></trkpt><trkpt lat="44.7413005" lon="7.8860088"><ele>382.75</ele><time>2026-04-08T09:55:42.978Z</time></trkpt><trkpt lat="44.7412621" lon="7.8861868"><ele>384.5</ele><time>2026-04-08T09:55:43.978Z</time></trkpt><trkpt lat="44.7412288" lon="7.8863381"><ele>386.25</ele><time>2026-04-08T09:55:44.978Z</time></trkpt><trkpt lat="44.7411891" lon="7.8864755"><ele>388.0</ele><time>2026-04-08T09:55:45.978Z</time></trkpt><trkpt lat="44.7411382" lon="7.8866082"><ele>388.0</ele><time>2026-04-08T09:55:46.978Z</time></trkpt><trkpt lat="44.7410901" lon="7.8867467"><ele>388.0</ele><time>2026-04-08T09:55:47.978Z</time></trkpt><trkpt lat="44.7410386" lon="7.8868696"><ele>388.0</ele><time>2026-04-08T09:55:48.978Z</time></trkpt><trkpt lat="44.7409844" lon="7.8869975"><ele>388.0</ele><time>2026-04-08T09:55:49.978Z</time></trkpt><trkpt lat="44.7409247" lon="7.8871347"><ele>388.0</ele><time>2026-04-08T09:55:50.978Z</time></trkpt><trkpt lat="44.7408777" lon="7.8872544"><ele>388.0</ele><time>2026-04-08T09:55:51.978Z</time></trkpt><trkpt lat="44.7408319" lon="7.8873675"><ele>388.0</ele><time>2026-04-08T09:55:52.978Z</time></trkpt><trkpt lat="44.7407991" lon="7.8874828"><ele>388.0</ele><time>2026-04-08T09:55:53.978Z</time></trkpt><trkpt lat="44.7407563" lon="7.8876077"><ele>388.0</ele><time>2026-04-08T09:55:54.978Z</time></trkpt><trkpt lat="44.7407184" lon="7.887731"><ele>388.0</ele><time>2026-04-08T09:55:55.978Z</time></trkpt><trkpt lat="44.7406952" lon="7.8878735"><ele>388.0</ele><time>2026-04-08T09:55:56.978Z</time></trkpt><trkpt lat="44.7406555" lon="7.8880038"><ele>388.0</ele><time>2026-04-08T09:55:57.978Z</time></trkpt><trkpt lat="44.7406215" lon="7.8881335"><ele>388.0</ele><time>2026-04-08T09:55:58.978Z</time></trkpt><trkpt lat="44.7406078" lon="7.8882667"><ele>388.0</ele><time>2026-04-08T09:55:59.978Z</time></trkpt><trkpt lat="44.7405824" lon="7.8884124"><ele>388.0</ele><time>2026-04-08T09:56:00.978Z</time></trkpt><trkpt lat="44.7405547" lon="7.8885511"><ele>389.0</ele><time>2026-04-08T09:56:01.978Z</time></trkpt><trkpt lat="44.7405288" lon="7.8886946"><ele>390.0</ele><time>2026-04-08T09:56:02.978Z</time></trkpt><trkpt lat="44.740504" lon="7.8888277"><ele>391.0</ele><time>2026-04-08T09:56:03.978Z</time></trkpt><trkpt lat="44.7404627" lon="7.8889739"><ele>392.0</ele><time>2026-04-08T09:56:04.978Z</time></trkpt><trkpt lat="44.7404338" lon="7.8891393"><ele>393.0</ele><time>2026-04-08T09:56:05.978Z</time></trkpt><trkpt lat="44.7403911" lon="7.8893105"><ele>394.25</ele><time>2026-04-08T09:56:06.978Z</time></trkpt><trkpt lat="44.7403665" lon="7.889485"><ele>395.5</ele><time>2026-04-08T09:56:07.978Z</time></trkpt><trkpt lat="44.7403305" lon="7.8896537"><ele>396.75</ele><time>2026-04-08T09:56:08.978Z</time></trkpt><trkpt lat="44.7403098" lon="7.8898289"><ele>398.0</ele><time>2026-04-08T09:56:09.978Z</time></trkpt><trkpt lat="44.7402947" lon="7.8899931"><ele>399.0</ele><time>2026-04-08T09:56:10.978Z</time></trkpt><trkpt lat="44.740259" lon="7.8901378"><ele>400.0</ele><time>2026-04-08T09:56:11.978Z</time></trkpt><trkpt lat="44.7402272" lon="7.89028"><ele>401.0</ele><time>2026-04-08T09:56:12.978Z</time></trkpt><trkpt lat="44.740177" lon="7.8904094"><ele>402.0</ele><time>2026-04-08T09:56:13.978Z</time></trkpt><trkpt lat="44.7401295" lon="7.8905482"><ele>403.0</ele><time>2026-04-08T09:56:14.978Z</time></trkpt><trkpt lat="44.7400754" lon="7.8907052"><ele>401.59999999999997</ele><time>2026-04-08T09:56:15.978Z</time></trkpt><trkpt lat="44.7400373" lon="7.8908652"><ele>400.2</ele><time>2026-04-08T09:56:16.978Z</time></trkpt><trkpt lat="44.7400064" lon="7.8910168"><ele>398.8</ele><time>2026-04-08T09:56:17.978Z</time></trkpt><trkpt lat="44.7399688" lon="7.8911597"><ele>397.4</ele><time>2026-04-08T09:56:18.978Z</time></trkpt><trkpt lat="44.7399217" lon="7.8912739"><ele>396.0</ele><time>2026-04-08T09:56:19.978Z</time></trkpt><trkpt lat="44.7398617" lon="7.8913775"><ele>396.0</ele><time>2026-04-08T09:56:20.978Z</time></trkpt><trkpt lat="44.7398204" lon="7.891479"><ele>396.0</ele><time>2026-04-08T09:56:21.978Z</time></trkpt><trkpt lat="44.7397903" lon="7.891592"><ele>396.0</ele><time>2026-04-08T09:56:22.978Z</time></trkpt><trkpt lat="44.7397709" lon="7.8916871"><ele>396.0</ele><time>2026-04-08T09:56:23.978Z</time></trkpt><trkpt lat="44.739763" lon="7.8917816"><ele>396.0</ele><time>2026-04-08T09:56:24.978Z</time></trkpt><trkpt lat="44.7397788" lon="7.8919464"><ele>396.0</ele><time>2026-04-08T09:56:26.978Z</time></trkpt><trkpt lat="44.7398534" lon="7.892049"><ele>396.0</ele><time>2026-04-08T09:56:28.978Z</time></trkpt><trkpt lat="44.7399386" lon="7.8920386"><ele>396.0</ele><time>2026-04-08T09:56:30.978Z</time></trkpt><trkpt lat="44.7399983" lon="7.891963"><ele>396.0</ele><time>2026-04-08T09:56:31.978Z</time></trkpt><trkpt lat="44.740059" lon="7.8919106"><ele>396.0</ele><time>2026-04-08T09:56:32.978Z</time></trkpt><trkpt lat="44.7401158" lon="7.8918216"><ele>396.0</ele><time>2026-04-08T09:56:33.978Z</time></trkpt><trkpt lat="44.7401725" lon="7.8917358"><ele>396.0</ele><time>2026-04-08T09:56:34.978Z</time></trkpt><trkpt lat="44.7402332" lon="7.8916627"><ele>396.0</ele><time>2026-04-08T09:56:35.978Z</time></trkpt><trkpt lat="44.740288" lon="7.8915924"><ele>396.0</ele><time>2026-04-08T09:56:36.978Z</time></trkpt><trkpt lat="44.7403455" lon="7.8915279"><ele>396.0</ele><time>2026-04-08T09:56:37.978Z</time></trkpt><trkpt lat="44.7404285" lon="7.8914772"><ele>396.0</ele><time>2026-04-08T09:56:38.978Z</time></trkpt><trkpt lat="44.7404968" lon="7.8914262"><ele>396.0</ele><time>2026-04-08T09:56:39.978Z</time></trkpt><trkpt lat="44.7405567" lon="7.8913785"><ele>396.0</ele><time>2026-04-08T09:56:40.978Z</time></trkpt><trkpt lat="44.7406174" lon="7.8913359"><ele>396.0</ele><time>2026-04-08T09:56:41.978Z</time></trkpt><trkpt lat="44.7407344" lon="7.8912424"><ele>396.0</ele><time>2026-04-08T09:56:43.978Z</time></trkpt><trkpt lat="44.7407927" lon="7.891205"><ele>396.0</ele><time>2026-04-08T09:56:44.978Z</time></trkpt><trkpt lat="44.7409184" lon="7.891158"><ele>396.0</ele><time>2026-04-08T09:56:46.978Z</time></trkpt><trkpt lat="44.7409822" lon="7.8911576"><ele>396.0</ele><time>2026-04-08T09:56:47.978Z</time></trkpt><trkpt lat="44.7410509" lon="7.8911622"><ele>394.8333333333333</ele><time>2026-04-08T09:56:48.978Z</time></trkpt><trkpt lat="44.7411178" lon="7.8911633"><ele>393.66666666666663</ele><time>2026-04-08T09:56:49.978Z</time></trkpt><trkpt lat="44.7411885" lon="7.8911789"><ele>392.5</ele><time>2026-04-08T09:56:50.978Z</time></trkpt><trkpt lat="44.7412974" lon="7.8912403"><ele>391.3333333333333</ele><time>2026-04-08T09:56:52.978Z</time></trkpt><trkpt lat="44.7413538" lon="7.8912855"><ele>390.16666666666663</ele><time>2026-04-08T09:56:53.978Z</time></trkpt><trkpt lat="44.7414165" lon="7.8913228"><ele>389.0</ele><time>2026-04-08T09:56:54.978Z</time></trkpt><trkpt lat="44.7414682" lon="7.8913816"><ele>389.0</ele><time>2026-04-08T09:56:55.978Z</time></trkpt><trkpt lat="44.7414977" lon="7.8914776"><ele>389.0</ele><time>2026-04-08T09:56:56.978Z</time></trkpt><trkpt lat="44.7415279" lon="7.8915637"><ele>389.0</ele><time>2026-04-08T09:56:57.978Z</time></trkpt><trkpt lat="44.7415434" lon="7.8916544"><ele>389.0</ele><time>2026-04-08T09:56:58.978Z</time></trkpt><trkpt lat="44.7415495" lon="7.8917511"><ele>389.0</ele><time>2026-04-08T09:56:59.978Z</time></trkpt><trkpt lat="44.7415592" lon="7.8918417"><ele>389.0</ele><time>2026-04-08T09:57:00.978Z</time></trkpt><trkpt lat="44.7415846" lon="7.8919298"><ele>389.0</ele><time>2026-04-08T09:57:01.978Z</time></trkpt><trkpt lat="44.7416276" lon="7.8919973"><ele>390.2</ele><time>2026-04-08T09:57:02.978Z</time></trkpt><trkpt lat="44.7417468" lon="7.892014"><ele>391.4</ele><time>2026-04-08T09:57:04.978Z</time></trkpt><trkpt lat="44.7418185" lon="7.8919958"><ele>392.6</ele><time>2026-04-08T09:57:05.978Z</time></trkpt><trkpt lat="44.741899" lon="7.8919771"><ele>393.8</ele><time>2026-04-08T09:57:06.978Z</time></trkpt><trkpt lat="44.741986" lon="7.8919539"><ele>395.0</ele><time>2026-04-08T09:57:07.978Z</time></trkpt><trkpt lat="44.7420805" lon="7.8919079"><ele>395.0</ele><time>2026-04-08T09:57:08.978Z</time></trkpt><trkpt lat="44.7421864" lon="7.8918581"><ele>395.0</ele><time>2026-04-08T09:57:09.978Z</time></trkpt><trkpt lat="44.7423039" lon="7.8917977"><ele>395.0</ele><time>2026-04-08T09:57:10.978Z</time></trkpt><trkpt lat="44.7424343" lon="7.8917446"><ele>395.0</ele><time>2026-04-08T09:57:11.978Z</time></trkpt><trkpt lat="44.7425651" lon="7.8916911"><ele>394.0</ele><time>2026-04-08T09:57:12.978Z</time></trkpt><trkpt lat="44.7426994" lon="7.8916333"><ele>393.0</ele><time>2026-04-08T09:57:13.978Z</time></trkpt><trkpt lat="44.7428322" lon="7.8915749"><ele>392.0</ele><time>2026-04-08T09:57:14.978Z</time></trkpt><trkpt lat="44.7429505" lon="7.8915258"><ele>391.0</ele><time>2026-04-08T09:57:15.978Z</time></trkpt><trkpt lat="44.7430522" lon="7.8915061"><ele>390.0</ele><time>2026-04-08T09:57:16.978Z</time></trkpt><trkpt lat="44.7431443" lon="7.8915322"><ele>389.0</ele><time>2026-04-08T09:57:17.978Z</time></trkpt><trkpt lat="44.7432211" lon="7.8915956"><ele>388.0</ele><time>2026-04-08T09:57:18.978Z</time></trkpt><trkpt lat="44.7432869" lon="7.8916948"><ele>387.0</ele><time>2026-04-08T09:57:19.978Z</time></trkpt><trkpt lat="44.7433445" lon="7.8918231"><ele>386.0</ele><time>2026-04-08T09:57:20.978Z</time></trkpt><trkpt lat="44.743395" lon="7.8919528"><ele>386.0</ele><time>2026-04-08T09:57:21.978Z</time></trkpt><trkpt lat="44.7434583" lon="7.8920906"><ele>386.0</ele><time>2026-04-08T09:57:22.978Z</time></trkpt><trkpt lat="44.7435189" lon="7.8922229"><ele>386.0</ele><time>2026-04-08T09:57:23.978Z</time></trkpt><trkpt lat="44.7435921" lon="7.892344"><ele>386.0</ele><time>2026-04-08T09:57:24.978Z</time></trkpt><trkpt lat="44.7436651" lon="7.8924674"><ele>383.75</ele><time>2026-04-08T09:57:25.978Z</time></trkpt><trkpt lat="44.7437498" lon="7.8925981"><ele>381.5</ele><time>2026-04-08T09:57:26.978Z</time></trkpt><trkpt lat="44.7438373" lon="7.8927198"><ele>379.25</ele><time>2026-04-08T09:57:27.977Z</time></trkpt><trkpt lat="44.7439294" lon="7.8928464"><ele>377.0</ele><time>2026-04-08T09:57:28.978Z</time></trkpt><trkpt lat="44.7440099" lon="7.8929714"><ele>377.0</ele><time>2026-04-08T09:57:29.978Z</time></trkpt><trkpt lat="44.7440921" lon="7.8930877"><ele>377.0</ele><time>2026-04-08T09:57:30.978Z</time></trkpt><trkpt lat="44.744161" lon="7.8931947"><ele>377.0</ele><time>2026-04-08T09:57:31.978Z</time></trkpt><trkpt lat="44.7442391" lon="7.8933022"><ele>377.0</ele><time>2026-04-08T09:57:32.978Z</time></trkpt><trkpt lat="44.7443065" lon="7.8934106"><ele>377.0</ele><time>2026-04-08T09:57:33.978Z</time></trkpt><trkpt lat="44.7443772" lon="7.8935253"><ele>376.6</ele><time>2026-04-08T09:57:34.978Z</time></trkpt><trkpt lat="44.7444519" lon="7.8936309"><ele>376.20000000000005</ele><time>2026-04-08T09:57:35.978Z</time></trkpt><trkpt lat="44.7445284" lon="7.8937231"><ele>375.8</ele><time>2026-04-08T09:57:36.978Z</time></trkpt><trkpt lat="44.7446064" lon="7.8938315"><ele>375.4</ele><time>2026-04-08T09:57:37.978Z</time></trkpt><trkpt lat="44.7446778" lon="7.8939411"><ele>375.0</ele><time>2026-04-08T09:57:38.978Z</time></trkpt><trkpt lat="44.744758" lon="7.8940412"><ele>375.0</ele><time>2026-04-08T09:57:39.978Z</time></trkpt><trkpt lat="44.7448377" lon="7.8941479"><ele>375.0</ele><time>2026-04-08T09:57:40.978Z</time></trkpt><trkpt lat="44.7449147" lon="7.8942534"><ele>375.0</ele><time>2026-04-08T09:57:41.978Z</time></trkpt><trkpt lat="44.744994" lon="7.8943585"><ele>375.0</ele><time>2026-04-08T09:57:42.978Z</time></trkpt><trkpt lat="44.7450747" lon="7.8944624"><ele>375.0</ele><time>2026-04-08T09:57:43.978Z</time></trkpt><trkpt lat="44.7451496" lon="7.8945647"><ele>375.3333333333333</ele><time>2026-04-08T09:57:44.978Z</time></trkpt><trkpt lat="44.7452175" lon="7.8946603"><ele>375.6666666666667</ele><time>2026-04-08T09:57:45.978Z</time></trkpt><trkpt lat="44.7452806" lon="7.8947518"><ele>376.0</ele><time>2026-04-08T09:57:46.978Z</time></trkpt><trkpt lat="44.7453388" lon="7.8948305"><ele>376.33333333333337</ele><time>2026-04-08T09:57:47.978Z</time></trkpt><trkpt lat="44.7453932" lon="7.8949072"><ele>376.6666666666667</ele><time>2026-04-08T09:57:48.978Z</time></trkpt><trkpt lat="44.745444" lon="7.8950068"><ele>377.0</ele><time>2026-04-08T09:57:49.978Z</time></trkpt><trkpt lat="44.7454999" lon="7.8951236"><ele>375.8</ele><time>2026-04-08T09:57:50.978Z</time></trkpt><trkpt lat="44.7455561" lon="7.8952344"><ele>374.6</ele><time>2026-04-08T09:57:51.978Z</time></trkpt><trkpt lat="44.7456135" lon="7.8953451"><ele>373.40000000000003</ele><time>2026-04-08T09:57:52.978Z</time></trkpt><trkpt lat="44.7456726" lon="7.8954411"><ele>372.20000000000005</ele><time>2026-04-08T09:57:53.978Z</time></trkpt><trkpt lat="44.7457266" lon="7.8955429"><ele>371.0</ele><time>2026-04-08T09:57:54.978Z</time></trkpt><trkpt lat="44.7457895" lon="7.8956264"><ele>371.0</ele><time>2026-04-08T09:57:55.978Z</time></trkpt><trkpt lat="44.7458513" lon="7.8957188"><ele>371.0</ele><time>2026-04-08T09:57:56.978Z</time></trkpt><trkpt lat="44.7459108" lon="7.8957987"><ele>371.0</ele><time>2026-04-08T09:57:57.978Z</time></trkpt><trkpt lat="44.7459675" lon="7.8958825"><ele>371.0</ele><time>2026-04-08T09:57:58.978Z</time></trkpt><trkpt lat="44.7460234" lon="7.89597"><ele>371.0</ele><time>2026-04-08T09:57:59.978Z</time></trkpt><trkpt lat="44.746078" lon="7.8960617"><ele>371.0</ele><time>2026-04-08T09:58:00.978Z</time></trkpt><trkpt lat="44.7461338" lon="7.8961628"><ele>370.5</ele><time>2026-04-08T09:58:01.978Z</time></trkpt><trkpt lat="44.746181" lon="7.8962588"><ele>370.0</ele><time>2026-04-08T09:58:02.978Z</time></trkpt><trkpt lat="44.7462309" lon="7.8963458"><ele>369.5</ele><time>2026-04-08T09:58:03.978Z</time></trkpt><trkpt lat="44.7462841" lon="7.8964251"><ele>369.0</ele><time>2026-04-08T09:58:04.978Z</time></trkpt><trkpt lat="44.7463406" lon="7.8965119"><ele>368.5</ele><time>2026-04-08T09:58:05.978Z</time></trkpt><trkpt lat="44.7464011" lon="7.8965985"><ele>368.0</ele><time>2026-04-08T09:58:06.978Z</time></trkpt><trkpt lat="44.7464713" lon="7.8966723"><ele>368.0</ele><time>2026-04-08T09:58:07.978Z</time></trkpt><trkpt lat="44.7465402" lon="7.8967469"><ele>368.0</ele><time>2026-04-08T09:58:08.978Z</time></trkpt><trkpt lat="44.7466141" lon="7.896809"><ele>368.0</ele><time>2026-04-08T09:58:09.978Z</time></trkpt><trkpt lat="44.7467001" lon="7.8968706"><ele>368.0</ele><time>2026-04-08T09:58:10.978Z</time></trkpt><trkpt lat="44.7467815" lon="7.8969372"><ele>368.0</ele><time>2026-04-08T09:58:11.978Z</time></trkpt><trkpt lat="44.7468628" lon="7.897013"><ele>367.4</ele><time>2026-04-08T09:58:12.978Z</time></trkpt><trkpt lat="44.7469428" lon="7.897097"><ele>366.79999999999995</ele><time>2026-04-08T09:58:13.978Z</time></trkpt><trkpt lat="44.7470108" lon="7.8971962"><ele>366.2</ele><time>2026-04-08T09:58:14.978Z</time></trkpt><trkpt lat="44.7470728" lon="7.8973143"><ele>365.6</ele><time>2026-04-08T09:58:15.978Z</time></trkpt><trkpt lat="44.7471285" lon="7.8974329"><ele>365.0</ele><time>2026-04-08T09:58:16.978Z</time></trkpt><trkpt lat="44.747177" lon="7.8975477"><ele>365.5</ele><time>2026-04-08T09:58:17.978Z</time></trkpt><trkpt lat="44.7472301" lon="7.8976508"><ele>366.0</ele><time>2026-04-08T09:58:18.978Z</time></trkpt><trkpt lat="44.7472829" lon="7.8977451"><ele>366.5</ele><time>2026-04-08T09:58:19.978Z</time></trkpt><trkpt lat="44.7473267" lon="7.8978358"><ele>367.0</ele><time>2026-04-08T09:58:20.978Z</time></trkpt><trkpt lat="44.7473583" lon="7.8979163"><ele>367.5</ele><time>2026-04-08T09:58:21.978Z</time></trkpt><trkpt lat="44.7473881" lon="7.8980451"><ele>368.0</ele><time>2026-04-08T09:58:23.978Z</time></trkpt><trkpt lat="44.7473249" lon="7.8981532"><ele>368.0</ele><time>2026-04-08T09:58:25.978Z</time></trkpt><trkpt lat="44.7472064" lon="7.8982196"><ele>368.0</ele><time>2026-04-08T09:58:27.978Z</time></trkpt><trkpt lat="44.7471352" lon="7.8982569"><ele>368.0</ele><time>2026-04-08T09:58:28.978Z</time></trkpt><trkpt lat="44.7470631" lon="7.8983198"><ele>368.0</ele><time>2026-04-08T09:58:29.978Z</time></trkpt><trkpt lat="44.7470018" lon="7.8983975"><ele>368.0</ele><time>2026-04-08T09:58:30.978Z</time></trkpt><trkpt lat="44.7469395" lon="7.8984818"><ele>368.59999999999997</ele><time>2026-04-08T09:58:31.978Z</time></trkpt><trkpt lat="44.746875" lon="7.8985809"><ele>369.2</ele><time>2026-04-08T09:58:32.978Z</time></trkpt><trkpt lat="44.7468106" lon="7.8986984"><ele>369.8</ele><time>2026-04-08T09:58:33.978Z</time></trkpt><trkpt lat="44.7467618" lon="7.898837"><ele>370.4</ele><time>2026-04-08T09:58:34.978Z</time></trkpt><trkpt lat="44.7467036" lon="7.8989685"><ele>371.0</ele><time>2026-04-08T09:58:35.978Z</time></trkpt><trkpt lat="44.7466464" lon="7.899102"><ele>371.0</ele><time>2026-04-08T09:58:36.978Z</time></trkpt><trkpt lat="44.7465896" lon="7.8992243"><ele>371.0</ele><time>2026-04-08T09:58:37.978Z</time></trkpt><trkpt lat="44.7465534" lon="7.8993232"><ele>371.0</ele><time>2026-04-08T09:58:38.978Z</time></trkpt><trkpt lat="44.7465165" lon="7.8994075"><ele>371.0</ele><time>2026-04-08T09:58:39.978Z</time></trkpt><trkpt lat="44.7464778" lon="7.8995069"><ele>371.0</ele><time>2026-04-08T09:58:41.978Z</time></trkpt><trkpt lat="44.7464157" lon="7.8996164"><ele>371.0</ele><time>2026-04-08T09:59:14.978Z</time></trkpt><trkpt lat="44.7463635" lon="7.8997509"><ele>372.33333333333337</ele><time>2026-04-08T09:59:16.978Z</time></trkpt><trkpt lat="44.7463283" lon="7.899834"><ele>373.6666666666667</ele><time>2026-04-08T09:59:17.978Z</time></trkpt><trkpt lat="44.7462831" lon="7.8999113"><ele>375.0</ele><time>2026-04-08T09:59:18.978Z</time></trkpt><trkpt lat="44.7462444" lon="7.899995"><ele>376.3333333333333</ele><time>2026-04-08T09:59:19.978Z</time></trkpt><trkpt lat="44.7462032" lon="7.9000888"><ele>377.66666666666663</ele><time>2026-04-08T09:59:20.978Z</time></trkpt><trkpt lat="44.7461483" lon="7.9001909"><ele>379.0</ele><time>2026-04-08T09:59:21.978Z</time></trkpt><trkpt lat="44.7461013" lon="7.9002992"><ele>380.2</ele><time>2026-04-08T09:59:22.978Z</time></trkpt><trkpt lat="44.746054" lon="7.9004029"><ele>381.4</ele><time>2026-04-08T09:59:23.978Z</time></trkpt><trkpt lat="44.7460048" lon="7.9005174"><ele>382.6</ele><time>2026-04-08T09:59:24.978Z</time></trkpt><trkpt lat="44.7459612" lon="7.900628"><ele>383.8</ele><time>2026-04-08T09:59:25.978Z</time></trkpt><trkpt lat="44.7459064" lon="7.900742"><ele>385.0</ele><time>2026-04-08T09:59:26.978Z</time></trkpt><trkpt lat="44.7458591" lon="7.9008554"><ele>383.6666666666667</ele><time>2026-04-08T09:59:27.978Z</time></trkpt><trkpt lat="44.7458117" lon="7.9009592"><ele>382.33333333333337</ele><time>2026-04-08T09:59:28.978Z</time></trkpt><trkpt lat="44.7457646" lon="7.9010641"><ele>381.0</ele><time>2026-04-08T09:59:29.978Z</time></trkpt><trkpt lat="44.7457263" lon="7.901164"><ele>379.6666666666667</ele><time>2026-04-08T09:59:30.978Z</time></trkpt><trkpt lat="44.7456842" lon="7.9012518"><ele>378.33333333333337</ele><time>2026-04-08T09:59:31.978Z</time></trkpt><trkpt lat="44.745662" lon="7.9013471"><ele>377.0</ele><time>2026-04-08T09:59:32.978Z</time></trkpt><trkpt lat="44.7456458" lon="7.9014443"><ele>377.0</ele><time>2026-04-08T09:59:33.978Z</time></trkpt><trkpt lat="44.7456747" lon="7.901538"><ele>377.0</ele><time>2026-04-08T09:59:34.978Z</time></trkpt><trkpt lat="44.7456905" lon="7.9016394"><ele>377.0</ele><time>2026-04-08T09:59:35.978Z</time></trkpt><trkpt lat="44.7457148" lon="7.9017502"><ele>377.0</ele><time>2026-04-08T09:59:36.978Z</time></trkpt><trkpt lat="44.7457385" lon="7.9018556"><ele>377.0</ele><time>2026-04-08T09:59:37.978Z</time></trkpt><trkpt lat="44.7457741" lon="7.9019649"><ele>377.0</ele><time>2026-04-08T09:59:38.978Z</time></trkpt><trkpt lat="44.7458107" lon="7.9020747"><ele>377.33333333333337</ele><time>2026-04-08T09:59:39.978Z</time></trkpt><trkpt lat="44.7458435" lon="7.9021875"><ele>377.6666666666667</ele><time>2026-04-08T09:59:40.978Z</time></trkpt><trkpt lat="44.7458715" lon="7.9023052"><ele>378.0</ele><time>2026-04-08T09:59:41.978Z</time></trkpt><trkpt lat="44.7458946" lon="7.902431"><ele>378.3333333333333</ele><time>2026-04-08T09:59:42.978Z</time></trkpt><trkpt lat="44.7458981" lon="7.9025449"><ele>378.66666666666663</ele><time>2026-04-08T09:59:43.978Z</time></trkpt><trkpt lat="44.7458822" lon="7.9026437"><ele>379.0</ele><time>2026-04-08T09:59:44.978Z</time></trkpt><trkpt lat="44.7458524" lon="7.9027324"><ele>379.0</ele><time>2026-04-08T09:59:45.978Z</time></trkpt><trkpt lat="44.74582" lon="7.902822"><ele>379.0</ele><time>2026-04-08T09:59:46.978Z</time></trkpt><trkpt lat="44.7457835" lon="7.9028991"><ele>379.0</ele><time>2026-04-08T09:59:47.978Z</time></trkpt><trkpt lat="44.7457069" lon="7.9030213"><ele>379.0</ele><time>2026-04-08T09:59:49.978Z</time></trkpt><trkpt lat="44.7456581" lon="7.9030927"><ele>379.0</ele><time>2026-04-08T09:59:50.978Z</time></trkpt><trkpt lat="44.7455676" lon="7.9032077"><ele>379.0</ele><time>2026-04-08T09:59:52.978Z</time></trkpt><trkpt lat="44.7455051" lon="7.90324"><ele>379.0</ele><time>2026-04-08T09:59:53.978Z</time></trkpt><trkpt lat="44.7454549" lon="7.9032951"><ele>379.0</ele><time>2026-04-08T09:59:54.978Z</time></trkpt><trkpt lat="44.7453647" lon="7.9034175"><ele>379.0</ele><time>2026-04-08T09:59:56.978Z</time></trkpt><trkpt lat="44.74531" lon="7.9034961"><ele>379.0</ele><time>2026-04-08T09:59:58.978Z</time></trkpt><trkpt lat="44.7453888" lon="7.9035246"><ele>379.0</ele><time>2026-04-08T10:00:04.978Z</time></trkpt><trkpt lat="44.7454171" lon="7.903422"><ele>379.0</ele><time>2026-04-08T10:00:05.978Z</time></trkpt><trkpt lat="44.7454979" lon="7.9033168"><ele>379.0</ele><time>2026-04-08T10:00:07.978Z</time></trkpt><trkpt lat="44.7455526" lon="7.9032358"><ele>379.0</ele><time>2026-04-08T10:00:08.978Z</time></trkpt><trkpt lat="44.7456031" lon="7.9031624"><ele>379.0</ele><time>2026-04-08T10:00:09.978Z</time></trkpt><trkpt lat="44.7456568" lon="7.9031082"><ele>379.0</ele><time>2026-04-08T10:00:10.978Z</time></trkpt><trkpt lat="44.7457473" lon="7.9029946"><ele>379.0</ele><time>2026-04-08T10:00:12.978Z</time></trkpt><trkpt lat="44.7458003" lon="7.9029313"><ele>379.0</ele><time>2026-04-08T10:00:13.978Z</time></trkpt><trkpt lat="44.7458438" lon="7.9028618"><ele>379.0</ele><time>2026-04-08T10:00:14.978Z</time></trkpt><trkpt lat="44.7459238" lon="7.9027372"><ele>379.0</ele><time>2026-04-08T10:00:16.978Z</time></trkpt><trkpt lat="44.7460023" lon="7.9026488"><ele>379.0</ele><time>2026-04-08T10:00:18.978Z</time></trkpt><trkpt lat="44.7460953" lon="7.9026448"><ele>379.0</ele><time>2026-04-08T10:00:20.978Z</time></trkpt><trkpt lat="44.7461565" lon="7.9026955"><ele>379.0</ele><time>2026-04-08T10:00:22.978Z</time></trkpt><trkpt lat="44.74626" lon="7.9026796"><ele>378.3333333333333</ele><time>2026-04-08T10:00:24.978Z</time></trkpt><trkpt lat="44.7463807" lon="7.9027007"><ele>377.66666666666663</ele><time>2026-04-08T10:00:26.978Z</time></trkpt><trkpt lat="44.7464435" lon="7.9027587"><ele>377.0</ele><time>2026-04-08T10:00:27.978Z</time></trkpt><trkpt lat="44.7464899" lon="7.9028294"><ele>376.3333333333333</ele><time>2026-04-08T10:00:28.978Z</time></trkpt><trkpt lat="44.7465352" lon="7.9029061"><ele>375.6666666666667</ele><time>2026-04-08T10:00:29.978Z</time></trkpt><trkpt lat="44.7465935" lon="7.902979"><ele>375.0</ele><time>2026-04-08T10:00:30.978Z</time></trkpt><trkpt lat="44.746658" lon="7.9030412"><ele>375.0</ele><time>2026-04-08T10:00:31.978Z</time></trkpt><trkpt lat="44.746719" lon="7.9031081"><ele>375.0</ele><time>2026-04-08T10:00:32.978Z</time></trkpt><trkpt lat="44.7467692" lon="7.9031761"><ele>375.0</ele><time>2026-04-08T10:00:33.978Z</time></trkpt><trkpt lat="44.7468296" lon="7.9032902"><ele>375.0</ele><time>2026-04-08T10:00:35.978Z</time></trkpt><trkpt lat="44.7468581" lon="7.90343"><ele>375.0</ele><time>2026-04-08T10:00:37.978Z</time></trkpt><trkpt lat="44.7468874" lon="7.9035194"><ele>375.0</ele><time>2026-04-08T10:00:38.978Z</time></trkpt><trkpt lat="44.7469178" lon="7.903628"><ele>374.8</ele><time>2026-04-08T10:00:39.978Z</time></trkpt><trkpt lat="44.7469543" lon="7.9037446"><ele>374.6</ele><time>2026-04-08T10:00:40.978Z</time></trkpt><trkpt lat="44.7469995" lon="7.9038609"><ele>374.4</ele><time>2026-04-08T10:00:41.978Z</time></trkpt><trkpt lat="44.7470359" lon="7.9039874"><ele>374.2</ele><time>2026-04-08T10:00:42.978Z</time></trkpt><trkpt lat="44.7470783" lon="7.9041201"><ele>374.0</ele><time>2026-04-08T10:00:43.978Z</time></trkpt><trkpt lat="44.7471225" lon="7.9042533"><ele>374.6</ele><time>2026-04-08T10:00:44.978Z</time></trkpt><trkpt lat="44.7471668" lon="7.9043838"><ele>375.2</ele><time>2026-04-08T10:00:45.978Z</time></trkpt><trkpt lat="44.7472073" lon="7.9045103"><ele>375.8</ele><time>2026-04-08T10:00:46.978Z</time></trkpt><trkpt lat="44.7472519" lon="7.904643"><ele>376.40000000000003</ele><time>2026-04-08T10:00:47.978Z</time></trkpt><trkpt lat="44.7472868" lon="7.9047646"><ele>377.0</ele><time>2026-04-08T10:00:48.978Z</time></trkpt><trkpt lat="44.7473191" lon="7.9048698"><ele>377.0</ele><time>2026-04-08T10:00:49.978Z</time></trkpt><trkpt lat="44.7473496" lon="7.904959"><ele>377.0</ele><time>2026-04-08T10:00:50.978Z</time></trkpt><trkpt lat="44.747373" lon="7.9050418"><ele>377.0</ele><time>2026-04-08T10:00:51.978Z</time></trkpt><trkpt lat="44.7473657" lon="7.9051531"><ele>377.0</ele><time>2026-04-08T10:00:53.978Z</time></trkpt><trkpt lat="44.7472578" lon="7.9052026"><ele>377.0</ele><time>2026-04-08T10:00:55.978Z</time></trkpt><trkpt lat="44.7471873" lon="7.9052211"><ele>377.0</ele><time>2026-04-08T10:00:56.978Z</time></trkpt><trkpt lat="44.7471088" lon="7.9052424"><ele>378.0</ele><time>2026-04-08T10:00:57.978Z</time></trkpt><trkpt lat="44.7470273" lon="7.90526"><ele>379.0</ele><time>2026-04-08T10:00:58.978Z</time></trkpt><trkpt lat="44.7469379" lon="7.905276"><ele>380.0</ele><time>2026-04-08T10:00:59.978Z</time></trkpt><trkpt lat="44.7468651" lon="7.9053029"><ele>381.0</ele><time>2026-04-08T10:01:00.978Z</time></trkpt><trkpt lat="44.7467883" lon="7.9053418"><ele>382.0</ele><time>2026-04-08T10:01:01.978Z</time></trkpt><trkpt lat="44.746728" lon="7.9054239"><ele>383.0</ele><time>2026-04-08T10:01:02.978Z</time></trkpt><trkpt lat="44.7466962" lon="7.9055454"><ele>383.2</ele><time>2026-04-08T10:01:03.978Z</time></trkpt><trkpt lat="44.7466786" lon="7.905673"><ele>383.4</ele><time>2026-04-08T10:01:04.978Z</time></trkpt><trkpt lat="44.7466562" lon="7.9058092"><ele>383.59999999999997</ele><time>2026-04-08T10:01:05.978Z</time></trkpt><trkpt lat="44.7466175" lon="7.9059454"><ele>383.79999999999995</ele><time>2026-04-08T10:01:06.978Z</time></trkpt><trkpt lat="44.746562" lon="7.9060749"><ele>384.0</ele><time>2026-04-08T10:01:07.978Z</time></trkpt><trkpt lat="44.7465068" lon="7.9062084"><ele>386.0</ele><time>2026-04-08T10:01:08.978Z</time></trkpt><trkpt lat="44.7464779" lon="7.9063589"><ele>388.0</ele><time>2026-04-08T10:01:09.978Z</time></trkpt><trkpt lat="44.7464588" lon="7.9065169"><ele>390.0</ele><time>2026-04-08T10:01:10.978Z</time></trkpt><trkpt lat="44.7464824" lon="7.906668"><ele>392.0</ele><time>2026-04-08T10:01:11.978Z</time></trkpt><trkpt lat="44.7465053" lon="7.9068092"><ele>394.0</ele><time>2026-04-08T10:01:12.978Z</time></trkpt><trkpt lat="44.7465372" lon="7.9069647"><ele>394.0</ele><time>2026-04-08T10:01:13.978Z</time></trkpt><trkpt lat="44.7465491" lon="7.9071283"><ele>394.0</ele><time>2026-04-08T10:01:14.978Z</time></trkpt><trkpt lat="44.7465362" lon="7.9072681"><ele>394.0</ele><time>2026-04-08T10:01:15.978Z</time></trkpt><trkpt lat="44.7465376" lon="7.9074122"><ele>394.0</ele><time>2026-04-08T10:01:16.978Z</time></trkpt><trkpt lat="44.7465871" lon="7.9075605"><ele>394.0</ele><time>2026-04-08T10:01:17.978Z</time></trkpt><trkpt lat="44.7466684" lon="7.9077181"><ele>394.0</ele><time>2026-04-08T10:01:18.978Z</time></trkpt><trkpt lat="44.7467475" lon="7.9078469"><ele>394.0</ele><time>2026-04-08T10:01:19.978Z</time></trkpt><trkpt lat="44.7468238" lon="7.9079731"><ele>394.0</ele><time>2026-04-08T10:01:20.978Z</time></trkpt><trkpt lat="44.7468776" lon="7.90809"><ele>394.0</ele><time>2026-04-08T10:01:21.978Z</time></trkpt><trkpt lat="44.746934" lon="7.9082024"><ele>394.0</ele><time>2026-04-08T10:01:22.978Z</time></trkpt><trkpt lat="44.7469716" lon="7.9083037"><ele>393.6</ele><time>2026-04-08T10:01:23.978Z</time></trkpt><trkpt lat="44.7469854" lon="7.9084616"><ele>393.2</ele><time>2026-04-08T10:01:25.978Z</time></trkpt><trkpt lat="44.7469988" lon="7.9085961"><ele>392.8</ele><time>2026-04-08T10:01:27.978Z</time></trkpt><trkpt lat="44.747015" lon="7.908719"><ele>392.40000000000003</ele><time>2026-04-08T10:01:30.978Z</time></trkpt><trkpt lat="44.7470513" lon="7.9088155"><ele>392.0</ele><time>2026-04-08T10:01:32.978Z</time></trkpt><trkpt lat="44.7470819" lon="7.9089491"><ele>392.0</ele><time>2026-04-08T10:01:34.978Z</time></trkpt><trkpt lat="44.74716" lon="7.9090574"><ele>392.0</ele><time>2026-04-08T10:01:36.978Z</time></trkpt><trkpt lat="44.7472578" lon="7.9091051"><ele>392.0</ele><time>2026-04-08T10:01:38.978Z</time></trkpt><trkpt lat="44.7473662" lon="7.9091516"><ele>392.0</ele><time>2026-04-08T10:01:40.978Z</time></trkpt><trkpt lat="44.7474508" lon="7.9092663"><ele>392.0</ele><time>2026-04-08T10:01:42.978Z</time></trkpt><trkpt lat="44.7475001" lon="7.9094055"><ele>388.0</ele><time>2026-04-08T10:01:44.978Z</time></trkpt><trkpt lat="44.7475859" lon="7.9094993"><ele>384.0</ele><time>2026-04-08T10:01:46.978Z</time></trkpt><trkpt lat="44.7476855" lon="7.909572"><ele>380.0</ele><time>2026-04-08T10:01:48.978Z</time></trkpt><trkpt lat="44.7477932" lon="7.9096143"><ele>376.0</ele><time>2026-04-08T10:01:50.978Z</time></trkpt><trkpt lat="44.7479109" lon="7.9096011"><ele>376.0</ele><time>2026-04-08T10:01:52.978Z</time></trkpt><trkpt lat="44.7480335" lon="7.9095848"><ele>376.0</ele><time>2026-04-08T10:01:54.978Z</time></trkpt><trkpt lat="44.7481061" lon="7.9096127"><ele>376.0</ele><time>2026-04-08T10:01:55.978Z</time></trkpt><trkpt lat="44.7481772" lon="7.9096404"><ele>376.0</ele><time>2026-04-08T10:01:56.978Z</time></trkpt><trkpt lat="44.7482477" lon="7.9096747"><ele>376.0</ele><time>2026-04-08T10:01:57.978Z</time></trkpt><trkpt lat="44.7483161" lon="7.9096996"><ele>376.0</ele><time>2026-04-08T10:01:58.978Z</time></trkpt><trkpt lat="44.7484008" lon="7.9097476"><ele>376.0</ele><time>2026-04-08T10:02:00.978Z</time></trkpt><trkpt lat="44.7484693" lon="7.9098172"><ele>376.0</ele><time>2026-04-08T10:02:02.978Z</time></trkpt><trkpt lat="44.7484713" lon="7.9099515"><ele>376.0</ele><time>2026-04-08T10:02:04.978Z</time></trkpt><trkpt lat="44.7484048" lon="7.9100969"><ele>376.0</ele><time>2026-04-08T10:02:06.978Z</time></trkpt><trkpt lat="44.7483592" lon="7.9101634"><ele>376.0</ele><time>2026-04-08T10:02:07.978Z</time></trkpt><trkpt lat="44.7483179" lon="7.9102435"><ele>376.0</ele><time>2026-04-08T10:02:08.978Z</time></trkpt><trkpt lat="44.748278" lon="7.9103205"><ele>374.0</ele><time>2026-04-08T10:02:09.978Z</time></trkpt><trkpt lat="44.7482343" lon="7.9104622"><ele>372.0</ele><time>2026-04-08T10:02:11.978Z</time></trkpt><trkpt lat="44.748205" lon="7.9106005"><ele>370.0</ele><time>2026-04-08T10:02:13.978Z</time></trkpt><trkpt lat="44.74824" lon="7.9107493"><ele>368.0</ele><time>2026-04-08T10:02:15.978Z</time></trkpt><trkpt lat="44.7482987" lon="7.9108608"><ele>366.0</ele><time>2026-04-08T10:02:17.978Z</time></trkpt><trkpt lat="44.7483546" lon="7.91091"><ele>368.6</ele><time>2026-04-08T10:02:18.978Z</time></trkpt><trkpt lat="44.748474" lon="7.9109939"><ele>371.20000000000005</ele><time>2026-04-08T10:02:20.978Z</time></trkpt><trkpt lat="44.7485318" lon="7.9110406"><ele>373.79999999999995</ele><time>2026-04-08T10:02:21.978Z</time></trkpt><trkpt lat="44.7486236" lon="7.9111383"><ele>376.4</ele><time>2026-04-08T10:02:23.978Z</time></trkpt><trkpt lat="44.7487004" lon="7.9112462"><ele>379.0</ele><time>2026-04-08T10:02:25.978Z</time></trkpt><trkpt lat="44.7487335" lon="7.9113908"><ele>379.0</ele><time>2026-04-08T10:02:27.978Z</time></trkpt><trkpt lat="44.7487463" lon="7.9114792"><ele>379.0</ele><time>2026-04-08T10:02:28.978Z</time></trkpt><trkpt lat="44.7487023" lon="7.9115624"><ele>379.0</ele><time>2026-04-08T10:02:29.978Z</time></trkpt><trkpt lat="44.748662" lon="7.9116335"><ele>379.0</ele><time>2026-04-08T10:02:30.978Z</time></trkpt><trkpt lat="44.7486161" lon="7.9117478"><ele>379.0</ele><time>2026-04-08T10:02:32.978Z</time></trkpt><trkpt lat="44.7486327" lon="7.9118986"><ele>379.0</ele><time>2026-04-08T10:02:34.978Z</time></trkpt><trkpt lat="44.7486747" lon="7.9120546"><ele>377.0</ele><time>2026-04-08T10:02:36.978Z</time></trkpt><trkpt lat="44.7487267" lon="7.9122135"><ele>375.0</ele><time>2026-04-08T10:02:38.978Z</time></trkpt><trkpt lat="44.7487062" lon="7.9123474"><ele>373.0</ele><time>2026-04-08T10:02:40.978Z</time></trkpt><trkpt lat="44.7486607" lon="7.9124812"><ele>371.0</ele><time>2026-04-08T10:02:42.978Z</time></trkpt><trkpt lat="44.7486133" lon="7.9126013"><ele>369.0</ele><time>2026-04-08T10:02:44.978Z</time></trkpt><trkpt lat="44.7485714" lon="7.9126968"><ele>366.0</ele><time>2026-04-08T10:02:46.978Z</time></trkpt><trkpt lat="44.7485056" lon="7.9128081"><ele>363.0</ele><time>2026-04-08T10:02:48.978Z</time></trkpt><trkpt lat="44.7484973" lon="7.9129624"><ele>360.0</ele><time>2026-04-08T10:02:50.978Z</time></trkpt><trkpt lat="44.7485177" lon="7.9130508"><ele>357.0</ele><time>2026-04-08T10:02:51.978Z</time></trkpt><trkpt lat="44.7485248" lon="7.9131421"><ele>354.0</ele><time>2026-04-08T10:02:52.978Z</time></trkpt><trkpt lat="44.7485438" lon="7.9132336"><ele>351.0</ele><time>2026-04-08T10:02:53.978Z</time></trkpt><trkpt lat="44.7485643" lon="7.9133201"><ele>345.8</ele><time>2026-04-08T10:02:54.978Z</time></trkpt><trkpt lat="44.7485887" lon="7.9134073"><ele>340.6</ele><time>2026-04-08T10:02:55.978Z</time></trkpt><trkpt lat="44.7486879" lon="7.9135402"><ele>335.4</ele><time>2026-04-08T10:02:57.978Z</time></trkpt><trkpt lat="44.7487723" lon="7.9136538"><ele>330.2</ele><time>2026-04-08T10:02:59.978Z</time></trkpt><trkpt lat="44.7488235" lon="7.9137196"><ele>325.0</ele><time>2026-04-08T10:03:00.978Z</time></trkpt><trkpt lat="44.7488552" lon="7.9138002"><ele>325.0</ele><time>2026-04-08T10:03:01.978Z</time></trkpt><trkpt lat="44.7488803" lon="7.9138921"><ele>325.0</ele><time>2026-04-08T10:03:02.978Z</time></trkpt><trkpt lat="44.7488943" lon="7.914002"><ele>325.0</ele><time>2026-04-08T10:03:03.978Z</time></trkpt><trkpt lat="44.7488842" lon="7.9141163"><ele>325.0</ele><time>2026-04-08T10:03:04.978Z</time></trkpt><trkpt lat="44.7488966" lon="7.9142113"><ele>325.0</ele><time>2026-04-08T10:03:05.978Z</time></trkpt><trkpt lat="44.7488974" lon="7.9143063"><ele>325.0</ele><time>2026-04-08T10:03:06.978Z</time></trkpt><trkpt lat="44.7489157" lon="7.9144054"><ele>325.0</ele><time>2026-04-08T10:03:07.978Z</time></trkpt><trkpt lat="44.7489403" lon="7.9145088"><ele>323.16666666666663</ele><time>2026-04-08T10:03:08.978Z</time></trkpt><trkpt lat="44.7489604" lon="7.9146184"><ele>321.3333333333333</ele><time>2026-04-08T10:03:09.978Z</time></trkpt><trkpt lat="44.7489793" lon="7.9147427"><ele>319.5</ele><time>2026-04-08T10:03:10.978Z</time></trkpt><trkpt lat="44.748994" lon="7.9148603"><ele>317.6666666666667</ele><time>2026-04-08T10:03:11.978Z</time></trkpt><trkpt lat="44.7490042" lon="7.9149818"><ele>315.83333333333337</ele><time>2026-04-08T10:03:12.978Z</time></trkpt><trkpt lat="44.7490049" lon="7.9150863"><ele>314.0</ele><time>2026-04-08T10:03:13.978Z</time></trkpt><trkpt lat="44.7490059" lon="7.9151793"><ele>314.0</ele><time>2026-04-08T10:03:14.978Z</time></trkpt><trkpt lat="44.7489949" lon="7.9153147"><ele>314.0</ele><time>2026-04-08T10:03:16.978Z</time></trkpt><trkpt lat="44.7489635" lon="7.9154239"><ele>314.0</ele><time>2026-04-08T10:03:27.978Z</time></trkpt><trkpt lat="44.7489365" lon="7.9155196"><ele>314.0</ele><time>2026-04-08T10:03:29.978Z</time></trkpt><trkpt lat="44.7488985" lon="7.9156165"><ele>314.0</ele><time>2026-04-08T10:03:31.978Z</time></trkpt><trkpt lat="44.7488428" lon="7.9156738"><ele>314.0</ele><time>2026-04-08T10:03:34.978Z</time></trkpt><trkpt lat="44.7489273" lon="7.9156456"><ele>314.0</ele><time>2026-04-08T10:03:41.978Z</time></trkpt><trkpt lat="44.7489423" lon="7.9155159"><ele>314.0</ele><time>2026-04-08T10:03:42.978Z</time></trkpt><trkpt lat="44.7489662" lon="7.9154337"><ele>314.0</ele><time>2026-04-08T10:03:43.978Z</time></trkpt><trkpt lat="44.749007" lon="7.915254"><ele>314.0</ele><time>2026-04-08T10:03:45.978Z</time></trkpt><trkpt lat="44.7490143" lon="7.9151602"><ele>314.0</ele><time>2026-04-08T10:03:46.978Z</time></trkpt><trkpt lat="44.7490168" lon="7.9150548"><ele>314.0</ele><time>2026-04-08T10:03:47.978Z</time></trkpt><trkpt lat="44.7490091" lon="7.9149413"><ele>314.0</ele><time>2026-04-08T10:03:48.978Z</time></trkpt><trkpt lat="44.7489998" lon="7.9148374"><ele>314.0</ele><time>2026-04-08T10:03:49.978Z</time></trkpt><trkpt lat="44.7489876" lon="7.9147293"><ele>314.0</ele><time>2026-04-08T10:03:50.978Z</time></trkpt><trkpt lat="44.7489658" lon="7.9146225"><ele>314.0</ele><time>2026-04-08T10:03:51.978Z</time></trkpt><trkpt lat="44.7489431" lon="7.9145143"><ele>314.0</ele><time>2026-04-08T10:03:52.978Z</time></trkpt><trkpt lat="44.7489249" lon="7.9144113"><ele>314.0</ele><time>2026-04-08T10:03:53.978Z</time></trkpt><trkpt lat="44.7489107" lon="7.9143065"><ele>315.57142857142856</ele><time>2026-04-08T10:03:54.978Z</time></trkpt><trkpt lat="44.7489024" lon="7.9141973"><ele>317.1428571428571</ele><time>2026-04-08T10:03:55.978Z</time></trkpt><trkpt lat="44.7488932" lon="7.9140973"><ele>318.71428571428567</ele><time>2026-04-08T10:03:56.978Z</time></trkpt><trkpt lat="44.7488835" lon="7.9139865"><ele>320.2857142857143</ele><time>2026-04-08T10:03:57.978Z</time></trkpt><trkpt lat="44.7488799" lon="7.9138949"><ele>321.8571428571429</ele><time>2026-04-08T10:03:58.978Z</time></trkpt><trkpt lat="44.7488589" lon="7.9138059"><ele>323.4285714285714</ele><time>2026-04-08T10:03:59.978Z</time></trkpt><trkpt lat="44.7488271" lon="7.9137169"><ele>325.0</ele><time>2026-04-08T10:04:00.978Z</time></trkpt><trkpt lat="44.7487778" lon="7.9136411"><ele>325.0</ele><time>2026-04-08T10:04:01.978Z</time></trkpt><trkpt lat="44.7487227" lon="7.9135691"><ele>325.0</ele><time>2026-04-08T10:04:02.978Z</time></trkpt><trkpt lat="44.7486777" lon="7.9134968"><ele>325.0</ele><time>2026-04-08T10:04:03.978Z</time></trkpt><trkpt lat="44.7486299" lon="7.9134231"><ele>325.0</ele><time>2026-04-08T10:04:04.978Z</time></trkpt><trkpt lat="44.7485749" lon="7.913266"><ele>325.0</ele><time>2026-04-08T10:04:06.978Z</time></trkpt><trkpt lat="44.748557" lon="7.9131669"><ele>325.0</ele><time>2026-04-08T10:04:07.978Z</time></trkpt><trkpt lat="44.7485451" lon="7.9130498"><ele>325.5</ele><time>2026-04-08T10:04:08.978Z</time></trkpt><trkpt lat="44.7485341" lon="7.9129471"><ele>326.0</ele><time>2026-04-08T10:04:09.978Z</time></trkpt><trkpt lat="44.7485372" lon="7.9128202"><ele>326.5</ele><time>2026-04-08T10:04:11.978Z</time></trkpt><trkpt lat="44.7485724" lon="7.912734"><ele>327.0</ele><time>2026-04-08T10:04:13.978Z</time></trkpt><trkpt lat="44.7486052" lon="7.912614"><ele>327.5</ele><time>2026-04-08T10:04:15.978Z</time></trkpt><trkpt lat="44.7486432" lon="7.9124935"><ele>328.0</ele><time>2026-04-08T10:04:17.978Z</time></trkpt><trkpt lat="44.7486873" lon="7.9123921"><ele>336.2</ele><time>2026-04-08T10:04:19.978Z</time></trkpt><trkpt lat="44.7487174" lon="7.9122598"><ele>344.4</ele><time>2026-04-08T10:04:21.978Z</time></trkpt><trkpt lat="44.7486784" lon="7.9120879"><ele>352.59999999999997</ele><time>2026-04-08T10:04:23.978Z</time></trkpt><trkpt lat="44.7486552" lon="7.9120016"><ele>360.79999999999995</ele><time>2026-04-08T10:04:24.978Z</time></trkpt><trkpt lat="44.7486362" lon="7.9119142"><ele>369.0</ele><time>2026-04-08T10:04:25.978Z</time></trkpt><trkpt lat="44.7486133" lon="7.9117606"><ele>371.5</ele><time>2026-04-08T10:04:27.978Z</time></trkpt><trkpt lat="44.7486759" lon="7.911648"><ele>374.0</ele><time>2026-04-08T10:04:29.978Z</time></trkpt><trkpt lat="44.7487417" lon="7.9115069"><ele>376.5</ele><time>2026-04-08T10:04:31.978Z</time></trkpt><trkpt lat="44.7487422" lon="7.9113522"><ele>379.0</ele><time>2026-04-08T10:04:33.978Z</time></trkpt><trkpt lat="44.7486939" lon="7.9111974"><ele>379.00000000000006</ele><time>2026-04-08T10:04:35.978Z</time></trkpt><trkpt lat="44.7486438" lon="7.9111313"><ele>379.0</ele><time>2026-04-08T10:04:36.978Z</time></trkpt><trkpt lat="44.7485801" lon="7.9110646"><ele>379.0</ele><time>2026-04-08T10:04:37.978Z</time></trkpt><trkpt lat="44.7485202" lon="7.911001"><ele>379.0</ele><time>2026-04-08T10:04:38.978Z</time></trkpt><trkpt lat="44.7484695" lon="7.9109479"><ele>379.0</ele><time>2026-04-08T10:04:39.978Z</time></trkpt><trkpt lat="44.7483847" lon="7.91089"><ele>379.00000000000006</ele><time>2026-04-08T10:04:41.978Z</time></trkpt><trkpt lat="44.7483272" lon="7.9108455"><ele>379.0</ele><time>2026-04-08T10:04:48.978Z</time></trkpt><trkpt lat="44.7482497" lon="7.9107661"><ele>376.8333333333333</ele><time>2026-04-08T10:04:51.978Z</time></trkpt><trkpt lat="44.748254" lon="7.9106758"><ele>374.66666666666663</ele><time>2026-04-08T10:04:52.978Z</time></trkpt><trkpt lat="44.7482534" lon="7.9105444"><ele>372.5</ele><time>2026-04-08T10:04:54.978Z</time></trkpt><trkpt lat="44.7482598" lon="7.910415"><ele>370.3333333333333</ele><time>2026-04-08T10:04:56.978Z</time></trkpt><trkpt lat="44.7482845" lon="7.9103024"><ele>368.1666666666667</ele><time>2026-04-08T10:04:58.978Z</time></trkpt><trkpt lat="44.7483247" lon="7.9102325"><ele>366.0</ele><time>2026-04-08T10:04:59.978Z</time></trkpt><trkpt lat="44.7483913" lon="7.9101087"><ele>367.6666666666667</ele><time>2026-04-08T10:05:01.978Z</time></trkpt><trkpt lat="44.7484389" lon="7.9100492"><ele>369.3333333333333</ele><time>2026-04-08T10:05:02.978Z</time></trkpt><trkpt lat="44.7484923" lon="7.9099473"><ele>371.0</ele><time>2026-04-08T10:05:04.978Z</time></trkpt><trkpt lat="44.7484911" lon="7.9098409"><ele>372.66666666666663</ele><time>2026-04-08T10:05:06.978Z</time></trkpt><trkpt lat="44.7484477" lon="7.9097535"><ele>374.3333333333333</ele><time>2026-04-08T10:05:08.978Z</time></trkpt><trkpt lat="44.748374" lon="7.9097128"><ele>376.0</ele><time>2026-04-08T10:05:10.978Z</time></trkpt><trkpt lat="44.7482827" lon="7.9096669"><ele>376.0</ele><time>2026-04-08T10:05:12.978Z</time></trkpt><trkpt lat="44.7481826" lon="7.9096249"><ele>376.0</ele><time>2026-04-08T10:05:14.978Z</time></trkpt><trkpt lat="44.7480875" lon="7.9095728"><ele>376.0</ele><time>2026-04-08T10:05:16.978Z</time></trkpt><trkpt lat="44.7479746" lon="7.9095554"><ele>376.0</ele><time>2026-04-08T10:05:18.978Z</time></trkpt><trkpt lat="44.7478906" lon="7.9095654"><ele>376.0</ele><time>2026-04-08T10:05:20.978Z</time></trkpt><trkpt lat="44.7477767" lon="7.9095851"><ele>375.16666666666663</ele><time>2026-04-08T10:05:22.978Z</time></trkpt><trkpt lat="44.7476871" lon="7.9095709"><ele>374.3333333333333</ele><time>2026-04-08T10:05:24.978Z</time></trkpt><trkpt lat="44.747602" lon="7.9095327"><ele>373.5</ele><time>2026-04-08T10:05:26.978Z</time></trkpt><trkpt lat="44.7475405" lon="7.9094909"><ele>372.6666666666667</ele><time>2026-04-08T10:05:29.978Z</time></trkpt><trkpt lat="44.7474783" lon="7.9094052"><ele>371.83333333333337</ele><time>2026-04-08T10:05:32.978Z</time></trkpt><trkpt lat="44.7474399" lon="7.9092994"><ele>371.0</ele><time>2026-04-08T10:05:34.978Z</time></trkpt><trkpt lat="44.7473999" lon="7.9092145"><ele>371.0</ele><time>2026-04-08T10:05:36.978Z</time></trkpt><trkpt lat="44.7473337" lon="7.9091588"><ele>371.0</ele><time>2026-04-08T10:05:38.978Z</time></trkpt><trkpt lat="44.7472657" lon="7.9091365"><ele>371.0</ele><time>2026-04-08T10:05:40.978Z</time></trkpt><trkpt lat="44.7473417" lon="7.9091905"><ele>371.0</ele><time>2026-04-08T10:05:56.978Z</time></trkpt><trkpt lat="44.7474041" lon="7.909218"><ele>371.0</ele><time>2026-04-08T10:05:58.978Z</time></trkpt><trkpt lat="44.747456" lon="7.9092719"><ele>371.0</ele><time>2026-04-08T10:06:00.978Z</time></trkpt><trkpt lat="44.747498" lon="7.9093561"><ele>371.0</ele><time>2026-04-08T10:06:02.978Z</time></trkpt><trkpt lat="44.7475325" lon="7.9094467"><ele>371.0</ele><time>2026-04-08T10:06:04.978Z</time></trkpt><trkpt lat="44.7476022" lon="7.9095268"><ele>371.0</ele><time>2026-04-08T10:06:07.978Z</time></trkpt><trkpt lat="44.7476571" lon="7.9095726"><ele>371.0</ele><time>2026-04-08T10:06:09.978Z</time></trkpt><trkpt lat="44.7477314" lon="7.9096162"><ele>371.0</ele><time>2026-04-08T10:06:11.978Z</time></trkpt><trkpt lat="44.7478124" lon="7.909614"><ele>371.0</ele><time>2026-04-08T10:06:13.978Z</time></trkpt><trkpt lat="44.7478886" lon="7.9095869"><ele>371.0</ele><time>2026-04-08T10:06:16.978Z</time></trkpt><trkpt lat="44.7479682" lon="7.9095532"><ele>371.83333333333337</ele><time>2026-04-08T10:06:21.978Z</time></trkpt><trkpt lat="44.7480313" lon="7.9095399"><ele>372.6666666666667</ele><time>2026-04-08T10:06:23.978Z</time></trkpt><trkpt lat="44.7481243" lon="7.9095608"><ele>373.5</ele><time>2026-04-08T10:06:25.978Z</time></trkpt><trkpt lat="44.748219" lon="7.9095969"><ele>374.3333333333333</ele><time>2026-04-08T10:06:27.978Z</time></trkpt><trkpt lat="44.7482823" lon="7.9096555"><ele>375.16666666666663</ele><time>2026-04-08T10:06:29.978Z</time></trkpt><trkpt lat="44.7483457" lon="7.9096822"><ele>376.0</ele><time>2026-04-08T10:06:31.978Z</time></trkpt><trkpt lat="44.7484083" lon="7.9097053"><ele>376.0</ele><time>2026-04-08T10:06:33.978Z</time></trkpt><trkpt lat="44.7484764" lon="7.9097343"><ele>376.0</ele><time>2026-04-08T10:06:36.978Z</time></trkpt><trkpt lat="44.7485284" lon="7.9098009"><ele>376.0</ele><time>2026-04-08T10:06:38.978Z</time></trkpt><trkpt lat="44.7485849" lon="7.9098789"><ele>376.0</ele><time>2026-04-08T10:06:40.978Z</time></trkpt><trkpt lat="44.7486367" lon="7.9099645"><ele>376.0</ele><time>2026-04-08T10:06:42.978Z</time></trkpt><trkpt lat="44.7487227" lon="7.9099937"><ele>376.0</ele><time>2026-04-08T10:06:44.978Z</time></trkpt><trkpt lat="44.7488273" lon="7.9099865"><ele>375.8</ele><time>2026-04-08T10:06:46.978Z</time></trkpt><trkpt lat="44.7489243" lon="7.9099281"><ele>375.6</ele><time>2026-04-08T10:06:48.978Z</time></trkpt><trkpt lat="44.7489977" lon="7.9098956"><ele>375.4</ele><time>2026-04-08T10:06:50.978Z</time></trkpt><trkpt lat="44.7490705" lon="7.9099378"><ele>375.2</ele><time>2026-04-08T10:06:52.978Z</time></trkpt><trkpt lat="44.7491723" lon="7.9100046"><ele>375.0</ele><time>2026-04-08T10:06:54.978Z</time></trkpt><trkpt lat="44.7492709" lon="7.9100764"><ele>375.0</ele><time>2026-04-08T10:06:56.978Z</time></trkpt><trkpt lat="44.7493544" lon="7.9100726"><ele>375.0</ele><time>2026-04-08T10:06:58.978Z</time></trkpt><trkpt lat="44.7494465" lon="7.9100145"><ele>375.0</ele><time>2026-04-08T10:07:00.978Z</time></trkpt><trkpt lat="44.749541" lon="7.9099859"><ele>375.0</ele><time>2026-04-08T10:07:02.978Z</time></trkpt><trkpt lat="44.7496412" lon="7.9100645"><ele>375.0</ele><time>2026-04-08T10:07:04.978Z</time></trkpt><trkpt lat="44.7497407" lon="7.9101437"><ele>375.3333333333333</ele><time>2026-04-08T10:07:06.978Z</time></trkpt><trkpt lat="44.7498539" lon="7.9101843"><ele>375.6666666666667</ele><time>2026-04-08T10:07:08.978Z</time></trkpt><trkpt lat="44.7499192" lon="7.9102027"><ele>376.0</ele><time>2026-04-08T10:07:09.978Z</time></trkpt><trkpt lat="44.7499935" lon="7.9101711"><ele>376.33333333333337</ele><time>2026-04-08T10:07:11.978Z</time></trkpt><trkpt lat="44.750052" lon="7.9101285"><ele>376.6666666666667</ele><time>2026-04-08T10:07:21.978Z</time></trkpt><trkpt lat="44.7500526" lon="7.9100209"><ele>377.0</ele><time>2026-04-08T10:07:24.978Z</time></trkpt><trkpt lat="44.7501225" lon="7.9099618"><ele>374.85714285714283</ele><time>2026-04-08T10:07:27.978Z</time></trkpt><trkpt lat="44.7501868" lon="7.9099543"><ele>372.7142857142857</ele><time>2026-04-08T10:07:29.978Z</time></trkpt><trkpt lat="44.750252" lon="7.909945"><ele>370.57142857142856</ele><time>2026-04-08T10:07:31.978Z</time></trkpt><trkpt lat="44.7503161" lon="7.9099562"><ele>368.42857142857144</ele><time>2026-04-08T10:07:33.978Z</time></trkpt><trkpt lat="44.7503449" lon="7.910036"><ele>366.2857142857143</ele><time>2026-04-08T10:07:36.978Z</time></trkpt><trkpt lat="44.7503284" lon="7.9099307"><ele>364.1428571428571</ele><time>2026-04-08T10:07:40.978Z</time></trkpt><trkpt lat="44.7502686" lon="7.9098848"><ele>362.0</ele><time>2026-04-08T10:07:43.978Z</time></trkpt><trkpt lat="44.7501201" lon="7.9099503"><ele>362.0</ele><time>2026-04-08T10:07:45.978Z</time></trkpt><trkpt lat="44.7500491" lon="7.9100171"><ele>362.0</ele><time>2026-04-08T10:07:47.978Z</time></trkpt><trkpt lat="44.7500848" lon="7.910141"><ele>362.0</ele><time>2026-04-08T10:07:50.978Z</time></trkpt><trkpt lat="44.7501226" lon="7.9102332"><ele>362.0</ele><time>2026-04-08T10:07:52.978Z</time></trkpt><trkpt lat="44.7501084" lon="7.9103437"><ele>362.0</ele><time>2026-04-08T10:07:54.978Z</time></trkpt><trkpt lat="44.7500511" lon="7.9104457"><ele>362.0</ele><time>2026-04-08T10:07:56.978Z</time></trkpt><trkpt lat="44.7499864" lon="7.9105355"><ele>364.5</ele><time>2026-04-08T10:07:58.978Z</time></trkpt><trkpt lat="44.7499401" lon="7.9106355"><ele>367.0</ele><time>2026-04-08T10:08:00.978Z</time></trkpt><trkpt lat="44.7498997" lon="7.9107583"><ele>369.5</ele><time>2026-04-08T10:08:03.978Z</time></trkpt><trkpt lat="44.7499425" lon="7.9108394"><ele>372.0</ele><time>2026-04-08T10:08:05.978Z</time></trkpt><trkpt lat="44.750004" lon="7.9108837"><ele>374.5</ele><time>2026-04-08T10:08:08.978Z</time></trkpt><trkpt lat="44.7499594" lon="7.9108155"><ele>377.0</ele><time>2026-04-08T10:08:48.978Z</time></trkpt><trkpt lat="44.7499315" lon="7.9107347"><ele>376.99999999999994</ele><time>2026-04-08T10:08:51.978Z</time></trkpt><trkpt lat="44.7499534" lon="7.9106465"><ele>377.0</ele><time>2026-04-08T10:08:54.978Z</time></trkpt><trkpt lat="44.7499913" lon="7.9105613"><ele>377.0</ele><time>2026-04-08T10:08:57.978Z</time></trkpt><trkpt lat="44.7500402" lon="7.9104901"><ele>377.0</ele><time>2026-04-08T10:10:24.978Z</time></trkpt><trkpt lat="44.7500802" lon="7.9103979"><ele>377.0</ele><time>2026-04-08T10:10:27.978Z</time></trkpt><trkpt lat="44.7500983" lon="7.9102903"><ele>376.99999999999994</ele><time>2026-04-08T10:10:30.978Z</time></trkpt><trkpt lat="44.7500732" lon="7.9102051"><ele>377.0</ele><time>2026-04-08T10:10:33.978Z</time></trkpt><trkpt lat="44.7499889" lon="7.9102171"><ele>376.99999999999994</ele><time>2026-04-08T10:10:42.978Z</time></trkpt><trkpt lat="44.7499286" lon="7.9101664"><ele>377.0</ele><time>2026-04-08T10:10:48.978Z</time></trkpt><trkpt lat="44.7498819" lon="7.9100971"><ele>377.0</ele><time>2026-04-08T10:10:51.978Z</time></trkpt><trkpt lat="44.7498503" lon="7.909992"><ele>377.0</ele><time>2026-04-08T10:10:54.978Z</time></trkpt><trkpt lat="44.7498022" lon="7.9099278"><ele>377.0</ele><time>2026-04-08T10:10:58.978Z</time></trkpt><trkpt lat="44.7498355" lon="7.9098226"><ele>376.99999999999994</ele><time>2026-04-08T10:11:02.978Z</time></trkpt><trkpt lat="44.7499124" lon="7.9097937"><ele>377.0</ele><time>2026-04-08T10:11:05.978Z</time></trkpt><trkpt lat="44.7499839" lon="7.9097428"><ele>374.85714285714283</ele><time>2026-04-08T10:11:08.978Z</time></trkpt><trkpt lat="44.750025" lon="7.9096718"><ele>372.7142857142857</ele><time>2026-04-08T10:11:10.978Z</time></trkpt><trkpt lat="44.7500843" lon="7.9096329"><ele>370.57142857142856</ele><time>2026-04-08T10:11:12.978Z</time></trkpt><trkpt lat="44.7501296" lon="7.909552"><ele>368.42857142857144</ele><time>2026-04-08T10:11:23.978Z</time></trkpt><trkpt lat="44.7502045" lon="7.9095236"><ele>366.2857142857143</ele><time>2026-04-08T10:11:30.978Z</time></trkpt><trkpt lat="44.7502667" lon="7.9095684"><ele>364.1428571428571</ele><time>2026-04-08T10:11:33.978Z</time></trkpt><trkpt lat="44.7502899" lon="7.9094749"><ele>362.0</ele><time>2026-04-08T10:11:38.978Z</time></trkpt><trkpt lat="44.7503068" lon="7.9093686"><ele>359.6666666666667</ele><time>2026-04-08T10:11:46.978Z</time></trkpt><trkpt lat="44.7503899" lon="7.9093435"><ele>357.33333333333337</ele><time>2026-04-08T10:11:49.978Z</time></trkpt><trkpt lat="44.7504519" lon="7.9093741"><ele>355.0</ele><time>2026-04-08T10:11:51.978Z</time></trkpt><trkpt lat="44.7505214" lon="7.9094188"><ele>352.6666666666667</ele><time>2026-04-08T10:11:53.978Z</time></trkpt><trkpt lat="44.750598" lon="7.9094277"><ele>350.3333333333333</ele><time>2026-04-08T10:11:55.978Z</time></trkpt><trkpt lat="44.750672" lon="7.9094581"><ele>348.0</ele><time>2026-04-08T10:11:57.978Z</time></trkpt><trkpt lat="44.7507447" lon="7.9095039"><ele>348.0</ele><time>2026-04-08T10:11:59.978Z</time></trkpt><trkpt lat="44.7508109" lon="7.9095472"><ele>348.0</ele><time>2026-04-08T10:12:01.978Z</time></trkpt><trkpt lat="44.7508972" lon="7.9095866"><ele>348.0</ele><time>2026-04-08T10:12:04.978Z</time></trkpt><trkpt lat="44.7509611" lon="7.9096299"><ele>348.0</ele><time>2026-04-08T10:12:06.978Z</time></trkpt><trkpt lat="44.7509617" lon="7.9097242"><ele>348.0</ele><time>2026-04-08T10:12:09.978Z</time></trkpt><trkpt lat="44.7509282" lon="7.9098522"><ele>348.0</ele><time>2026-04-08T10:12:12.978Z</time></trkpt><trkpt lat="44.7509228" lon="7.9099505"><ele>348.0</ele><time>2026-04-08T10:12:14.978Z</time></trkpt><trkpt lat="44.7509594" lon="7.910069"><ele>348.0</ele><time>2026-04-08T10:12:17.978Z</time></trkpt><trkpt lat="44.7508773" lon="7.9100715"><ele>348.0</ele><time>2026-04-08T10:12:22.978Z</time></trkpt><trkpt lat="44.7508286" lon="7.9099751"><ele>348.0</ele><time>2026-04-08T10:12:25.978Z</time></trkpt><trkpt lat="44.7507863" lon="7.9100416"><ele>348.0</ele><time>2026-04-08T10:12:41.978Z</time></trkpt><trkpt lat="44.7508337" lon="7.910121"><ele>348.0</ele><time>2026-04-08T10:12:44.978Z</time></trkpt><trkpt lat="44.7509048" lon="7.9101099"><ele>348.0</ele><time>2026-04-08T10:12:47.978Z</time></trkpt><trkpt lat="44.7509312" lon="7.9100233"><ele>348.0</ele><time>2026-04-08T10:12:50.978Z</time></trkpt><trkpt lat="44.7509005" lon="7.9097269"><ele>348.0</ele><time>2026-04-08T10:12:53.978Z</time></trkpt><trkpt lat="44.7509247" lon="7.9096371"><ele>348.0</ele><time>2026-04-08T10:12:55.978Z</time></trkpt><trkpt lat="44.7508675" lon="7.9095808"><ele>348.0</ele><time>2026-04-08T10:12:58.978Z</time></trkpt><trkpt lat="44.7507498" lon="7.9094902"><ele>348.0</ele><time>2026-04-08T10:13:01.978Z</time></trkpt><trkpt lat="44.750688" lon="7.9094261"><ele>348.0</ele><time>2026-04-08T10:13:03.978Z</time></trkpt><trkpt lat="44.7505989" lon="7.9094023"><ele>348.0</ele><time>2026-04-08T10:13:05.978Z</time></trkpt><trkpt lat="44.7505192" lon="7.9093367"><ele>348.0</ele><time>2026-04-08T10:13:08.978Z</time></trkpt><trkpt lat="44.7504819" lon="7.9092262"><ele>348.0</ele><time>2026-04-08T10:13:11.978Z</time></trkpt><trkpt lat="44.7505639" lon="7.9091482"><ele>348.0</ele><time>2026-04-08T10:13:14.978Z</time></trkpt><trkpt lat="44.7506381" lon="7.9091962"><ele>348.0</ele><time>2026-04-08T10:13:15.978Z</time></trkpt><trkpt lat="44.7507188" lon="7.9092659"><ele>348.0</ele><time>2026-04-08T10:13:17.978Z</time></trkpt><trkpt lat="44.7507892" lon="7.90934"><ele>348.0</ele><time>2026-04-08T10:13:19.978Z</time></trkpt><trkpt lat="44.7508699" lon="7.9094154"><ele>348.0</ele><time>2026-04-08T10:13:21.978Z</time></trkpt><trkpt lat="44.7509846" lon="7.9094367"><ele>348.0</ele><time>2026-04-08T10:13:23.978Z</time></trkpt><trkpt lat="44.7510679" lon="7.9094957"><ele>348.0</ele><time>2026-04-08T10:13:25.978Z</time></trkpt><trkpt lat="44.7511" lon="7.9095987"><ele>348.0</ele><time>2026-04-08T10:13:27.978Z</time></trkpt><trkpt lat="44.7510828" lon="7.9097134"><ele>348.0</ele><time>2026-04-08T10:13:29.978Z</time></trkpt><trkpt lat="44.7510397" lon="7.9098156"><ele>348.0</ele><time>2026-04-08T10:13:31.978Z</time></trkpt><trkpt lat="44.7510842" lon="7.9099107"><ele>348.0</ele><time>2026-04-08T10:13:34.978Z</time></trkpt><trkpt lat="44.7511498" lon="7.9099594"><ele>348.0</ele><time>2026-04-08T10:13:36.978Z</time></trkpt><trkpt lat="44.7512237" lon="7.9100024"><ele>347.1666666666667</ele><time>2026-04-08T10:13:38.978Z</time></trkpt><trkpt lat="44.7512997" lon="7.9100247"><ele>346.3333333333333</ele><time>2026-04-08T10:13:40.978Z</time></trkpt><trkpt lat="44.7514125" lon="7.910024"><ele>345.5</ele><time>2026-04-08T10:13:42.978Z</time></trkpt><trkpt lat="44.7514806" lon="7.910033"><ele>344.66666666666663</ele><time>2026-04-08T10:13:44.978Z</time></trkpt><trkpt lat="44.7515526" lon="7.9101123"><ele>343.8333333333333</ele><time>2026-04-08T10:13:46.978Z</time></trkpt><trkpt lat="44.7516299" lon="7.910177"><ele>343.0</ele><time>2026-04-08T10:13:48.978Z</time></trkpt><trkpt lat="44.7517166" lon="7.9101555"><ele>343.0</ele><time>2026-04-08T10:13:51.978Z</time></trkpt><trkpt lat="44.7517718" lon="7.9102305"><ele>343.0</ele><time>2026-04-08T10:13:53.978Z</time></trkpt><trkpt lat="44.7518224" lon="7.9103107"><ele>343.0</ele><time>2026-04-08T10:13:55.978Z</time></trkpt><trkpt lat="44.7519051" lon="7.9103607"><ele>343.0</ele><time>2026-04-08T10:13:57.978Z</time></trkpt><trkpt lat="44.7519765" lon="7.9104106"><ele>343.0</ele><time>2026-04-08T10:13:59.978Z</time></trkpt><trkpt lat="44.7520327" lon="7.91048"><ele>343.0</ele><time>2026-04-08T10:14:01.978Z</time></trkpt><trkpt lat="44.7520967" lon="7.9105377"><ele>339.3333333333333</ele><time>2026-04-08T10:14:04.978Z</time></trkpt><trkpt lat="44.7521692" lon="7.9105337"><ele>335.66666666666663</ele><time>2026-04-08T10:14:07.978Z</time></trkpt><trkpt lat="44.7522162" lon="7.9104523"><ele>332.0</ele><time>2026-04-08T10:14:09.978Z</time></trkpt><trkpt lat="44.7522481" lon="7.9103565"><ele>328.3333333333333</ele><time>2026-04-08T10:14:11.978Z</time></trkpt><trkpt lat="44.7523201" lon="7.9103858"><ele>324.6666666666667</ele><time>2026-04-08T10:14:14.978Z</time></trkpt><trkpt lat="44.7523891" lon="7.9104701"><ele>321.0</ele><time>2026-04-08T10:14:16.978Z</time></trkpt><trkpt lat="44.7525027" lon="7.9105724"><ele>321.0</ele><time>2026-04-08T10:14:18.978Z</time></trkpt><trkpt lat="44.7525586" lon="7.9106315"><ele>321.0</ele><time>2026-04-08T10:14:19.978Z</time></trkpt><trkpt lat="44.7526173" lon="7.9106877"><ele>321.0</ele><time>2026-04-08T10:14:20.978Z</time></trkpt><trkpt lat="44.7527091" lon="7.9108148"><ele>321.0</ele><time>2026-04-08T10:14:22.978Z</time></trkpt><trkpt lat="44.7527602" lon="7.910892"><ele>321.0</ele><time>2026-04-08T10:14:23.978Z</time></trkpt><trkpt lat="44.7528113" lon="7.9109584"><ele>321.0</ele><time>2026-04-08T10:14:24.978Z</time></trkpt><trkpt lat="44.7528674" lon="7.9110321"><ele>319.8333333333333</ele><time>2026-04-08T10:14:25.978Z</time></trkpt><trkpt lat="44.7529153" lon="7.9110955"><ele>318.6666666666667</ele><time>2026-04-08T10:14:26.978Z</time></trkpt><trkpt lat="44.7529623" lon="7.9111723"><ele>317.5</ele><time>2026-04-08T10:14:27.978Z</time></trkpt><trkpt lat="44.7530617" lon="7.9112999"><ele>316.33333333333337</ele><time>2026-04-08T10:14:29.978Z</time></trkpt><trkpt lat="44.7531275" lon="7.9113687"><ele>315.1666666666667</ele><time>2026-04-08T10:14:30.978Z</time></trkpt><trkpt lat="44.753173" lon="7.9114339"><ele>314.0</ele><time>2026-04-08T10:14:31.978Z</time></trkpt><trkpt lat="44.7532341" lon="7.9115503"><ele>314.0</ele><time>2026-04-08T10:14:33.978Z</time></trkpt><trkpt lat="44.7532703" lon="7.911637"><ele>314.0</ele><time>2026-04-08T10:14:34.978Z</time></trkpt><trkpt lat="44.7533228" lon="7.911796"><ele>314.0</ele><time>2026-04-08T10:14:36.978Z</time></trkpt><trkpt lat="44.7533577" lon="7.9118788"><ele>314.0</ele><time>2026-04-08T10:14:37.978Z</time></trkpt><trkpt lat="44.7533909" lon="7.9119585"><ele>314.0</ele><time>2026-04-08T10:14:38.978Z</time></trkpt><trkpt lat="44.7534291" lon="7.91204"><ele>314.0</ele><time>2026-04-08T10:14:39.978Z</time></trkpt><trkpt lat="44.7534628" lon="7.9121203"><ele>313.83333333333337</ele><time>2026-04-08T10:14:40.978Z</time></trkpt><trkpt lat="44.7534953" lon="7.9122138"><ele>313.6666666666667</ele><time>2026-04-08T10:14:41.978Z</time></trkpt><trkpt lat="44.7535331" lon="7.9123925"><ele>313.5</ele><time>2026-04-08T10:14:43.978Z</time></trkpt><trkpt lat="44.7535526" lon="7.9124857"><ele>313.3333333333333</ele><time>2026-04-08T10:14:44.978Z</time></trkpt><trkpt lat="44.7535802" lon="7.9125888"><ele>313.16666666666663</ele><time>2026-04-08T10:14:45.978Z</time></trkpt><trkpt lat="44.7536065" lon="7.9127041"><ele>313.0</ele><time>2026-04-08T10:14:46.978Z</time></trkpt><trkpt lat="44.7536375" lon="7.9128192"><ele>310.8333333333333</ele><time>2026-04-08T10:14:47.978Z</time></trkpt><trkpt lat="44.7536757" lon="7.9129337"><ele>308.66666666666663</ele><time>2026-04-08T10:14:48.978Z</time></trkpt><trkpt lat="44.7537141" lon="7.913033"><ele>306.5</ele><time>2026-04-08T10:14:49.978Z</time></trkpt><trkpt lat="44.7537494" lon="7.9131283"><ele>304.3333333333333</ele><time>2026-04-08T10:14:50.978Z</time></trkpt><trkpt lat="44.7537735" lon="7.9132298"><ele>302.1666666666667</ele><time>2026-04-08T10:14:51.978Z</time></trkpt><trkpt lat="44.7537954" lon="7.9133212"><ele>300.0</ele><time>2026-04-08T10:14:52.978Z</time></trkpt><trkpt lat="44.7538355" lon="7.9133958"><ele>299.6666666666667</ele><time>2026-04-08T10:14:53.978Z</time></trkpt><trkpt lat="44.7538731" lon="7.9134738"><ele>299.3333333333333</ele><time>2026-04-08T10:14:54.978Z</time></trkpt><trkpt lat="44.7539277" lon="7.9135567"><ele>299.0</ele><time>2026-04-08T10:14:55.978Z</time></trkpt><trkpt lat="44.7540021" lon="7.9136385"><ele>298.66666666666663</ele><time>2026-04-08T10:14:56.978Z</time></trkpt><trkpt lat="44.754059" lon="7.9137176"><ele>298.3333333333333</ele><time>2026-04-08T10:14:57.978Z</time></trkpt><trkpt lat="44.7540997" lon="7.913817"><ele>298.0</ele><time>2026-04-08T10:14:58.978Z</time></trkpt><trkpt lat="44.7541152" lon="7.9139129"><ele>298.0</ele><time>2026-04-08T10:14:59.978Z</time></trkpt><trkpt lat="44.754124" lon="7.9140122"><ele>298.0</ele><time>2026-04-08T10:15:00.978Z</time></trkpt><trkpt lat="44.7541409" lon="7.9141144"><ele>298.0</ele><time>2026-04-08T10:15:01.978Z</time></trkpt><trkpt lat="44.7541549" lon="7.9142076"><ele>298.0</ele><time>2026-04-08T10:15:02.978Z</time></trkpt><trkpt lat="44.7542169" lon="7.9143651"><ele>298.0</ele><time>2026-04-08T10:15:04.978Z</time></trkpt><trkpt lat="44.7542623" lon="7.9144567"><ele>298.0</ele><time>2026-04-08T10:15:05.978Z</time></trkpt><trkpt lat="44.7543398" lon="7.9145313"><ele>297.3333333333333</ele><time>2026-04-08T10:15:06.978Z</time></trkpt><trkpt lat="44.7543624" lon="7.9146376"><ele>296.66666666666663</ele><time>2026-04-08T10:15:07.978Z</time></trkpt><trkpt lat="44.7543801" lon="7.9147399"><ele>296.0</ele><time>2026-04-08T10:15:08.978Z</time></trkpt><trkpt lat="44.7544023" lon="7.9148593"><ele>295.3333333333333</ele><time>2026-04-08T10:15:09.978Z</time></trkpt><trkpt lat="44.7544094" lon="7.9149774"><ele>294.6666666666667</ele><time>2026-04-08T10:15:10.978Z</time></trkpt><trkpt lat="44.7544138" lon="7.9150805"><ele>294.0</ele><time>2026-04-08T10:15:11.978Z</time></trkpt><trkpt lat="44.7544141" lon="7.91523"><ele>293.8333333333333</ele><time>2026-04-08T10:15:13.978Z</time></trkpt><trkpt lat="44.7543861" lon="7.9153474"><ele>293.6666666666667</ele><time>2026-04-08T10:15:15.978Z</time></trkpt><trkpt lat="44.7543688" lon="7.9154394"><ele>293.5</ele><time>2026-04-08T10:15:17.978Z</time></trkpt><trkpt lat="44.7543165" lon="7.9155297"><ele>293.33333333333337</ele><time>2026-04-08T10:15:20.978Z</time></trkpt><trkpt lat="44.7542349" lon="7.9155768"><ele>293.1666666666667</ele><time>2026-04-08T10:15:23.978Z</time></trkpt><trkpt lat="44.7543072" lon="7.9156289"><ele>293.0</ele><time>2026-04-08T10:15:32.978Z</time></trkpt><trkpt lat="44.7543814" lon="7.9154562"><ele>293.0</ele><time>2026-04-08T10:15:34.978Z</time></trkpt><trkpt lat="44.7544118" lon="7.9153107"><ele>293.0</ele><time>2026-04-08T10:15:36.978Z</time></trkpt><trkpt lat="44.7544175" lon="7.915213"><ele>293.0</ele><time>2026-04-08T10:15:38.978Z</time></trkpt><trkpt lat="44.7545001" lon="7.9151949"><ele>293.0</ele><time>2026-04-08T10:15:41.978Z</time></trkpt><trkpt lat="44.7545879" lon="7.9152545"><ele>293.0</ele><time>2026-04-08T10:15:43.978Z</time></trkpt><trkpt lat="44.7546816" lon="7.9152827"><ele>293.0</ele><time>2026-04-08T10:15:45.978Z</time></trkpt><trkpt lat="44.7547625" lon="7.9153047"><ele>293.0</ele><time>2026-04-08T10:15:47.978Z</time></trkpt><trkpt lat="44.7548601" lon="7.9153934"><ele>293.0</ele><time>2026-04-08T10:15:49.978Z</time></trkpt><trkpt lat="44.7549128" lon="7.9155314"><ele>293.0</ele><time>2026-04-08T10:15:51.978Z</time></trkpt><trkpt lat="44.7549228" lon="7.9156616"><ele>293.0</ele><time>2026-04-08T10:15:53.978Z</time></trkpt><trkpt lat="44.7549693" lon="7.9157949"><ele>292.99999999999994</ele><time>2026-04-08T10:15:55.978Z</time></trkpt><trkpt lat="44.7550346" lon="7.9158982"><ele>293.0</ele><time>2026-04-08T10:15:57.978Z</time></trkpt><trkpt lat="44.7550816" lon="7.9159586"><ele>293.0</ele><time>2026-04-08T10:15:58.978Z</time></trkpt><trkpt lat="44.7551347" lon="7.9160074"><ele>293.0</ele><time>2026-04-08T10:15:59.978Z</time></trkpt><trkpt lat="44.7551857" lon="7.916067"><ele>293.0</ele><time>2026-04-08T10:16:00.978Z</time></trkpt><trkpt lat="44.7552436" lon="7.9161166"><ele>292.99999999999994</ele><time>2026-04-08T10:16:01.978Z</time></trkpt><trkpt lat="44.7552993" lon="7.9161813"><ele>293.0</ele><time>2026-04-08T10:16:02.978Z</time></trkpt><trkpt lat="44.7553544" lon="7.9162491"><ele>296.0</ele><time>2026-04-08T10:16:03.978Z</time></trkpt><trkpt lat="44.7554057" lon="7.9163218"><ele>299.0</ele><time>2026-04-08T10:16:04.978Z</time></trkpt><trkpt lat="44.7554538" lon="7.916407"><ele>302.0</ele><time>2026-04-08T10:16:05.978Z</time></trkpt><trkpt lat="44.7554502" lon="7.9165639"><ele>305.0</ele><time>2026-04-08T10:16:07.978Z</time></trkpt><trkpt lat="44.7554004" lon="7.9166247"><ele>308.0</ele><time>2026-04-08T10:16:08.978Z</time></trkpt><trkpt lat="44.7553024" lon="7.9167278"><ele>308.83333333333337</ele><time>2026-04-08T10:16:10.978Z</time></trkpt><trkpt lat="44.755246" lon="7.9167826"><ele>309.6666666666667</ele><time>2026-04-08T10:16:11.978Z</time></trkpt><trkpt lat="44.7551989" lon="7.9168484"><ele>310.5</ele><time>2026-04-08T10:16:12.978Z</time></trkpt><trkpt lat="44.7551484" lon="7.9170161"><ele>311.3333333333333</ele><time>2026-04-08T10:16:14.978Z</time></trkpt><trkpt lat="44.7551698" lon="7.9171134"><ele>312.16666666666663</ele><time>2026-04-08T10:16:15.978Z</time></trkpt><trkpt lat="44.7552305" lon="7.917217"><ele>313.0</ele><time>2026-04-08T10:16:17.978Z</time></trkpt><trkpt lat="44.7553361" lon="7.9172477"><ele>313.0</ele><time>2026-04-08T10:16:19.978Z</time></trkpt><trkpt lat="44.7554024" lon="7.9172528"><ele>313.0</ele><time>2026-04-08T10:16:20.978Z</time></trkpt><trkpt lat="44.7554686" lon="7.9172808"><ele>313.0</ele><time>2026-04-08T10:16:21.978Z</time></trkpt><trkpt lat="44.7555488" lon="7.9173145"><ele>313.0</ele><time>2026-04-08T10:16:22.978Z</time></trkpt><trkpt lat="44.755642" lon="7.9173612"><ele>313.0</ele><time>2026-04-08T10:16:23.978Z</time></trkpt><trkpt lat="44.7557242" lon="7.9173997"><ele>313.0</ele><time>2026-04-08T10:16:24.978Z</time></trkpt><trkpt lat="44.7558215" lon="7.9174305"><ele>313.0</ele><time>2026-04-08T10:16:25.978Z</time></trkpt><trkpt lat="44.755912" lon="7.9174668"><ele>313.0</ele><time>2026-04-08T10:16:26.978Z</time></trkpt><trkpt lat="44.7559924" lon="7.9175177"><ele>313.0</ele><time>2026-04-08T10:16:27.978Z</time></trkpt><trkpt lat="44.7560497" lon="7.9175978"><ele>313.0</ele><time>2026-04-08T10:16:28.978Z</time></trkpt><trkpt lat="44.7561178" lon="7.9176488"><ele>313.0</ele><time>2026-04-08T10:16:29.978Z</time></trkpt><trkpt lat="44.756192" lon="7.9176629"><ele>313.0</ele><time>2026-04-08T10:16:30.978Z</time></trkpt><trkpt lat="44.7562863" lon="7.9176467"><ele>313.3333333333333</ele><time>2026-04-08T10:16:31.978Z</time></trkpt><trkpt lat="44.7563844" lon="7.9176269"><ele>313.66666666666663</ele><time>2026-04-08T10:16:32.978Z</time></trkpt><trkpt lat="44.7564646" lon="7.9176178"><ele>314.0</ele><time>2026-04-08T10:16:33.978Z</time></trkpt><trkpt lat="44.7565355" lon="7.9176062"><ele>314.3333333333333</ele><time>2026-04-08T10:16:34.978Z</time></trkpt><trkpt lat="44.7566333" lon="7.9176"><ele>314.6666666666667</ele><time>2026-04-08T10:16:36.978Z</time></trkpt><trkpt lat="44.7566993" lon="7.9175956"><ele>315.0</ele><time>2026-04-08T10:16:51.978Z</time></trkpt><trkpt lat="44.756759" lon="7.9176514"><ele>315.0</ele><time>2026-04-08T10:16:53.978Z</time></trkpt><trkpt lat="44.7567789" lon="7.9177358"><ele>315.0</ele><time>2026-04-08T10:16:54.978Z</time></trkpt><trkpt lat="44.7568468" lon="7.9178981"><ele>315.0</ele><time>2026-04-08T10:16:56.978Z</time></trkpt><trkpt lat="44.7568884" lon="7.918002"><ele>315.0</ele><time>2026-04-08T10:16:57.978Z</time></trkpt><trkpt lat="44.7569292" lon="7.9181045"><ele>315.0</ele><time>2026-04-08T10:16:58.978Z</time></trkpt><trkpt lat="44.7569666" lon="7.9182183"><ele>318.8</ele><time>2026-04-08T10:16:59.978Z</time></trkpt><trkpt lat="44.756993" lon="7.9183373"><ele>322.6</ele><time>2026-04-08T10:17:00.978Z</time></trkpt><trkpt lat="44.7570063" lon="7.9184673"><ele>326.4</ele><time>2026-04-08T10:17:01.978Z</time></trkpt><trkpt lat="44.7570072" lon="7.918601"><ele>330.2</ele><time>2026-04-08T10:17:02.978Z</time></trkpt><trkpt lat="44.7569951" lon="7.9187328"><ele>334.0</ele><time>2026-04-08T10:17:03.978Z</time></trkpt><trkpt lat="44.7569707" lon="7.9188569"><ele>334.0</ele><time>2026-04-08T10:17:04.978Z</time></trkpt><trkpt lat="44.7569424" lon="7.9189778"><ele>334.0</ele><time>2026-04-08T10:17:05.978Z</time></trkpt><trkpt lat="44.7569047" lon="7.9190895"><ele>334.0</ele><time>2026-04-08T10:17:06.978Z</time></trkpt><trkpt lat="44.7568576" lon="7.9191992"><ele>334.0</ele><time>2026-04-08T10:17:07.978Z</time></trkpt><trkpt lat="44.7568015" lon="7.9192878"><ele>334.0</ele><time>2026-04-08T10:17:08.978Z</time></trkpt><trkpt lat="44.7567469" lon="7.9193571"><ele>334.0</ele><time>2026-04-08T10:17:09.978Z</time></trkpt><trkpt lat="44.7566711" lon="7.9194508"><ele>334.0</ele><time>2026-04-08T10:17:11.978Z</time></trkpt><trkpt lat="44.7566041" lon="7.919496"><ele>334.0</ele><time>2026-04-08T10:17:29.978Z</time></trkpt><trkpt lat="44.7566548" lon="7.9195627"><ele>334.0</ele><time>2026-04-08T10:17:34.978Z</time></trkpt><trkpt lat="44.7567114" lon="7.9194408"><ele>334.0</ele><time>2026-04-08T10:17:35.978Z</time></trkpt><trkpt lat="44.7567657" lon="7.9193767"><ele>334.0</ele><time>2026-04-08T10:17:36.978Z</time></trkpt><trkpt lat="44.7568221" lon="7.9193085"><ele>334.0</ele><time>2026-04-08T10:17:37.978Z</time></trkpt><trkpt lat="44.756879" lon="7.9192248"><ele>334.0</ele><time>2026-04-08T10:17:38.978Z</time></trkpt><trkpt lat="44.7569349" lon="7.9191191"><ele>334.0</ele><time>2026-04-08T10:17:39.978Z</time></trkpt><trkpt lat="44.7569749" lon="7.9189983"><ele>334.0</ele><time>2026-04-08T10:17:40.978Z</time></trkpt><trkpt lat="44.757002" lon="7.9188675"><ele>334.0</ele><time>2026-04-08T10:17:41.978Z</time></trkpt><trkpt lat="44.7570247" lon="7.9187183"><ele>334.0</ele><time>2026-04-08T10:17:42.978Z</time></trkpt><trkpt lat="44.7570385" lon="7.9185557"><ele>334.0</ele><time>2026-04-08T10:17:43.978Z</time></trkpt><trkpt lat="44.7570302" lon="7.9184048"><ele>334.0</ele><time>2026-04-08T10:17:44.978Z</time></trkpt><trkpt lat="44.7570033" lon="7.918264"><ele>334.0</ele><time>2026-04-08T10:17:45.978Z</time></trkpt><trkpt lat="44.7569651" lon="7.9181405"><ele>334.0</ele><time>2026-04-08T10:17:46.978Z</time></trkpt><trkpt lat="44.75692" lon="7.918029"><ele>334.0</ele><time>2026-04-08T10:17:47.978Z</time></trkpt><trkpt lat="44.7568782" lon="7.9179236"><ele>334.8333333333333</ele><time>2026-04-08T10:17:48.978Z</time></trkpt><trkpt lat="44.7568375" lon="7.9178254"><ele>335.66666666666663</ele><time>2026-04-08T10:17:49.978Z</time></trkpt><trkpt lat="44.7568026" lon="7.9177424"><ele>336.5</ele><time>2026-04-08T10:17:50.978Z</time></trkpt><trkpt lat="44.7567836" lon="7.9176554"><ele>337.3333333333333</ele><time>2026-04-08T10:17:51.978Z</time></trkpt><trkpt lat="44.7568323" lon="7.9175342"><ele>338.1666666666667</ele><time>2026-04-08T10:17:53.978Z</time></trkpt><trkpt lat="44.7569406" lon="7.9175848"><ele>339.0</ele><time>2026-04-08T10:17:55.978Z</time></trkpt><trkpt lat="44.7569818" lon="7.9177117"><ele>339.0</ele><time>2026-04-08T10:17:56.978Z</time></trkpt><trkpt lat="44.7570232" lon="7.9178355"><ele>339.0</ele><time>2026-04-08T10:17:57.978Z</time></trkpt><trkpt lat="44.7570748" lon="7.9179466"><ele>339.0</ele><time>2026-04-08T10:17:58.978Z</time></trkpt><trkpt lat="44.7571434" lon="7.9180661"><ele>339.0</ele><time>2026-04-08T10:17:59.978Z</time></trkpt><trkpt lat="44.7572236" lon="7.9181968"><ele>339.0</ele><time>2026-04-08T10:18:00.978Z</time></trkpt><trkpt lat="44.7572889" lon="7.9183313"><ele>338.0</ele><time>2026-04-08T10:18:01.978Z</time></trkpt><trkpt lat="44.7573448" lon="7.9184727"><ele>337.0</ele><time>2026-04-08T10:18:02.978Z</time></trkpt><trkpt lat="44.7573707" lon="7.9186324"><ele>336.0</ele><time>2026-04-08T10:18:03.978Z</time></trkpt><trkpt lat="44.7573917" lon="7.9187867"><ele>335.0</ele><time>2026-04-08T10:18:04.978Z</time></trkpt><trkpt lat="44.7574045" lon="7.9189163"><ele>334.0</ele><time>2026-04-08T10:18:05.978Z</time></trkpt><trkpt lat="44.7574408" lon="7.9190204"><ele>334.0</ele><time>2026-04-08T10:18:06.978Z</time></trkpt><trkpt lat="44.7574989" lon="7.919082"><ele>334.0</ele><time>2026-04-08T10:18:07.978Z</time></trkpt><trkpt lat="44.7575697" lon="7.9191086"><ele>334.0</ele><time>2026-04-08T10:18:08.978Z</time></trkpt><trkpt lat="44.7576265" lon="7.9190671"><ele>334.0</ele><time>2026-04-08T10:18:09.978Z</time></trkpt><trkpt lat="44.7576713" lon="7.9189894"><ele>334.0</ele><time>2026-04-08T10:18:10.978Z</time></trkpt><trkpt lat="44.7576887" lon="7.9188885"><ele>334.0</ele><time>2026-04-08T10:18:11.978Z</time></trkpt><trkpt lat="44.7576872" lon="7.9187795"><ele>334.0</ele><time>2026-04-08T10:18:12.978Z</time></trkpt><trkpt lat="44.7576733" lon="7.9186783"><ele>334.0</ele><time>2026-04-08T10:18:13.978Z</time></trkpt><trkpt lat="44.7576654" lon="7.9185708"><ele>334.0</ele><time>2026-04-08T10:18:14.978Z</time></trkpt><trkpt lat="44.757659" lon="7.9184786"><ele>334.0</ele><time>2026-04-08T10:18:15.978Z</time></trkpt><trkpt lat="44.757644" lon="7.918339"><ele>334.0</ele><time>2026-04-08T10:18:17.978Z</time></trkpt><trkpt lat="44.7576365" lon="7.9182138"><ele>334.0</ele><time>2026-04-08T10:18:19.978Z</time></trkpt><trkpt lat="44.7576331" lon="7.9180964"><ele>334.0</ele><time>2026-04-08T10:18:21.978Z</time></trkpt><trkpt lat="44.7576148" lon="7.9181901"><ele>334.0</ele><time>2026-04-08T10:18:26.978Z</time></trkpt><trkpt lat="44.7576165" lon="7.9182858"><ele>334.0</ele><time>2026-04-08T10:18:27.978Z</time></trkpt><trkpt lat="44.7576317" lon="7.9183888"><ele>334.0</ele><time>2026-04-08T10:18:28.978Z</time></trkpt><trkpt lat="44.7576459" lon="7.9185002"><ele>334.0</ele><time>2026-04-08T10:18:29.978Z</time></trkpt><trkpt lat="44.757662" lon="7.9186079"><ele>334.0</ele><time>2026-04-08T10:18:30.978Z</time></trkpt><trkpt lat="44.7576751" lon="7.9187054"><ele>334.0</ele><time>2026-04-08T10:18:31.978Z</time></trkpt><trkpt lat="44.7576865" lon="7.9188004"><ele>334.0</ele><time>2026-04-08T10:18:32.978Z</time></trkpt><trkpt lat="44.7576856" lon="7.9188894"><ele>334.0</ele><time>2026-04-08T10:18:33.978Z</time></trkpt><trkpt lat="44.757679" lon="7.9190592"><ele>334.0</ele><time>2026-04-08T10:18:35.978Z</time></trkpt><trkpt lat="44.7576886" lon="7.9191769"><ele>334.0</ele><time>2026-04-08T10:18:37.978Z</time></trkpt><trkpt lat="44.7576972" lon="7.9192717"><ele>334.0</ele><time>2026-04-08T10:18:41.978Z</time></trkpt><trkpt lat="44.7577701" lon="7.9192967"><ele>334.0</ele><time>2026-04-08T10:18:46.978Z</time></trkpt><trkpt lat="44.7578388" lon="7.9192936"><ele>334.0</ele><time>2026-04-08T10:18:49.978Z</time></trkpt><trkpt lat="44.7579217" lon="7.9193234"><ele>331.5</ele><time>2026-04-08T10:18:52.978Z</time></trkpt><trkpt lat="44.7580058" lon="7.9193673"><ele>329.0</ele><time>2026-04-08T10:18:55.978Z</time></trkpt><trkpt lat="44.7580561" lon="7.9194215"><ele>326.5</ele><time>2026-04-08T10:18:57.978Z</time></trkpt><trkpt lat="44.7581183" lon="7.9194728"><ele>324.0</ele><time>2026-04-08T10:18:59.978Z</time></trkpt><trkpt lat="44.758169" lon="7.9195366"><ele>321.5</ele><time>2026-04-08T10:19:01.978Z</time></trkpt><trkpt lat="44.7582064" lon="7.9196091"><ele>319.0</ele><time>2026-04-08T10:19:03.978Z</time></trkpt><trkpt lat="44.7582893" lon="7.919388"><ele>319.0</ele><time>2026-04-08T10:19:11.978Z</time></trkpt><trkpt lat="44.7582973" lon="7.9192635"><ele>319.0</ele><time>2026-04-08T10:19:13.978Z</time></trkpt><trkpt lat="44.7582929" lon="7.9191482"><ele>319.0</ele><time>2026-04-08T10:19:15.978Z</time></trkpt><trkpt lat="44.758336" lon="7.9190451"><ele>319.0</ele><time>2026-04-08T10:19:17.978Z</time></trkpt><trkpt lat="44.7583938" lon="7.9189682"><ele>319.0</ele><time>2026-04-08T10:19:19.978Z</time></trkpt><trkpt lat="44.7584623" lon="7.9189484"><ele>319.0</ele><time>2026-04-08T10:19:20.978Z</time></trkpt><trkpt lat="44.7585425" lon="7.918873"><ele>318.2</ele><time>2026-04-08T10:19:22.978Z</time></trkpt><trkpt lat="44.7586202" lon="7.9187924"><ele>317.4</ele><time>2026-04-08T10:19:24.978Z</time></trkpt><trkpt lat="44.7586756" lon="7.9186861"><ele>316.6</ele><time>2026-04-08T10:19:26.978Z</time></trkpt><trkpt lat="44.7587747" lon="7.9186604"><ele>315.8</ele><time>2026-04-08T10:19:28.978Z</time></trkpt><trkpt lat="44.758856" lon="7.9186076"><ele>315.0</ele><time>2026-04-08T10:19:31.978Z</time></trkpt><trkpt lat="44.7589229" lon="7.9185827"><ele>315.0</ele><time>2026-04-08T10:19:34.978Z</time></trkpt><trkpt lat="44.7589885" lon="7.9186496"><ele>315.0</ele><time>2026-04-08T10:19:37.978Z</time></trkpt><trkpt lat="44.7590556" lon="7.918727"><ele>315.0</ele><time>2026-04-08T10:19:40.978Z</time></trkpt><trkpt lat="44.759081" lon="7.9188186"><ele>315.0</ele><time>2026-04-08T10:20:06.978Z</time></trkpt><trkpt lat="44.7591278" lon="7.9187154"><ele>315.0</ele><time>2026-04-08T10:20:11.978Z</time></trkpt><trkpt lat="44.7591769" lon="7.9186449"><ele>315.0</ele><time>2026-04-08T10:20:13.978Z</time></trkpt><trkpt lat="44.7592718" lon="7.9185859"><ele>315.0</ele><time>2026-04-08T10:20:15.978Z</time></trkpt><trkpt lat="44.7593291" lon="7.9185114"><ele>315.0</ele><time>2026-04-08T10:20:17.978Z</time></trkpt><trkpt lat="44.759363" lon="7.918407"><ele>315.0</ele><time>2026-04-08T10:20:20.978Z</time></trkpt><trkpt lat="44.7594322" lon="7.9183462"><ele>315.0</ele><time>2026-04-08T10:20:23.978Z</time></trkpt><trkpt lat="44.7595205" lon="7.9183229"><ele>315.0</ele><time>2026-04-08T10:20:26.978Z</time></trkpt><trkpt lat="44.7595794" lon="7.9182634"><ele>315.0</ele><time>2026-04-08T10:20:28.978Z</time></trkpt><trkpt lat="44.7596273" lon="7.9182006"><ele>319.1666666666667</ele><time>2026-04-08T10:20:30.978Z</time></trkpt><trkpt lat="44.7596724" lon="7.9180983"><ele>323.3333333333333</ele><time>2026-04-08T10:20:33.978Z</time></trkpt><trkpt lat="44.7597315" lon="7.9180252"><ele>327.5</ele><time>2026-04-08T10:20:36.978Z</time></trkpt><trkpt lat="44.7597962" lon="7.9179291"><ele>331.66666666666663</ele><time>2026-04-08T10:20:39.978Z</time></trkpt><trkpt lat="44.7598427" lon="7.9178573"><ele>335.8333333333333</ele><time>2026-04-08T10:20:43.978Z</time></trkpt><trkpt lat="44.7599087" lon="7.9178638"><ele>340.0</ele><time>2026-04-08T10:20:54.978Z</time></trkpt><trkpt lat="44.7598426" lon="7.9178969"><ele>340.0</ele><time>2026-04-08T10:21:40.978Z</time></trkpt><trkpt lat="44.7597812" lon="7.9179919"><ele>340.0</ele><time>2026-04-08T10:21:43.978Z</time></trkpt><trkpt lat="44.7597232" lon="7.9180654"><ele>340.0</ele><time>2026-04-08T10:21:47.978Z</time></trkpt><trkpt lat="44.7596709" lon="7.9181171"><ele>340.0</ele><time>2026-04-08T10:21:49.978Z</time></trkpt><trkpt lat="44.7596159" lon="7.9182256"><ele>340.0</ele><time>2026-04-08T10:21:52.978Z</time></trkpt><trkpt lat="44.7595692" lon="7.9182872"><ele>340.0</ele><time>2026-04-08T10:21:54.978Z</time></trkpt><trkpt lat="44.7595045" lon="7.9183467"><ele>340.0</ele><time>2026-04-08T10:21:57.978Z</time></trkpt><trkpt lat="44.759441" lon="7.9183687"><ele>340.0</ele><time>2026-04-08T10:21:59.978Z</time></trkpt><trkpt lat="44.7593851" lon="7.9184485"><ele>340.0</ele><time>2026-04-08T10:22:02.978Z</time></trkpt><trkpt lat="44.7593611" lon="7.9185483"><ele>340.0</ele><time>2026-04-08T10:22:04.978Z</time></trkpt><trkpt lat="44.759325" lon="7.9186241"><ele>340.0</ele><time>2026-04-08T10:22:06.978Z</time></trkpt><trkpt lat="44.7592818" lon="7.9187027"><ele>340.0</ele><time>2026-04-08T10:22:08.978Z</time></trkpt><trkpt lat="44.759236" lon="7.9187746"><ele>340.0</ele><time>2026-04-08T10:22:10.978Z</time></trkpt><trkpt lat="44.7591837" lon="7.9188288"><ele>335.8333333333333</ele><time>2026-04-08T10:22:12.978Z</time></trkpt><trkpt lat="44.7591348" lon="7.9188872"><ele>331.66666666666663</ele><time>2026-04-08T10:22:14.978Z</time></trkpt><trkpt lat="44.75909" lon="7.9189968"><ele>327.5</ele><time>2026-04-08T10:22:30.978Z</time></trkpt><trkpt lat="44.7590571" lon="7.9191151"><ele>323.3333333333333</ele><time>2026-04-08T10:22:48.978Z</time></trkpt><trkpt lat="44.7590129" lon="7.9192123"><ele>319.1666666666667</ele><time>2026-04-08T10:22:54.978Z</time></trkpt><trkpt lat="44.7590062" lon="7.9193308"><ele>315.0</ele><time>2026-04-08T10:22:57.978Z</time></trkpt><trkpt lat="44.7590075" lon="7.9194634"><ele>313.8333333333333</ele><time>2026-04-08T10:23:00.978Z</time></trkpt><trkpt lat="44.7589963" lon="7.9195801"><ele>312.6666666666667</ele><time>2026-04-08T10:23:03.978Z</time></trkpt><trkpt lat="44.7589613" lon="7.9196717"><ele>311.5</ele><time>2026-04-08T10:23:06.978Z</time></trkpt><trkpt lat="44.7589284" lon="7.9197623"><ele>310.33333333333337</ele><time>2026-04-08T10:23:09.978Z</time></trkpt><trkpt lat="44.7589047" lon="7.9198817"><ele>309.1666666666667</ele><time>2026-04-08T10:23:12.978Z</time></trkpt><trkpt lat="44.7589335" lon="7.9199969"><ele>308.0</ele><time>2026-04-08T10:23:15.978Z</time></trkpt><trkpt lat="44.7589625" lon="7.9201081"><ele>306.5</ele><time>2026-04-08T10:23:18.978Z</time></trkpt><trkpt lat="44.7589559" lon="7.9202049"><ele>305.0</ele><time>2026-04-08T10:23:22.978Z</time></trkpt><trkpt lat="44.7593631" lon="7.9212029"><ele>305.6</ele><time>2026-04-08T10:32:52.977Z</time></trkpt><trkpt lat="44.7593945" lon="7.9213102"><ele>306.2</ele><time>2026-04-08T10:32:54.977Z</time></trkpt><trkpt lat="44.7594422" lon="7.9214186"><ele>306.8</ele><time>2026-04-08T10:32:56.977Z</time></trkpt><trkpt lat="44.7594831" lon="7.9215352"><ele>307.4</ele><time>2026-04-08T10:32:58.977Z</time></trkpt><trkpt lat="44.7595113" lon="7.9216659"><ele>308.0</ele><time>2026-04-08T10:33:00.977Z</time></trkpt><trkpt lat="44.7595574" lon="7.9218292"><ele>306.7142857142857</ele><time>2026-04-08T10:33:02.977Z</time></trkpt><trkpt lat="44.759587" lon="7.9219091"><ele>305.42857142857144</ele><time>2026-04-08T10:33:03.976Z</time></trkpt><trkpt lat="44.7596202" lon="7.9219874"><ele>304.1428571428571</ele><time>2026-04-08T10:33:04.977Z</time></trkpt><trkpt lat="44.7596485" lon="7.9220675"><ele>302.8571428571429</ele><time>2026-04-08T10:33:05.977Z</time></trkpt><trkpt lat="44.7596694" lon="7.9221576"><ele>301.57142857142856</ele><time>2026-04-08T10:33:06.977Z</time></trkpt><trkpt lat="44.7596786" lon="7.9222556"><ele>300.2857142857143</ele><time>2026-04-08T10:33:07.977Z</time></trkpt><trkpt lat="44.7596863" lon="7.9223515"><ele>299.0</ele><time>2026-04-08T10:33:08.977Z</time></trkpt><trkpt lat="44.759689" lon="7.9224541"><ele>299.0</ele><time>2026-04-08T10:33:09.977Z</time></trkpt><trkpt lat="44.7596947" lon="7.922561"><ele>299.0</ele><time>2026-04-08T10:33:10.977Z</time></trkpt><trkpt lat="44.7596772" lon="7.9226605"><ele>299.0</ele><time>2026-04-08T10:33:11.977Z</time></trkpt><trkpt lat="44.7596757" lon="7.9227703"><ele>299.0</ele><time>2026-04-08T10:33:12.977Z</time></trkpt><trkpt lat="44.759675" lon="7.9228805"><ele>299.0</ele><time>2026-04-08T10:33:13.977Z</time></trkpt><trkpt lat="44.7596737" lon="7.9229921"><ele>299.0</ele><time>2026-04-08T10:33:14.977Z</time></trkpt><trkpt lat="44.7596775" lon="7.9231007"><ele>298.7142857142857</ele><time>2026-04-08T10:33:15.977Z</time></trkpt><trkpt lat="44.7596904" lon="7.9232025"><ele>298.42857142857144</ele><time>2026-04-08T10:33:16.977Z</time></trkpt><trkpt lat="44.7596976" lon="7.9233029"><ele>298.14285714285717</ele><time>2026-04-08T10:33:17.977Z</time></trkpt><trkpt lat="44.7597131" lon="7.9234027"><ele>297.8571428571429</ele><time>2026-04-08T10:33:18.977Z</time></trkpt><trkpt lat="44.7597384" lon="7.9235034"><ele>297.5714285714286</ele><time>2026-04-08T10:33:19.977Z</time></trkpt><trkpt lat="44.7597555" lon="7.9236064"><ele>297.2857142857143</ele><time>2026-04-08T10:33:20.977Z</time></trkpt><trkpt lat="44.7597698" lon="7.9237073"><ele>297.0</ele><time>2026-04-08T10:33:21.977Z</time></trkpt><trkpt lat="44.7597775" lon="7.9238065"><ele>297.0</ele><time>2026-04-08T10:33:22.977Z</time></trkpt><trkpt lat="44.7597866" lon="7.9239014"><ele>297.0</ele><time>2026-04-08T10:33:23.977Z</time></trkpt><trkpt lat="44.7597738" lon="7.9239982"><ele>297.0</ele><time>2026-04-08T10:33:24.977Z</time></trkpt><trkpt lat="44.7597542" lon="7.9240881"><ele>297.0</ele><time>2026-04-08T10:33:25.977Z</time></trkpt><trkpt lat="44.7597439" lon="7.9242034"><ele>297.0</ele><time>2026-04-08T10:33:26.977Z</time></trkpt><trkpt lat="44.7597307" lon="7.9243209"><ele>297.0</ele><time>2026-04-08T10:33:27.977Z</time></trkpt><trkpt lat="44.7597143" lon="7.9244144"><ele>297.0</ele><time>2026-04-08T10:33:28.977Z</time></trkpt><trkpt lat="44.7597111" lon="7.9245375"><ele>296.0</ele><time>2026-04-08T10:33:29.977Z</time></trkpt><trkpt lat="44.7597046" lon="7.9246817"><ele>295.0</ele><time>2026-04-08T10:33:30.977Z</time></trkpt><trkpt lat="44.7597009" lon="7.9248199"><ele>294.0</ele><time>2026-04-08T10:33:31.977Z</time></trkpt><trkpt lat="44.7596922" lon="7.9249571"><ele>293.0</ele><time>2026-04-08T10:33:32.977Z</time></trkpt><trkpt lat="44.7596724" lon="7.9250839"><ele>292.0</ele><time>2026-04-08T10:33:33.977Z</time></trkpt><trkpt lat="44.7596565" lon="7.9252039"><ele>291.66666666666663</ele><time>2026-04-08T10:33:34.977Z</time></trkpt><trkpt lat="44.7596374" lon="7.9253245"><ele>291.3333333333333</ele><time>2026-04-08T10:33:35.977Z</time></trkpt><trkpt lat="44.7596207" lon="7.9254439"><ele>291.0</ele><time>2026-04-08T10:33:36.977Z</time></trkpt><trkpt lat="44.7596004" lon="7.9255439"><ele>290.6666666666667</ele><time>2026-04-08T10:33:37.977Z</time></trkpt><trkpt lat="44.7595829" lon="7.9256466"><ele>290.33333333333337</ele><time>2026-04-08T10:33:38.977Z</time></trkpt><trkpt lat="44.7595653" lon="7.9257512"><ele>290.0</ele><time>2026-04-08T10:33:39.977Z</time></trkpt><trkpt lat="44.7595563" lon="7.9258552"><ele>290.1666666666667</ele><time>2026-04-08T10:33:40.977Z</time></trkpt><trkpt lat="44.7595564" lon="7.9259693"><ele>290.33333333333337</ele><time>2026-04-08T10:33:41.977Z</time></trkpt><trkpt lat="44.7595621" lon="7.9260809"><ele>290.5</ele><time>2026-04-08T10:33:42.977Z</time></trkpt><trkpt lat="44.7595739" lon="7.9262079"><ele>290.6666666666667</ele><time>2026-04-08T10:33:43.977Z</time></trkpt><trkpt lat="44.7595718" lon="7.9263411"><ele>290.8333333333333</ele><time>2026-04-08T10:33:44.977Z</time></trkpt><trkpt lat="44.7595603" lon="7.9264794"><ele>291.0</ele><time>2026-04-08T10:33:45.977Z</time></trkpt><trkpt lat="44.7595481" lon="7.9266125"><ele>291.0</ele><time>2026-04-08T10:33:46.977Z</time></trkpt><trkpt lat="44.7595331" lon="7.9267439"><ele>291.0</ele><time>2026-04-08T10:33:47.977Z</time></trkpt><trkpt lat="44.7595218" lon="7.9268613"><ele>291.0</ele><time>2026-04-08T10:33:48.977Z</time></trkpt><trkpt lat="44.7595132" lon="7.9269889"><ele>291.0</ele><time>2026-04-08T10:33:49.977Z</time></trkpt><trkpt lat="44.7594979" lon="7.9271085"><ele>291.0</ele><time>2026-04-08T10:33:50.977Z</time></trkpt><trkpt lat="44.7594775" lon="7.9272218"><ele>291.0</ele><time>2026-04-08T10:33:51.977Z</time></trkpt><trkpt lat="44.7594494" lon="7.9273144"><ele>291.0</ele><time>2026-04-08T10:33:52.977Z</time></trkpt><trkpt lat="44.7594154" lon="7.9274239"><ele>291.0</ele><time>2026-04-08T10:33:53.977Z</time></trkpt><trkpt lat="44.7593653" lon="7.9275417"><ele>291.0</ele><time>2026-04-08T10:33:54.977Z</time></trkpt><trkpt lat="44.7593222" lon="7.9276528"><ele>291.0</ele><time>2026-04-08T10:33:55.977Z</time></trkpt><trkpt lat="44.7592772" lon="7.9277568"><ele>291.0</ele><time>2026-04-08T10:33:56.977Z</time></trkpt><trkpt lat="44.7592373" lon="7.927846"><ele>291.0</ele><time>2026-04-08T10:33:57.977Z</time></trkpt><trkpt lat="44.7591923" lon="7.9279483"><ele>288.5</ele><time>2026-04-08T10:33:58.977Z</time></trkpt><trkpt lat="44.7591507" lon="7.9280484"><ele>286.0</ele><time>2026-04-08T10:33:59.977Z</time></trkpt><trkpt lat="44.7591152" lon="7.9281519"><ele>283.5</ele><time>2026-04-08T10:34:00.977Z</time></trkpt><trkpt lat="44.7590795" lon="7.9282542"><ele>281.0</ele><time>2026-04-08T10:34:01.977Z</time></trkpt><trkpt lat="44.7590443" lon="7.9283506"><ele>278.5</ele><time>2026-04-08T10:34:02.977Z</time></trkpt><trkpt lat="44.7590062" lon="7.9284558"><ele>276.0</ele><time>2026-04-08T10:34:03.977Z</time></trkpt><trkpt lat="44.7589621" lon="7.9285562"><ele>276.0</ele><time>2026-04-08T10:34:04.977Z</time></trkpt><trkpt lat="44.7589213" lon="7.9286607"><ele>276.0</ele><time>2026-04-08T10:34:05.977Z</time></trkpt><trkpt lat="44.7588873" lon="7.9287679"><ele>276.0</ele><time>2026-04-08T10:34:06.977Z</time></trkpt><trkpt lat="44.7588462" lon="7.9288769"><ele>276.0</ele><time>2026-04-08T10:34:07.977Z</time></trkpt><trkpt lat="44.7588025" lon="7.9289851"><ele>276.0</ele><time>2026-04-08T10:34:08.977Z</time></trkpt><trkpt lat="44.7587623" lon="7.9290866"><ele>276.0</ele><time>2026-04-08T10:34:09.977Z</time></trkpt><trkpt lat="44.7587231" lon="7.9291921"><ele>276.3333333333333</ele><time>2026-04-08T10:34:10.977Z</time></trkpt><trkpt lat="44.7586809" lon="7.9293075"><ele>276.6666666666667</ele><time>2026-04-08T10:34:11.977Z</time></trkpt><trkpt lat="44.7586439" lon="7.929414"><ele>277.0</ele><time>2026-04-08T10:34:12.977Z</time></trkpt><trkpt lat="44.7586033" lon="7.9295234"><ele>277.33333333333337</ele><time>2026-04-08T10:34:13.977Z</time></trkpt><trkpt lat="44.7585713" lon="7.9296255"><ele>277.6666666666667</ele><time>2026-04-08T10:34:14.977Z</time></trkpt><trkpt lat="44.7585308" lon="7.9297228"><ele>278.0</ele><time>2026-04-08T10:34:15.977Z</time></trkpt><trkpt lat="44.7585054" lon="7.9298222"><ele>276.0</ele><time>2026-04-08T10:34:16.977Z</time></trkpt><trkpt lat="44.7584727" lon="7.9299084"><ele>274.0</ele><time>2026-04-08T10:34:17.977Z</time></trkpt><trkpt lat="44.75845" lon="7.9300164"><ele>272.0</ele><time>2026-04-08T10:34:18.977Z</time></trkpt><trkpt lat="44.7584368" lon="7.9301273"><ele>270.0</ele><time>2026-04-08T10:34:19.977Z</time></trkpt><trkpt lat="44.7584229" lon="7.9302402"><ele>268.0</ele><time>2026-04-08T10:34:20.977Z</time></trkpt><trkpt lat="44.758408" lon="7.9303569"><ele>266.0</ele><time>2026-04-08T10:34:21.977Z</time></trkpt><trkpt lat="44.7584029" lon="7.9304618"><ele>265.6666666666667</ele><time>2026-04-08T10:34:22.977Z</time></trkpt><trkpt lat="44.7583899" lon="7.9305676"><ele>265.33333333333337</ele><time>2026-04-08T10:34:23.977Z</time></trkpt><trkpt lat="44.7583715" lon="7.9306751"><ele>265.0</ele><time>2026-04-08T10:34:24.977Z</time></trkpt><trkpt lat="44.75835" lon="7.9307868"><ele>264.6666666666667</ele><time>2026-04-08T10:34:25.977Z</time></trkpt><trkpt lat="44.7583343" lon="7.9308817"><ele>264.3333333333333</ele><time>2026-04-08T10:34:26.977Z</time></trkpt><trkpt lat="44.7583188" lon="7.9309989"><ele>264.0</ele><time>2026-04-08T10:34:27.977Z</time></trkpt><trkpt lat="44.7583085" lon="7.9311006"><ele>264.0</ele><time>2026-04-08T10:34:28.977Z</time></trkpt><trkpt lat="44.758289" lon="7.9312222"><ele>264.0</ele><time>2026-04-08T10:34:29.977Z</time></trkpt><trkpt lat="44.7582654" lon="7.9313392"><ele>264.0</ele><time>2026-04-08T10:34:30.977Z</time></trkpt><trkpt lat="44.7582484" lon="7.931452"><ele>264.0</ele><time>2026-04-08T10:34:31.977Z</time></trkpt><trkpt lat="44.7582504" lon="7.9315574"><ele>264.0</ele><time>2026-04-08T10:34:32.977Z</time></trkpt><trkpt lat="44.7582464" lon="7.9316608"><ele>264.0</ele><time>2026-04-08T10:34:33.977Z</time></trkpt><trkpt lat="44.7582396" lon="7.9317569"><ele>263.8</ele><time>2026-04-08T10:34:34.977Z</time></trkpt><trkpt lat="44.758221" lon="7.931926"><ele>263.59999999999997</ele><time>2026-04-08T10:34:36.977Z</time></trkpt><trkpt lat="44.7582037" lon="7.9320978"><ele>263.4</ele><time>2026-04-08T10:34:38.977Z</time></trkpt><trkpt lat="44.7581737" lon="7.9322748"><ele>263.2</ele><time>2026-04-08T10:34:40.977Z</time></trkpt><trkpt lat="44.758158" lon="7.9323609"><ele>263.0</ele><time>2026-04-08T10:34:41.977Z</time></trkpt><trkpt lat="44.758135" lon="7.9324882"><ele>262.8</ele><time>2026-04-08T10:34:43.977Z</time></trkpt><trkpt lat="44.7580584" lon="7.932607"><ele>262.6</ele><time>2026-04-08T10:34:45.977Z</time></trkpt><trkpt lat="44.7579625" lon="7.9327463"><ele>262.4</ele><time>2026-04-08T10:34:47.977Z</time></trkpt><trkpt lat="44.757917" lon="7.9328643"><ele>262.2</ele><time>2026-04-08T10:34:48.977Z</time></trkpt><trkpt lat="44.7578682" lon="7.9329869"><ele>262.0</ele><time>2026-04-08T10:34:49.977Z</time></trkpt><trkpt lat="44.7578214" lon="7.9331199"><ele>262.0</ele><time>2026-04-08T10:34:50.977Z</time></trkpt><trkpt lat="44.7577645" lon="7.9332677"><ele>262.0</ele><time>2026-04-08T10:34:51.977Z</time></trkpt><trkpt lat="44.757701" lon="7.9334131"><ele>262.0</ele><time>2026-04-08T10:34:52.977Z</time></trkpt><trkpt lat="44.7576393" lon="7.9335395"><ele>262.0</ele><time>2026-04-08T10:34:53.977Z</time></trkpt><trkpt lat="44.7575705" lon="7.9336589"><ele>262.2</ele><time>2026-04-08T10:34:54.977Z</time></trkpt><trkpt lat="44.7575144" lon="7.9337885"><ele>262.4</ele><time>2026-04-08T10:34:55.977Z</time></trkpt><trkpt lat="44.7574573" lon="7.9339246"><ele>262.6</ele><time>2026-04-08T10:34:56.977Z</time></trkpt><trkpt lat="44.7574052" lon="7.9340554"><ele>262.8</ele><time>2026-04-08T10:34:57.977Z</time></trkpt><trkpt lat="44.7573578" lon="7.9341777"><ele>263.0</ele><time>2026-04-08T10:34:58.977Z</time></trkpt><trkpt lat="44.7573141" lon="7.9343036"><ele>263.0</ele><time>2026-04-08T10:34:59.977Z</time></trkpt><trkpt lat="44.7572776" lon="7.9344222"><ele>263.0</ele><time>2026-04-08T10:35:00.977Z</time></trkpt><trkpt lat="44.7572367" lon="7.9345462"><ele>263.0</ele><time>2026-04-08T10:35:01.977Z</time></trkpt><trkpt lat="44.7571922" lon="7.9346653"><ele>263.0</ele><time>2026-04-08T10:35:02.977Z</time></trkpt><trkpt lat="44.7571465" lon="7.9347904"><ele>263.0</ele><time>2026-04-08T10:35:03.977Z</time></trkpt><trkpt lat="44.757098" lon="7.9349155"><ele>263.0</ele><time>2026-04-08T10:35:04.977Z</time></trkpt><trkpt lat="44.757048" lon="7.9350418"><ele>263.0</ele><time>2026-04-08T10:35:05.977Z</time></trkpt><trkpt lat="44.7569986" lon="7.9351584"><ele>263.0</ele><time>2026-04-08T10:35:06.977Z</time></trkpt><trkpt lat="44.7569541" lon="7.9352768"><ele>263.0</ele><time>2026-04-08T10:35:07.977Z</time></trkpt><trkpt lat="44.756912" lon="7.9353893"><ele>263.0</ele><time>2026-04-08T10:35:08.977Z</time></trkpt><trkpt lat="44.7568649" lon="7.9355074"><ele>262.6</ele><time>2026-04-08T10:35:09.977Z</time></trkpt><trkpt lat="44.7568207" lon="7.9355985"><ele>262.20000000000005</ele><time>2026-04-08T10:35:10.977Z</time></trkpt><trkpt lat="44.7567892" lon="7.9356903"><ele>261.8</ele><time>2026-04-08T10:35:11.977Z</time></trkpt><trkpt lat="44.7567448" lon="7.9358463"><ele>261.40000000000003</ele><time>2026-04-08T10:35:13.977Z</time></trkpt><trkpt lat="44.756708" lon="7.9359869"><ele>261.0</ele><time>2026-04-08T10:35:15.977Z</time></trkpt><trkpt lat="44.7566771" lon="7.9360829"><ele>261.0</ele><time>2026-04-08T10:35:17.977Z</time></trkpt><trkpt lat="44.7566591" lon="7.9362136"><ele>261.0</ele><time>2026-04-08T10:35:21.977Z</time></trkpt><trkpt lat="44.7566599" lon="7.9363584"><ele>261.0</ele><time>2026-04-08T10:35:23.977Z</time></trkpt><trkpt lat="44.7566666" lon="7.9364568"><ele>261.0</ele><time>2026-04-08T10:35:24.977Z</time></trkpt><trkpt lat="44.7566729" lon="7.9365612"><ele>261.0</ele><time>2026-04-08T10:35:25.977Z</time></trkpt><trkpt lat="44.7566788" lon="7.9366666"><ele>261.0</ele><time>2026-04-08T10:35:26.977Z</time></trkpt><trkpt lat="44.7566845" lon="7.9367964"><ele>261.40000000000003</ele><time>2026-04-08T10:35:27.977Z</time></trkpt><trkpt lat="44.7566826" lon="7.9369399"><ele>261.8</ele><time>2026-04-08T10:35:28.977Z</time></trkpt><trkpt lat="44.756675" lon="7.9370803"><ele>262.20000000000005</ele><time>2026-04-08T10:35:29.977Z</time></trkpt><trkpt lat="44.756649" lon="7.9372296"><ele>262.6</ele><time>2026-04-08T10:35:30.977Z</time></trkpt><trkpt lat="44.7566102" lon="7.9373856"><ele>263.0</ele><time>2026-04-08T10:35:31.977Z</time></trkpt><trkpt lat="44.7565487" lon="7.9375423"><ele>263.4</ele><time>2026-04-08T10:35:32.977Z</time></trkpt><trkpt lat="44.7564825" lon="7.9376778"><ele>263.8</ele><time>2026-04-08T10:35:33.977Z</time></trkpt><trkpt lat="44.7564199" lon="7.9377991"><ele>264.2</ele><time>2026-04-08T10:35:34.977Z</time></trkpt><trkpt lat="44.7563668" lon="7.9378803"><ele>264.6</ele><time>2026-04-08T10:35:35.977Z</time></trkpt><trkpt lat="44.7562852" lon="7.9379706"><ele>265.0</ele><time>2026-04-08T10:35:37.977Z</time></trkpt><trkpt lat="44.7562134" lon="7.9380669"><ele>265.0</ele><time>2026-04-08T10:35:39.977Z</time></trkpt><trkpt lat="44.7561454" lon="7.938218"><ele>265.0</ele><time>2026-04-08T10:35:41.977Z</time></trkpt><trkpt lat="44.7561134" lon="7.9383253"><ele>265.0</ele><time>2026-04-08T10:35:42.977Z</time></trkpt><trkpt lat="44.7560755" lon="7.9384299"><ele>265.0</ele><time>2026-04-08T10:35:43.977Z</time></trkpt><trkpt lat="44.756035" lon="7.9385359"><ele>265.0</ele><time>2026-04-08T10:35:44.977Z</time></trkpt><trkpt lat="44.7559984" lon="7.9386462"><ele>267.0</ele><time>2026-04-08T10:35:45.977Z</time></trkpt><trkpt lat="44.7559726" lon="7.9387668"><ele>269.0</ele><time>2026-04-08T10:35:46.977Z</time></trkpt><trkpt lat="44.7559483" lon="7.9388876"><ele>271.0</ele><time>2026-04-08T10:35:47.977Z</time></trkpt><trkpt lat="44.7559277" lon="7.9390189"><ele>273.0</ele><time>2026-04-08T10:35:48.977Z</time></trkpt><trkpt lat="44.7559028" lon="7.9391594"><ele>275.0</ele><time>2026-04-08T10:35:49.977Z</time></trkpt><trkpt lat="44.755874" lon="7.9392979"><ele>276.75</ele><time>2026-04-08T10:35:50.977Z</time></trkpt><trkpt lat="44.7558392" lon="7.9394471"><ele>278.5</ele><time>2026-04-08T10:35:51.977Z</time></trkpt><trkpt lat="44.7557861" lon="7.9395841"><ele>280.25</ele><time>2026-04-08T10:35:52.977Z</time></trkpt><trkpt lat="44.7557216" lon="7.939727"><ele>282.0</ele><time>2026-04-08T10:35:53.977Z</time></trkpt><trkpt lat="44.7556529" lon="7.939875"><ele>282.0</ele><time>2026-04-08T10:35:54.977Z</time></trkpt><trkpt lat="44.7555849" lon="7.940022"><ele>282.0</ele><time>2026-04-08T10:35:55.977Z</time></trkpt><trkpt lat="44.7555233" lon="7.9401547"><ele>282.0</ele><time>2026-04-08T10:35:56.977Z</time></trkpt><trkpt lat="44.7554676" lon="7.9402817"><ele>282.0</ele><time>2026-04-08T10:35:57.977Z</time></trkpt><trkpt lat="44.755417" lon="7.940399"><ele>282.0</ele><time>2026-04-08T10:35:58.977Z</time></trkpt><trkpt lat="44.755363" lon="7.9404867"><ele>284.1666666666667</ele><time>2026-04-08T10:35:59.977Z</time></trkpt><trkpt lat="44.7553011" lon="7.9405527"><ele>286.3333333333333</ele><time>2026-04-08T10:36:00.977Z</time></trkpt><trkpt lat="44.7552375" lon="7.9405976"><ele>288.5</ele><time>2026-04-08T10:36:01.977Z</time></trkpt><trkpt lat="44.7551731" lon="7.9406376"><ele>290.66666666666663</ele><time>2026-04-08T10:36:02.977Z</time></trkpt><trkpt lat="44.755106" lon="7.9406696"><ele>292.8333333333333</ele><time>2026-04-08T10:36:03.977Z</time></trkpt><trkpt lat="44.7550386" lon="7.9406823"><ele>295.0</ele><time>2026-04-08T10:36:04.977Z</time></trkpt><trkpt lat="44.7549195" lon="7.9406928"><ele>295.4</ele><time>2026-04-08T10:36:06.977Z</time></trkpt><trkpt lat="44.7548062" lon="7.9407265"><ele>295.8</ele><time>2026-04-08T10:36:08.977Z</time></trkpt><trkpt lat="44.7547088" lon="7.9408352"><ele>296.2</ele><time>2026-04-08T10:36:10.977Z</time></trkpt><trkpt lat="44.7546733" lon="7.9409106"><ele>296.6</ele><time>2026-04-08T10:36:11.977Z</time></trkpt><trkpt lat="44.7546438" lon="7.9410134"><ele>297.0</ele><time>2026-04-08T10:36:12.977Z</time></trkpt><trkpt lat="44.7546338" lon="7.9411326"><ele>299.6</ele><time>2026-04-08T10:36:13.977Z</time></trkpt><trkpt lat="44.7546256" lon="7.9412669"><ele>302.2</ele><time>2026-04-08T10:36:14.977Z</time></trkpt><trkpt lat="44.7546223" lon="7.9414041"><ele>304.8</ele><time>2026-04-08T10:36:15.977Z</time></trkpt><trkpt lat="44.7546082" lon="7.9415487"><ele>307.4</ele><time>2026-04-08T10:36:16.977Z</time></trkpt><trkpt lat="44.7545974" lon="7.941696"><ele>310.0</ele><time>2026-04-08T10:36:17.977Z</time></trkpt><trkpt lat="44.7545692" lon="7.9418241"><ele>310.8333333333333</ele><time>2026-04-08T10:36:18.977Z</time></trkpt><trkpt lat="44.7545272" lon="7.9419231"><ele>311.66666666666663</ele><time>2026-04-08T10:36:19.977Z</time></trkpt><trkpt lat="44.7544687" lon="7.9420159"><ele>312.5</ele><time>2026-04-08T10:36:20.977Z</time></trkpt><trkpt lat="44.7544125" lon="7.9421074"><ele>313.3333333333333</ele><time>2026-04-08T10:36:21.977Z</time></trkpt><trkpt lat="44.7543567" lon="7.9421952"><ele>314.1666666666667</ele><time>2026-04-08T10:36:22.977Z</time></trkpt><trkpt lat="44.7543178" lon="7.9422807"><ele>315.0</ele><time>2026-04-08T10:36:23.977Z</time></trkpt><trkpt lat="44.7542825" lon="7.9423671"><ele>314.6666666666667</ele><time>2026-04-08T10:36:24.977Z</time></trkpt><trkpt lat="44.7542623" lon="7.9424552"><ele>314.3333333333333</ele><time>2026-04-08T10:36:25.977Z</time></trkpt><trkpt lat="44.7542597" lon="7.9426108"><ele>314.0</ele><time>2026-04-08T10:36:27.977Z</time></trkpt><trkpt lat="44.7543127" lon="7.9427665"><ele>313.66666666666663</ele><time>2026-04-08T10:36:29.977Z</time></trkpt><trkpt lat="44.7543692" lon="7.9428221"><ele>313.3333333333333</ele><time>2026-04-08T10:36:30.977Z</time></trkpt><trkpt lat="44.7544331" lon="7.9428657"><ele>313.0</ele><time>2026-04-08T10:36:31.977Z</time></trkpt><trkpt lat="44.7544982" lon="7.9429131"><ele>313.0</ele><time>2026-04-08T10:36:32.977Z</time></trkpt><trkpt lat="44.7545876" lon="7.942924"><ele>313.0</ele><time>2026-04-08T10:36:33.977Z</time></trkpt><trkpt lat="44.7546877" lon="7.9429018"><ele>313.0</ele><time>2026-04-08T10:36:34.977Z</time></trkpt><trkpt lat="44.7547892" lon="7.9429061"><ele>313.0</ele><time>2026-04-08T10:36:35.977Z</time></trkpt><trkpt lat="44.7548808" lon="7.9428946"><ele>313.0</ele><time>2026-04-08T10:36:36.977Z</time></trkpt><trkpt lat="44.7549745" lon="7.9429047"><ele>313.0</ele><time>2026-04-08T10:36:37.977Z</time></trkpt><trkpt lat="44.7550506" lon="7.942947"><ele>313.0</ele><time>2026-04-08T10:36:38.977Z</time></trkpt><trkpt lat="44.7551163" lon="7.9430248"><ele>313.0</ele><time>2026-04-08T10:36:39.977Z</time></trkpt><trkpt lat="44.7551588" lon="7.9431402"><ele>313.0</ele><time>2026-04-08T10:36:40.977Z</time></trkpt><trkpt lat="44.755161" lon="7.9432757"><ele>313.0</ele><time>2026-04-08T10:36:41.976Z</time></trkpt><trkpt lat="44.755132" lon="7.943399"><ele>313.0</ele><time>2026-04-08T10:36:42.977Z</time></trkpt><trkpt lat="44.7550861" lon="7.9435222"><ele>313.6</ele><time>2026-04-08T10:36:43.977Z</time></trkpt><trkpt lat="44.7550377" lon="7.9436389"><ele>314.20000000000005</ele><time>2026-04-08T10:36:44.977Z</time></trkpt><trkpt lat="44.7549886" lon="7.9437548"><ele>314.8</ele><time>2026-04-08T10:36:45.977Z</time></trkpt><trkpt lat="44.7549403" lon="7.9438687"><ele>315.40000000000003</ele><time>2026-04-08T10:36:46.977Z</time></trkpt><trkpt lat="44.7549036" lon="7.9439919"><ele>316.0</ele><time>2026-04-08T10:36:47.977Z</time></trkpt><trkpt lat="44.7548883" lon="7.9441272"><ele>314.2</ele><time>2026-04-08T10:36:48.977Z</time></trkpt><trkpt lat="44.7549062" lon="7.9442605"><ele>312.40000000000003</ele><time>2026-04-08T10:36:49.977Z</time></trkpt><trkpt lat="44.7549479" lon="7.944377"><ele>310.6</ele><time>2026-04-08T10:36:50.977Z</time></trkpt><trkpt lat="44.7550143" lon="7.9444692"><ele>308.8</ele><time>2026-04-08T10:36:51.977Z</time></trkpt><trkpt lat="44.7550928" lon="7.9445595"><ele>307.0</ele><time>2026-04-08T10:36:52.977Z</time></trkpt><trkpt lat="44.7551927" lon="7.9446396"><ele>308.0</ele><time>2026-04-08T10:36:53.977Z</time></trkpt><trkpt lat="44.7552999" lon="7.9447072"><ele>309.0</ele><time>2026-04-08T10:36:54.977Z</time></trkpt><trkpt lat="44.7554104" lon="7.9447397"><ele>310.0</ele><time>2026-04-08T10:36:55.977Z</time></trkpt><trkpt lat="44.7570002" lon="7.944942"><ele>310.0</ele><time>2026-04-08T10:41:30.989Z</time></trkpt><trkpt lat="44.7569691" lon="7.9450567"><ele>310.0</ele><time>2026-04-08T10:41:32.989Z</time></trkpt><trkpt lat="44.756936" lon="7.9451621"><ele>310.0</ele><time>2026-04-08T10:41:34.989Z</time></trkpt><trkpt lat="44.7569206" lon="7.9452635"><ele>310.0</ele><time>2026-04-08T10:41:36.989Z</time></trkpt><trkpt lat="44.7568948" lon="7.9453692"><ele>310.0</ele><time>2026-04-08T10:41:38.989Z</time></trkpt><trkpt lat="44.7568423" lon="7.9454566"><ele>310.0</ele><time>2026-04-08T10:41:40.989Z</time></trkpt><trkpt lat="44.7567752" lon="7.9455597"><ele>310.0</ele><time>2026-04-08T10:41:42.989Z</time></trkpt><trkpt lat="44.7567199" lon="7.9456416"><ele>310.0</ele><time>2026-04-08T10:41:44.989Z</time></trkpt><trkpt lat="44.7567071" lon="7.9455269"><ele>310.0</ele><time>2026-04-08T10:42:03.989Z</time></trkpt><trkpt lat="44.756742" lon="7.945429"><ele>310.0</ele><time>2026-04-08T10:42:08.989Z</time></trkpt><trkpt lat="44.7567016" lon="7.9455472"><ele>310.0</ele><time>2026-04-08T10:42:17.989Z</time></trkpt><trkpt lat="44.7566864" lon="7.945659"><ele>310.0</ele><time>2026-04-08T10:42:19.989Z</time></trkpt><trkpt lat="44.7566826" lon="7.9458299"><ele>310.5</ele><time>2026-04-08T10:42:21.989Z</time></trkpt><trkpt lat="44.7566614" lon="7.9459229"><ele>311.0</ele><time>2026-04-08T10:42:22.989Z</time></trkpt><trkpt lat="44.7566473" lon="7.9460201"><ele>311.5</ele><time>2026-04-08T10:42:23.989Z</time></trkpt><trkpt lat="44.7566319" lon="7.946113"><ele>312.0</ele><time>2026-04-08T10:42:24.989Z</time></trkpt><trkpt lat="44.7566186" lon="7.9462081"><ele>312.5</ele><time>2026-04-08T10:42:25.989Z</time></trkpt><trkpt lat="44.7566042" lon="7.946298"><ele>313.0</ele><time>2026-04-08T10:42:26.989Z</time></trkpt><trkpt lat="44.7565712" lon="7.9464618"><ele>313.0</ele><time>2026-04-08T10:42:28.989Z</time></trkpt><trkpt lat="44.7565484" lon="7.9465925"><ele>313.0</ele><time>2026-04-08T10:42:30.989Z</time></trkpt><trkpt lat="44.7565142" lon="7.9467415"><ele>313.0</ele><time>2026-04-08T10:42:32.989Z</time></trkpt><trkpt lat="44.7564742" lon="7.9468338"><ele>313.0</ele><time>2026-04-08T10:42:34.989Z</time></trkpt><trkpt lat="44.7565375" lon="7.9467734"><ele>313.0</ele><time>2026-04-08T10:42:39.989Z</time></trkpt><trkpt lat="44.7565485" lon="7.9465985"><ele>313.0</ele><time>2026-04-08T10:42:41.989Z</time></trkpt><trkpt lat="44.7565613" lon="7.946502"><ele>313.0</ele><time>2026-04-08T10:42:42.989Z</time></trkpt><trkpt lat="44.756579" lon="7.9463985"><ele>313.0</ele><time>2026-04-08T10:42:43.989Z</time></trkpt><trkpt lat="44.7565946" lon="7.9462823"><ele>313.0</ele><time>2026-04-08T10:42:44.989Z</time></trkpt><trkpt lat="44.7566202" lon="7.946169"><ele>313.0</ele><time>2026-04-08T10:42:45.989Z</time></trkpt><trkpt lat="44.7566349" lon="7.9460656"><ele>313.0</ele><time>2026-04-08T10:42:46.989Z</time></trkpt><trkpt lat="44.756652" lon="7.9459626"><ele>312.5</ele><time>2026-04-08T10:42:47.989Z</time></trkpt><trkpt lat="44.7566692" lon="7.9458502"><ele>312.0</ele><time>2026-04-08T10:42:48.989Z</time></trkpt><trkpt lat="44.7566999" lon="7.9457529"><ele>311.5</ele><time>2026-04-08T10:42:49.989Z</time></trkpt><trkpt lat="44.7567375" lon="7.9456655"><ele>311.0</ele><time>2026-04-08T10:42:50.989Z</time></trkpt><trkpt lat="44.756782" lon="7.9455937"><ele>310.5</ele><time>2026-04-08T10:42:51.989Z</time></trkpt><trkpt lat="44.7568709" lon="7.9454927"><ele>310.0</ele><time>2026-04-08T10:42:53.989Z</time></trkpt><trkpt lat="44.7569184" lon="7.9454102"><ele>309.8333333333333</ele><time>2026-04-08T10:42:55.989Z</time></trkpt><trkpt lat="44.7569406" lon="7.9453123"><ele>309.66666666666663</ele><time>2026-04-08T10:43:01.989Z</time></trkpt><trkpt lat="44.7569548" lon="7.9451989"><ele>309.5</ele><time>2026-04-08T10:43:03.989Z</time></trkpt><trkpt lat="44.7569749" lon="7.9451021"><ele>309.3333333333333</ele><time>2026-04-08T10:43:05.989Z</time></trkpt><trkpt lat="44.7570009" lon="7.9449978"><ele>309.1666666666667</ele><time>2026-04-08T10:43:07.989Z</time></trkpt><trkpt lat="44.7570266" lon="7.9448867"><ele>309.0</ele><time>2026-04-08T10:43:09.989Z</time></trkpt><trkpt lat="44.7570437" lon="7.9447588"><ele>307.8</ele><time>2026-04-08T10:43:11.989Z</time></trkpt><trkpt lat="44.7570774" lon="7.9446471"><ele>306.59999999999997</ele><time>2026-04-08T10:43:13.989Z</time></trkpt><trkpt lat="44.7570778" lon="7.9445457"><ele>305.4</ele><time>2026-04-08T10:43:15.989Z</time></trkpt><trkpt lat="44.7570448" lon="7.9446712"><ele>304.2</ele><time>2026-04-08T10:43:19.989Z</time></trkpt><trkpt lat="44.7570455" lon="7.9448109"><ele>303.0</ele><time>2026-04-08T10:43:21.989Z</time></trkpt><trkpt lat="44.757053" lon="7.9449596"><ele>304.2</ele><time>2026-04-08T10:43:23.989Z</time></trkpt><trkpt lat="44.757089" lon="7.9451183"><ele>305.4</ele><time>2026-04-08T10:43:25.989Z</time></trkpt><trkpt lat="44.757109" lon="7.9452566"><ele>306.59999999999997</ele><time>2026-04-08T10:43:27.989Z</time></trkpt><trkpt lat="44.757115" lon="7.945399"><ele>307.8</ele><time>2026-04-08T10:43:29.989Z</time></trkpt><trkpt lat="44.7571812" lon="7.9455466"><ele>309.0</ele><time>2026-04-08T10:43:31.989Z</time></trkpt><trkpt lat="44.7572343" lon="7.9456109"><ele>309.00000000000006</ele><time>2026-04-08T10:43:32.989Z</time></trkpt><trkpt lat="44.7572775" lon="7.9456857"><ele>309.0</ele><time>2026-04-08T10:43:33.989Z</time></trkpt><trkpt lat="44.75732" lon="7.9457639"><ele>309.0</ele><time>2026-04-08T10:43:34.989Z</time></trkpt><trkpt lat="44.7573615" lon="7.9458405"><ele>309.0</ele><time>2026-04-08T10:43:35.989Z</time></trkpt><trkpt lat="44.7574167" lon="7.9459124"><ele>309.0</ele><time>2026-04-08T10:43:36.989Z</time></trkpt><trkpt lat="44.7574835" lon="7.9459729"><ele>309.00000000000006</ele><time>2026-04-08T10:43:37.989Z</time></trkpt><trkpt lat="44.7575561" lon="7.9460192"><ele>309.0</ele><time>2026-04-08T10:43:38.989Z</time></trkpt><trkpt lat="44.7576372" lon="7.9460587"><ele>309.0</ele><time>2026-04-08T10:43:39.989Z</time></trkpt><trkpt lat="44.7577174" lon="7.9461123"><ele>309.0</ele><time>2026-04-08T10:43:40.989Z</time></trkpt><trkpt lat="44.7577953" lon="7.9461644"><ele>309.0</ele><time>2026-04-08T10:43:41.989Z</time></trkpt><trkpt lat="44.7578774" lon="7.9462148"><ele>309.0</ele><time>2026-04-08T10:43:42.989Z</time></trkpt><trkpt lat="44.7579574" lon="7.9462502"><ele>309.0</ele><time>2026-04-08T10:43:43.989Z</time></trkpt><trkpt lat="44.7580363" lon="7.946266"><ele>309.0</ele><time>2026-04-08T10:43:44.989Z</time></trkpt><trkpt lat="44.7581071" lon="7.946263"><ele>309.0</ele><time>2026-04-08T10:43:45.989Z</time></trkpt><trkpt lat="44.7581813" lon="7.9462654"><ele>309.0</ele><time>2026-04-08T10:43:46.989Z</time></trkpt><trkpt lat="44.7582527" lon="7.9462608"><ele>309.0</ele><time>2026-04-08T10:43:47.989Z</time></trkpt><trkpt lat="44.7583306" lon="7.9462725"><ele>309.0</ele><time>2026-04-08T10:43:48.989Z</time></trkpt><trkpt lat="44.7584081" lon="7.9462663"><ele>309.0</ele><time>2026-04-08T10:43:49.989Z</time></trkpt><trkpt lat="44.7584865" lon="7.9462685"><ele>309.0</ele><time>2026-04-08T10:43:50.989Z</time></trkpt><trkpt lat="44.7585598" lon="7.9462949"><ele>307.2</ele><time>2026-04-08T10:43:51.989Z</time></trkpt><trkpt lat="44.7586291" lon="7.9463433"><ele>305.4</ele><time>2026-04-08T10:43:52.989Z</time></trkpt><trkpt lat="44.7587" lon="7.9464194"><ele>303.6</ele><time>2026-04-08T10:43:53.989Z</time></trkpt><trkpt lat="44.7587774" lon="7.9465077"><ele>301.8</ele><time>2026-04-08T10:43:54.989Z</time></trkpt><trkpt lat="44.7588518" lon="7.9465922"><ele>300.0</ele><time>2026-04-08T10:43:55.989Z</time></trkpt><trkpt lat="44.7589274" lon="7.9466782"><ele>300.0</ele><time>2026-04-08T10:43:56.989Z</time></trkpt><trkpt lat="44.7589929" lon="7.9467568"><ele>300.0</ele><time>2026-04-08T10:43:57.989Z</time></trkpt><trkpt lat="44.759064" lon="7.9468346"><ele>300.0</ele><time>2026-04-08T10:43:58.989Z</time></trkpt><trkpt lat="44.7591387" lon="7.9469177"><ele>300.0</ele><time>2026-04-08T10:43:59.989Z</time></trkpt><trkpt lat="44.7592149" lon="7.9470056"><ele>300.0</ele><time>2026-04-08T10:44:00.989Z</time></trkpt><trkpt lat="44.7592774" lon="7.9471124"><ele>300.0</ele><time>2026-04-08T10:44:01.989Z</time></trkpt><trkpt lat="44.7593359" lon="7.9472211"><ele>300.0</ele><time>2026-04-08T10:44:02.989Z</time></trkpt><trkpt lat="44.7593917" lon="7.9473195"><ele>300.0</ele><time>2026-04-08T10:44:03.989Z</time></trkpt><trkpt lat="44.7594589" lon="7.9473971"><ele>300.0</ele><time>2026-04-08T10:44:04.989Z</time></trkpt><trkpt lat="44.7595428" lon="7.9474516"><ele>300.0</ele><time>2026-04-08T10:44:05.989Z</time></trkpt><trkpt lat="44.7596155" lon="7.9475092"><ele>300.0</ele><time>2026-04-08T10:44:06.989Z</time></trkpt><trkpt lat="44.7596976" lon="7.9475511"><ele>297.2</ele><time>2026-04-08T10:44:07.989Z</time></trkpt><trkpt lat="44.7597902" lon="7.947616"><ele>294.4</ele><time>2026-04-08T10:44:08.989Z</time></trkpt><trkpt lat="44.759881" lon="7.9476783"><ele>291.6</ele><time>2026-04-08T10:44:09.989Z</time></trkpt><trkpt lat="44.7599663" lon="7.9477407"><ele>288.8</ele><time>2026-04-08T10:44:10.989Z</time></trkpt><trkpt lat="44.7600453" lon="7.9478083"><ele>286.0</ele><time>2026-04-08T10:44:11.989Z</time></trkpt><trkpt lat="44.7601253" lon="7.947877"><ele>286.0</ele><time>2026-04-08T10:44:12.989Z</time></trkpt><trkpt lat="44.7601998" lon="7.9479577"><ele>286.0</ele><time>2026-04-08T10:44:13.988Z</time></trkpt><trkpt lat="44.760268" lon="7.9480321"><ele>286.0</ele><time>2026-04-08T10:44:14.989Z</time></trkpt><trkpt lat="44.7603347" lon="7.9481021"><ele>286.0</ele><time>2026-04-08T10:44:15.989Z</time></trkpt><trkpt lat="44.7604172" lon="7.9481838"><ele>286.0</ele><time>2026-04-08T10:44:18.192Z</time></trkpt><trkpt lat="44.7604802" lon="7.9482176"><ele>286.0</ele><time>2026-04-08T10:44:19.372Z</time></trkpt><trkpt lat="44.7606291" lon="7.9482393"><ele>286.3333333333333</ele><time>2026-04-08T10:44:20.974Z</time></trkpt><trkpt lat="44.7607037" lon="7.9482582"><ele>286.66666666666663</ele><time>2026-04-08T10:44:21.968Z</time></trkpt><trkpt lat="44.7607843" lon="7.948288"><ele>287.0</ele><time>2026-04-08T10:44:22.966Z</time></trkpt><trkpt lat="44.7608691" lon="7.9483227"><ele>287.3333333333333</ele><time>2026-04-08T10:44:23.969Z</time></trkpt><trkpt lat="44.7609543" lon="7.9483651"><ele>287.6666666666667</ele><time>2026-04-08T10:44:24.97Z</time></trkpt><trkpt lat="44.7610429" lon="7.9484175"><ele>288.0</ele><time>2026-04-08T10:44:25.97Z</time></trkpt><trkpt lat="44.761131" lon="7.9484681"><ele>286.0</ele><time>2026-04-08T10:44:26.97Z</time></trkpt><trkpt lat="44.7612215" lon="7.948527"><ele>284.0</ele><time>2026-04-08T10:44:27.97Z</time></trkpt><trkpt lat="44.7613063" lon="7.948584"><ele>282.0</ele><time>2026-04-08T10:44:28.97Z</time></trkpt><trkpt lat="44.7613886" lon="7.9486427"><ele>280.0</ele><time>2026-04-08T10:44:29.97Z</time></trkpt><trkpt lat="44.7614691" lon="7.9487083"><ele>278.0</ele><time>2026-04-08T10:44:30.97Z</time></trkpt><trkpt lat="44.7615454" lon="7.948773"><ele>278.0</ele><time>2026-04-08T10:44:31.97Z</time></trkpt><trkpt lat="44.7616227" lon="7.9488508"><ele>278.0</ele><time>2026-04-08T10:44:32.97Z</time></trkpt><trkpt lat="44.7617025" lon="7.9489212"><ele>278.0</ele><time>2026-04-08T10:44:33.97Z</time></trkpt><trkpt lat="44.7617771" lon="7.9490065"><ele>278.0</ele><time>2026-04-08T10:44:34.97Z</time></trkpt><trkpt lat="44.7618562" lon="7.9491032"><ele>278.0</ele><time>2026-04-08T10:44:35.97Z</time></trkpt><trkpt lat="44.7619276" lon="7.9492001"><ele>278.0</ele><time>2026-04-08T10:44:36.97Z</time></trkpt><trkpt lat="44.7619996" lon="7.949304"><ele>278.0</ele><time>2026-04-08T10:44:37.97Z</time></trkpt><trkpt lat="44.7620673" lon="7.9493998"><ele>278.0</ele><time>2026-04-08T10:44:38.97Z</time></trkpt><trkpt lat="44.7621292" lon="7.9494871"><ele>278.0</ele><time>2026-04-08T10:44:39.97Z</time></trkpt><trkpt lat="44.7621976" lon="7.9495522"><ele>278.0</ele><time>2026-04-08T10:44:40.97Z</time></trkpt><trkpt lat="44.7622669" lon="7.9496101"><ele>278.0</ele><time>2026-04-08T10:44:41.97Z</time></trkpt><trkpt lat="44.7623349" lon="7.9496614"><ele>278.0</ele><time>2026-04-08T10:44:42.97Z</time></trkpt><trkpt lat="44.7624028" lon="7.9496948"><ele>278.0</ele><time>2026-04-08T10:44:43.97Z</time></trkpt><trkpt lat="44.7624661" lon="7.9497411"><ele>278.0</ele><time>2026-04-08T10:44:44.97Z</time></trkpt><trkpt lat="44.7625735" lon="7.9498026"><ele>278.0</ele><time>2026-04-08T10:44:46.97Z</time></trkpt><trkpt lat="44.7626114" lon="7.9498804"><ele>278.0</ele><time>2026-04-08T10:44:48.97Z</time></trkpt><trkpt lat="44.7625794" lon="7.9500013"><ele>276.85714285714283</ele><time>2026-04-08T10:44:51.97Z</time></trkpt><trkpt lat="44.7625368" lon="7.9500814"><ele>275.7142857142857</ele><time>2026-04-08T10:44:53.97Z</time></trkpt><trkpt lat="44.7624874" lon="7.9501645"><ele>274.57142857142856</ele><time>2026-04-08T10:44:55.97Z</time></trkpt><trkpt lat="44.7624359" lon="7.9502321"><ele>273.42857142857144</ele><time>2026-04-08T10:44:57.97Z</time></trkpt><trkpt lat="44.7623802" lon="7.9502878"><ele>272.2857142857143</ele><time>2026-04-08T10:44:59.97Z</time></trkpt><trkpt lat="44.7623115" lon="7.9503367"><ele>271.1428571428571</ele><time>2026-04-08T10:45:01.97Z</time></trkpt><trkpt lat="44.7622284" lon="7.9503664"><ele>270.0</ele><time>2026-04-08T10:45:03.97Z</time></trkpt><trkpt lat="44.762127" lon="7.9503871"><ele>270.0</ele><time>2026-04-08T10:45:05.97Z</time></trkpt><trkpt lat="44.7620172" lon="7.9503807"><ele>270.0</ele><time>2026-04-08T10:45:07.97Z</time></trkpt><trkpt lat="44.7618984" lon="7.9503836"><ele>270.0</ele><time>2026-04-08T10:45:09.97Z</time></trkpt><trkpt lat="44.7617762" lon="7.9503808"><ele>270.0</ele><time>2026-04-08T10:45:11.97Z</time></trkpt><trkpt lat="44.7616565" lon="7.9504212"><ele>267.4</ele><time>2026-04-08T10:45:13.97Z</time></trkpt><trkpt lat="44.7615465" lon="7.9504891"><ele>264.8</ele><time>2026-04-08T10:45:15.97Z</time></trkpt><trkpt lat="44.7614553" lon="7.9505536"><ele>262.2</ele><time>2026-04-08T10:45:17.97Z</time></trkpt><trkpt lat="44.7613816" lon="7.9506056"><ele>259.6</ele><time>2026-04-08T10:45:19.97Z</time></trkpt><trkpt lat="44.7613189" lon="7.9506652"><ele>257.0</ele><time>2026-04-08T10:45:21.97Z</time></trkpt><trkpt lat="44.7612522" lon="7.9507263"><ele>257.0</ele><time>2026-04-08T10:45:23.97Z</time></trkpt><trkpt lat="44.7611966" lon="7.9508089"><ele>257.0</ele><time>2026-04-08T10:45:25.97Z</time></trkpt><trkpt lat="44.7611905" lon="7.9508974"><ele>257.0</ele><time>2026-04-08T10:45:27.97Z</time></trkpt><trkpt lat="44.7612527" lon="7.9509729"><ele>257.0</ele><time>2026-04-08T10:45:29.97Z</time></trkpt><trkpt lat="44.7613304" lon="7.9510708"><ele>257.0</ele><time>2026-04-08T10:45:31.97Z</time></trkpt><trkpt lat="44.7614278" lon="7.9511825"><ele>256.2</ele><time>2026-04-08T10:45:33.97Z</time></trkpt><trkpt lat="44.7615223" lon="7.9512852"><ele>255.39999999999998</ele><time>2026-04-08T10:45:35.97Z</time></trkpt><trkpt lat="44.7615701" lon="7.951344"><ele>254.60000000000002</ele><time>2026-04-08T10:45:36.97Z</time></trkpt><trkpt lat="44.7616585" lon="7.9514547"><ele>253.8</ele><time>2026-04-08T10:45:38.97Z</time></trkpt><trkpt lat="44.7617596" lon="7.9515592"><ele>253.0</ele><time>2026-04-08T10:45:40.97Z</time></trkpt><trkpt lat="44.7618185" lon="7.9516298"><ele>252.66666666666666</ele><time>2026-04-08T10:45:41.97Z</time></trkpt><trkpt lat="44.7618743" lon="7.9517037"><ele>252.33333333333331</ele><time>2026-04-08T10:45:42.97Z</time></trkpt><trkpt lat="44.7619448" lon="7.9517952"><ele>252.0</ele><time>2026-04-08T10:45:43.97Z</time></trkpt><trkpt lat="44.7620075" lon="7.9518794"><ele>251.66666666666669</ele><time>2026-04-08T10:45:44.97Z</time></trkpt><trkpt lat="44.7620659" lon="7.9519642"><ele>251.33333333333334</ele><time>2026-04-08T10:45:45.97Z</time></trkpt><trkpt lat="44.7621205" lon="7.952041"><ele>251.0</ele><time>2026-04-08T10:45:46.97Z</time></trkpt><trkpt lat="44.7621798" lon="7.9521309"><ele>251.00000000000003</ele><time>2026-04-08T10:45:47.97Z</time></trkpt><trkpt lat="44.7622305" lon="7.9522183"><ele>251.0</ele><time>2026-04-08T10:45:48.97Z</time></trkpt><trkpt lat="44.762286" lon="7.9522956"><ele>251.0</ele><time>2026-04-08T10:45:49.97Z</time></trkpt><trkpt lat="44.7623479" lon="7.9523805"><ele>251.0</ele><time>2026-04-08T10:45:50.97Z</time></trkpt><trkpt lat="44.7624143" lon="7.9524788"><ele>251.00000000000003</ele><time>2026-04-08T10:45:51.97Z</time></trkpt><trkpt lat="44.7624767" lon="7.9525742"><ele>251.0</ele><time>2026-04-08T10:45:52.97Z</time></trkpt><trkpt lat="44.7625334" lon="7.9526696"><ele>251.4</ele><time>2026-04-08T10:45:53.97Z</time></trkpt><trkpt lat="44.7625953" lon="7.9527731"><ele>251.8</ele><time>2026-04-08T10:45:54.97Z</time></trkpt><trkpt lat="44.7626466" lon="7.9528956"><ele>252.20000000000002</ele><time>2026-04-08T10:45:55.97Z</time></trkpt><trkpt lat="44.7626966" lon="7.9530013"><ele>252.60000000000002</ele><time>2026-04-08T10:45:56.97Z</time></trkpt><trkpt lat="44.7627506" lon="7.9531013"><ele>253.0</ele><time>2026-04-08T10:45:57.97Z</time></trkpt><trkpt lat="44.7628049" lon="7.9532006"><ele>252.99999999999997</ele><time>2026-04-08T10:45:58.97Z</time></trkpt><trkpt lat="44.7628597" lon="7.9533023"><ele>253.0</ele><time>2026-04-08T10:45:59.97Z</time></trkpt><trkpt lat="44.7629039" lon="7.9534158"><ele>253.0</ele><time>2026-04-08T10:46:00.97Z</time></trkpt><trkpt lat="44.7629521" lon="7.9535208"><ele>253.0</ele><time>2026-04-08T10:46:01.97Z</time></trkpt><trkpt lat="44.763007" lon="7.9536213"><ele>252.99999999999997</ele><time>2026-04-08T10:46:02.97Z</time></trkpt><trkpt lat="44.7630607" lon="7.9537151"><ele>253.0</ele><time>2026-04-08T10:46:03.97Z</time></trkpt><trkpt lat="44.7631159" lon="7.9538228"><ele>251.8</ele><time>2026-04-08T10:46:04.97Z</time></trkpt><trkpt lat="44.7631728" lon="7.9539429"><ele>250.60000000000002</ele><time>2026-04-08T10:46:05.97Z</time></trkpt><trkpt lat="44.7632216" lon="7.9540522"><ele>249.39999999999998</ele><time>2026-04-08T10:46:06.97Z</time></trkpt><trkpt lat="44.7632639" lon="7.9541617"><ele>248.2</ele><time>2026-04-08T10:46:07.97Z</time></trkpt><trkpt lat="44.763313" lon="7.9542672"><ele>247.0</ele><time>2026-04-08T10:46:08.97Z</time></trkpt><trkpt lat="44.7633684" lon="7.954369"><ele>246.66666666666666</ele><time>2026-04-08T10:46:09.97Z</time></trkpt><trkpt lat="44.7634287" lon="7.9544656"><ele>246.33333333333331</ele><time>2026-04-08T10:46:10.97Z</time></trkpt><trkpt lat="44.7634881" lon="7.9545454"><ele>246.0</ele><time>2026-04-08T10:46:11.97Z</time></trkpt><trkpt lat="44.7635571" lon="7.9546242"><ele>245.66666666666669</ele><time>2026-04-08T10:46:12.97Z</time></trkpt><trkpt lat="44.7636271" lon="7.954689"><ele>245.33333333333334</ele><time>2026-04-08T10:46:13.97Z</time></trkpt><trkpt lat="44.7636964" lon="7.9547609"><ele>245.0</ele><time>2026-04-08T10:46:14.97Z</time></trkpt><trkpt lat="44.7637565" lon="7.9548486"><ele>244.8</ele><time>2026-04-08T10:46:15.97Z</time></trkpt><trkpt lat="44.7638161" lon="7.9549506"><ele>244.6</ele><time>2026-04-08T10:46:16.97Z</time></trkpt><trkpt lat="44.7638727" lon="7.9550603"><ele>244.39999999999998</ele><time>2026-04-08T10:46:17.97Z</time></trkpt><trkpt lat="44.7639234" lon="7.955182"><ele>244.2</ele><time>2026-04-08T10:46:18.97Z</time></trkpt><trkpt lat="44.76396" lon="7.9553008"><ele>244.0</ele><time>2026-04-08T10:46:19.97Z</time></trkpt><trkpt lat="44.7639961" lon="7.9554085"><ele>244.6</ele><time>2026-04-08T10:46:20.97Z</time></trkpt><trkpt lat="44.764037" lon="7.9555227"><ele>245.2</ele><time>2026-04-08T10:46:21.97Z</time></trkpt><trkpt lat="44.764078" lon="7.9556378"><ele>245.79999999999998</ele><time>2026-04-08T10:46:22.97Z</time></trkpt><trkpt lat="44.7641181" lon="7.9557656"><ele>246.39999999999998</ele><time>2026-04-08T10:46:23.97Z</time></trkpt><trkpt lat="44.7641702" lon="7.9559001"><ele>247.0</ele><time>2026-04-08T10:46:24.97Z</time></trkpt><trkpt lat="44.7642192" lon="7.9560275"><ele>246.99999999999997</ele><time>2026-04-08T10:46:25.97Z</time></trkpt><trkpt lat="44.7642687" lon="7.9561424"><ele>247.0</ele><time>2026-04-08T10:46:26.97Z</time></trkpt><trkpt lat="44.7643109" lon="7.9562429"><ele>247.0</ele><time>2026-04-08T10:46:27.97Z</time></trkpt><trkpt lat="44.76436" lon="7.9563386"><ele>247.0</ele><time>2026-04-08T10:46:28.97Z</time></trkpt><trkpt lat="44.7644027" lon="7.9564249"><ele>246.99999999999997</ele><time>2026-04-08T10:46:29.97Z</time></trkpt><trkpt lat="44.764457" lon="7.95652"><ele>247.0</ele><time>2026-04-08T10:46:30.97Z</time></trkpt><trkpt lat="44.7645002" lon="7.9565951"><ele>246.6</ele><time>2026-04-08T10:46:31.97Z</time></trkpt><trkpt lat="44.764541" lon="7.9566718"><ele>246.2</ele><time>2026-04-08T10:46:32.97Z</time></trkpt><trkpt lat="44.7646122" lon="7.9567994"><ele>245.8</ele><time>2026-04-08T10:46:34.97Z</time></trkpt><trkpt lat="44.7646669" lon="7.9569109"><ele>245.4</ele><time>2026-04-08T10:46:36.97Z</time></trkpt><trkpt lat="44.76474" lon="7.9570109"><ele>245.0</ele><time>2026-04-08T10:46:38.97Z</time></trkpt><trkpt lat="44.7648198" lon="7.957131"><ele>244.71428571428572</ele><time>2026-04-08T10:46:40.97Z</time></trkpt><trkpt lat="44.7648668" lon="7.9571991"><ele>244.42857142857144</ele><time>2026-04-08T10:46:41.97Z</time></trkpt><trkpt lat="44.7649149" lon="7.9572781"><ele>244.14285714285714</ele><time>2026-04-08T10:46:42.97Z</time></trkpt><trkpt lat="44.7649686" lon="7.9573576"><ele>243.85714285714286</ele><time>2026-04-08T10:46:43.97Z</time></trkpt><trkpt lat="44.7650277" lon="7.9574354"><ele>243.57142857142858</ele><time>2026-04-08T10:46:44.97Z</time></trkpt><trkpt lat="44.7650772" lon="7.9575128"><ele>243.28571428571428</ele><time>2026-04-08T10:46:45.97Z</time></trkpt><trkpt lat="44.7651234" lon="7.9575866"><ele>243.0</ele><time>2026-04-08T10:46:46.97Z</time></trkpt><trkpt lat="44.7651936" lon="7.9577262"><ele>244.66666666666666</ele><time>2026-04-08T10:46:48.97Z</time></trkpt><trkpt lat="44.7652412" lon="7.957785"><ele>246.33333333333331</ele><time>2026-04-08T10:46:49.97Z</time></trkpt><trkpt lat="44.7652948" lon="7.9578456"><ele>248.0</ele><time>2026-04-08T10:46:50.97Z</time></trkpt><trkpt lat="44.7653488" lon="7.9579089"><ele>249.66666666666666</ele><time>2026-04-08T10:46:51.97Z</time></trkpt><trkpt lat="44.7654146" lon="7.9580367"><ele>251.33333333333331</ele><time>2026-04-08T10:46:53.97Z</time></trkpt><trkpt lat="44.7653725" lon="7.958172"><ele>253.0</ele><time>2026-04-08T10:46:55.97Z</time></trkpt><trkpt lat="44.7653189" lon="7.95824"><ele>252.99999999999997</ele><time>2026-04-08T10:46:56.97Z</time></trkpt><trkpt lat="44.7652569" lon="7.9583169"><ele>253.0</ele><time>2026-04-08T10:46:57.97Z</time></trkpt><trkpt lat="44.7652044" lon="7.9584061"><ele>253.0</ele><time>2026-04-08T10:46:58.97Z</time></trkpt><trkpt lat="44.7651567" lon="7.9585167"><ele>253.0</ele><time>2026-04-08T10:46:59.97Z</time></trkpt><trkpt lat="44.7651259" lon="7.9586375"><ele>252.99999999999997</ele><time>2026-04-08T10:47:00.97Z</time></trkpt><trkpt lat="44.7651087" lon="7.9587725"><ele>253.0</ele><time>2026-04-08T10:47:01.97Z</time></trkpt><trkpt lat="44.7651099" lon="7.9589165"><ele>250.4</ele><time>2026-04-08T10:47:02.97Z</time></trkpt><trkpt lat="44.7651135" lon="7.9590497"><ele>247.8</ele><time>2026-04-08T10:47:03.97Z</time></trkpt><trkpt lat="44.7650961" lon="7.9591763"><ele>245.2</ele><time>2026-04-08T10:47:04.97Z</time></trkpt><trkpt lat="44.7650668" lon="7.9592822"><ele>242.6</ele><time>2026-04-08T10:47:05.97Z</time></trkpt><trkpt lat="44.7650259" lon="7.9593968"><ele>240.0</ele><time>2026-04-08T10:47:07.97Z</time></trkpt><trkpt lat="44.7650262" lon="7.9595291"><ele>240.0</ele><time>2026-04-08T10:47:09.97Z</time></trkpt><trkpt lat="44.7650583" lon="7.9596059"><ele>240.0</ele><time>2026-04-08T10:47:10.97Z</time></trkpt><trkpt lat="44.7651107" lon="7.9596863"><ele>240.0</ele><time>2026-04-08T10:47:11.97Z</time></trkpt><trkpt lat="44.7651801" lon="7.9597812"><ele>240.0</ele><time>2026-04-08T10:47:12.97Z</time></trkpt><trkpt lat="44.7652409" lon="7.959888"><ele>240.0</ele><time>2026-04-08T10:47:13.97Z</time></trkpt><trkpt lat="44.7653042" lon="7.9600197"><ele>240.0</ele><time>2026-04-08T10:47:14.97Z</time></trkpt><trkpt lat="44.7653715" lon="7.9601517"><ele>240.0</ele><time>2026-04-08T10:47:15.97Z</time></trkpt><trkpt lat="44.7654412" lon="7.9602952"><ele>240.0</ele><time>2026-04-08T10:47:16.97Z</time></trkpt><trkpt lat="44.7655205" lon="7.9604497"><ele>240.0</ele><time>2026-04-08T10:47:17.97Z</time></trkpt><trkpt lat="44.7656008" lon="7.9606016"><ele>240.0</ele><time>2026-04-08T10:47:18.97Z</time></trkpt><trkpt lat="44.765675" lon="7.9607531"><ele>239.25</ele><time>2026-04-08T10:47:19.97Z</time></trkpt><trkpt lat="44.7657337" lon="7.9609055"><ele>238.5</ele><time>2026-04-08T10:47:20.97Z</time></trkpt><trkpt lat="44.7657829" lon="7.9610625"><ele>237.75</ele><time>2026-04-08T10:47:21.97Z</time></trkpt><trkpt lat="44.7658316" lon="7.9612326"><ele>237.0</ele><time>2026-04-08T10:47:22.97Z</time></trkpt><trkpt lat="44.7658828" lon="7.9614114"><ele>237.0</ele><time>2026-04-08T10:47:23.97Z</time></trkpt><trkpt lat="44.7659327" lon="7.9615977"><ele>237.0</ele><time>2026-04-08T10:47:24.97Z</time></trkpt><trkpt lat="44.7659776" lon="7.9617718"><ele>237.0</ele><time>2026-04-08T10:47:25.97Z</time></trkpt><trkpt lat="44.7660271" lon="7.9619508"><ele>237.0</ele><time>2026-04-08T10:47:26.97Z</time></trkpt><trkpt lat="44.766071" lon="7.9621314"><ele>239.75</ele><time>2026-04-08T10:47:27.97Z</time></trkpt><trkpt lat="44.7661139" lon="7.9622965"><ele>242.5</ele><time>2026-04-08T10:47:28.97Z</time></trkpt><trkpt lat="44.7661548" lon="7.9624573"><ele>245.25</ele><time>2026-04-08T10:47:29.97Z</time></trkpt><trkpt lat="44.7661873" lon="7.9626035"><ele>248.0</ele><time>2026-04-08T10:47:30.97Z</time></trkpt><trkpt lat="44.7662189" lon="7.9627312"><ele>248.00000000000003</ele><time>2026-04-08T10:47:31.97Z</time></trkpt><trkpt lat="44.7662469" lon="7.9628425"><ele>248.0</ele><time>2026-04-08T10:47:32.97Z</time></trkpt><trkpt lat="44.7662768" lon="7.9629386"><ele>248.0</ele><time>2026-04-08T10:47:33.97Z</time></trkpt><trkpt lat="44.7663206" lon="7.9630241"><ele>248.0</ele><time>2026-04-08T10:47:34.97Z</time></trkpt><trkpt lat="44.7663868" lon="7.9630905"><ele>248.00000000000003</ele><time>2026-04-08T10:47:35.97Z</time></trkpt><trkpt lat="44.7664579" lon="7.9631386"><ele>248.0</ele><time>2026-04-08T10:47:36.97Z</time></trkpt><trkpt lat="44.7665402" lon="7.9631719"><ele>248.00000000000003</ele><time>2026-04-08T10:47:37.97Z</time></trkpt><trkpt lat="44.7666274" lon="7.9631844"><ele>248.0</ele><time>2026-04-08T10:47:38.97Z</time></trkpt><trkpt lat="44.7667177" lon="7.9631899"><ele>248.0</ele><time>2026-04-08T10:47:39.97Z</time></trkpt><trkpt lat="44.7668102" lon="7.96319"><ele>248.0</ele><time>2026-04-08T10:47:40.97Z</time></trkpt><trkpt lat="44.7669042" lon="7.9631864"><ele>248.00000000000003</ele><time>2026-04-08T10:47:41.97Z</time></trkpt><trkpt lat="44.7669843" lon="7.9631646"><ele>248.0</ele><time>2026-04-08T10:47:42.97Z</time></trkpt><trkpt lat="44.7670646" lon="7.9631301"><ele>251.33333333333334</ele><time>2026-04-08T10:47:43.97Z</time></trkpt><trkpt lat="44.7671311" lon="7.963094"><ele>254.66666666666669</ele><time>2026-04-08T10:47:44.97Z</time></trkpt><trkpt lat="44.7671923" lon="7.9630562"><ele>258.0</ele><time>2026-04-08T10:47:45.97Z</time></trkpt><trkpt lat="44.7672983" lon="7.9630994"><ele>261.3333333333333</ele><time>2026-04-08T10:47:47.97Z</time></trkpt><trkpt lat="44.7673424" lon="7.9631675"><ele>264.66666666666663</ele><time>2026-04-08T10:47:48.97Z</time></trkpt><trkpt lat="44.7673835" lon="7.9632648"><ele>268.0</ele><time>2026-04-08T10:47:49.97Z</time></trkpt><trkpt lat="44.7674115" lon="7.9633633"><ele>268.6</ele><time>2026-04-08T10:47:50.97Z</time></trkpt><trkpt lat="44.7674464" lon="7.9634584"><ele>269.20000000000005</ele><time>2026-04-08T10:47:51.97Z</time></trkpt><trkpt lat="44.7674822" lon="7.9635407"><ele>269.8</ele><time>2026-04-08T10:47:52.97Z</time></trkpt><trkpt lat="44.7675559" lon="7.963678"><ele>270.40000000000003</ele><time>2026-04-08T10:47:54.97Z</time></trkpt><trkpt lat="44.7676755" lon="7.9637731"><ele>271.0</ele><time>2026-04-08T10:47:56.97Z</time></trkpt><trkpt lat="44.7677514" lon="7.9638215"><ele>271.0</ele><time>2026-04-08T10:47:57.97Z</time></trkpt><trkpt lat="44.7678285" lon="7.9638812"><ele>271.0</ele><time>2026-04-08T10:47:58.97Z</time></trkpt><trkpt lat="44.767907" lon="7.9639361"><ele>271.0</ele><time>2026-04-08T10:47:59.97Z</time></trkpt><trkpt lat="44.7679894" lon="7.9639962"><ele>271.0</ele><time>2026-04-08T10:48:00.97Z</time></trkpt><trkpt lat="44.7680698" lon="7.9640626"><ele>271.0</ele><time>2026-04-08T10:48:01.97Z</time></trkpt><trkpt lat="44.7681458" lon="7.9641275"><ele>268.8</ele><time>2026-04-08T10:48:02.97Z</time></trkpt><trkpt lat="44.7682282" lon="7.9641982"><ele>266.6</ele><time>2026-04-08T10:48:03.97Z</time></trkpt><trkpt lat="44.7683053" lon="7.9642729"><ele>264.4</ele><time>2026-04-08T10:48:04.97Z</time></trkpt><trkpt lat="44.7683799" lon="7.9643509"><ele>262.2</ele><time>2026-04-08T10:48:05.97Z</time></trkpt><trkpt lat="44.7684549" lon="7.964424"><ele>260.0</ele><time>2026-04-08T10:48:06.97Z</time></trkpt><trkpt lat="44.7685238" lon="7.9645094"><ele>261.0</ele><time>2026-04-08T10:48:07.97Z</time></trkpt><trkpt lat="44.7685942" lon="7.9645904"><ele>262.0</ele><time>2026-04-08T10:48:08.97Z</time></trkpt><trkpt lat="44.7686707" lon="7.9646763"><ele>263.0</ele><time>2026-04-08T10:48:09.97Z</time></trkpt><trkpt lat="44.7687347" lon="7.9647509"><ele>264.0</ele><time>2026-04-08T10:48:10.97Z</time></trkpt><trkpt lat="44.7687969" lon="7.9648248"><ele>265.0</ele><time>2026-04-08T10:48:11.97Z</time></trkpt><trkpt lat="44.7688528" lon="7.9649082"><ele>266.0</ele><time>2026-04-08T10:48:12.97Z</time></trkpt><trkpt lat="44.7688978" lon="7.9649918"><ele>266.8</ele><time>2026-04-08T10:48:13.97Z</time></trkpt><trkpt lat="44.7689376" lon="7.965081"><ele>267.6</ele><time>2026-04-08T10:48:14.97Z</time></trkpt><trkpt lat="44.7689822" lon="7.9652038"><ele>268.4</ele><time>2026-04-08T10:48:15.97Z</time></trkpt><trkpt lat="44.7690336" lon="7.9653293"><ele>269.2</ele><time>2026-04-08T10:48:16.97Z</time></trkpt><trkpt lat="44.7690835" lon="7.965454"><ele>270.0</ele><time>2026-04-08T10:48:17.97Z</time></trkpt><trkpt lat="44.7691342" lon="7.9655825"><ele>270.0</ele><time>2026-04-08T10:48:18.97Z</time></trkpt><trkpt lat="44.7691817" lon="7.9656986"><ele>270.0</ele><time>2026-04-08T10:48:19.97Z</time></trkpt><trkpt lat="44.7692344" lon="7.9658107"><ele>270.0</ele><time>2026-04-08T10:48:20.97Z</time></trkpt><trkpt lat="44.769284" lon="7.9659054"><ele>270.0</ele><time>2026-04-08T10:48:21.97Z</time></trkpt><trkpt lat="44.7693364" lon="7.965978"><ele>270.0</ele><time>2026-04-08T10:48:22.97Z</time></trkpt><trkpt lat="44.769382" lon="7.9660517"><ele>270.0</ele><time>2026-04-08T10:48:23.97Z</time></trkpt><trkpt lat="44.7694296" lon="7.966135"><ele>270.1666666666667</ele><time>2026-04-08T10:48:24.97Z</time></trkpt><trkpt lat="44.7694733" lon="7.9662255"><ele>270.3333333333333</ele><time>2026-04-08T10:48:25.97Z</time></trkpt><trkpt lat="44.7695124" lon="7.9663411"><ele>270.5</ele><time>2026-04-08T10:48:26.97Z</time></trkpt><trkpt lat="44.7695409" lon="7.9664631"><ele>270.66666666666663</ele><time>2026-04-08T10:48:27.97Z</time></trkpt><trkpt lat="44.7695692" lon="7.9665837"><ele>270.8333333333333</ele><time>2026-04-08T10:48:28.97Z</time></trkpt><trkpt lat="44.7695929" lon="7.9667002"><ele>271.0</ele><time>2026-04-08T10:48:29.97Z</time></trkpt><trkpt lat="44.769624" lon="7.9668022"><ele>271.0</ele><time>2026-04-08T10:48:30.97Z</time></trkpt><trkpt lat="44.7696546" lon="7.966914"><ele>271.0</ele><time>2026-04-08T10:48:31.97Z</time></trkpt><trkpt lat="44.7696926" lon="7.9670168"><ele>271.0</ele><time>2026-04-08T10:48:32.97Z</time></trkpt><trkpt lat="44.7697439" lon="7.9671114"><ele>271.0</ele><time>2026-04-08T10:48:33.97Z</time></trkpt><trkpt lat="44.7698021" lon="7.9671818"><ele>271.0</ele><time>2026-04-08T10:48:34.97Z</time></trkpt><trkpt lat="44.7698486" lon="7.9672444"><ele>271.0</ele><time>2026-04-08T10:48:35.97Z</time></trkpt><trkpt lat="44.7699204" lon="7.9673202"><ele>271.0</ele><time>2026-04-08T10:48:37.97Z</time></trkpt><trkpt lat="44.7699844" lon="7.9673659"><ele>271.0</ele><time>2026-04-08T10:48:39.97Z</time></trkpt><trkpt lat="44.77006" lon="7.9674347"><ele>271.0</ele><time>2026-04-08T10:48:41.97Z</time></trkpt><trkpt lat="44.7701209" lon="7.9675707"><ele>271.0</ele><time>2026-04-08T10:48:43.97Z</time></trkpt><trkpt lat="44.7701479" lon="7.9676572"><ele>271.0</ele><time>2026-04-08T10:48:44.97Z</time></trkpt><trkpt lat="44.770162" lon="7.9677526"><ele>271.0</ele><time>2026-04-08T10:48:45.97Z</time></trkpt><trkpt lat="44.7701882" lon="7.9678453"><ele>271.0</ele><time>2026-04-08T10:48:46.97Z</time></trkpt><trkpt lat="44.7702293" lon="7.9679389"><ele>271.0</ele><time>2026-04-08T10:48:47.97Z</time></trkpt><trkpt lat="44.7702734" lon="7.9680238"><ele>271.0</ele><time>2026-04-08T10:48:48.97Z</time></trkpt><trkpt lat="44.7703157" lon="7.9681108"><ele>271.0</ele><time>2026-04-08T10:48:49.97Z</time></trkpt><trkpt lat="44.7703577" lon="7.9682128"><ele>271.0</ele><time>2026-04-08T10:48:50.97Z</time></trkpt><trkpt lat="44.7704001" lon="7.9683214"><ele>271.0</ele><time>2026-04-08T10:48:51.97Z</time></trkpt><trkpt lat="44.7704371" lon="7.9684338"><ele>269.66666666666663</ele><time>2026-04-08T10:48:52.97Z</time></trkpt><trkpt lat="44.7704682" lon="7.9685535"><ele>268.3333333333333</ele><time>2026-04-08T10:48:53.97Z</time></trkpt><trkpt lat="44.7704979" lon="7.9686681"><ele>267.0</ele><time>2026-04-08T10:48:54.97Z</time></trkpt><trkpt lat="44.7705246" lon="7.9687686"><ele>265.6666666666667</ele><time>2026-04-08T10:48:55.97Z</time></trkpt><trkpt lat="44.7705538" lon="7.9688739"><ele>264.33333333333337</ele><time>2026-04-08T10:48:56.97Z</time></trkpt><trkpt lat="44.7705906" lon="7.9689656"><ele>263.0</ele><time>2026-04-08T10:48:57.97Z</time></trkpt><trkpt lat="44.7706292" lon="7.9690582"><ele>263.0</ele><time>2026-04-08T10:48:58.97Z</time></trkpt><trkpt lat="44.7706662" lon="7.9691492"><ele>263.0</ele><time>2026-04-08T10:48:59.97Z</time></trkpt><trkpt lat="44.7706938" lon="7.969244"><ele>263.0</ele><time>2026-04-08T10:49:00.97Z</time></trkpt><trkpt lat="44.7707389" lon="7.9693332"><ele>263.0</ele><time>2026-04-08T10:49:01.97Z</time></trkpt><trkpt lat="44.7707876" lon="7.9694189"><ele>263.0</ele><time>2026-04-08T10:49:02.97Z</time></trkpt><trkpt lat="44.7708409" lon="7.9694851"><ele>263.0</ele><time>2026-04-08T10:49:03.97Z</time></trkpt><trkpt lat="44.7708863" lon="7.9695532"><ele>263.0</ele><time>2026-04-08T10:49:04.97Z</time></trkpt><trkpt lat="44.7709325" lon="7.9696145"><ele>263.0</ele><time>2026-04-08T10:49:05.97Z</time></trkpt><trkpt lat="44.7709886" lon="7.9696625"><ele>263.0</ele><time>2026-04-08T10:49:06.97Z</time></trkpt><trkpt lat="44.7710957" lon="7.9697231"><ele>263.0</ele><time>2026-04-08T10:49:08.97Z</time></trkpt><trkpt lat="44.7711798" lon="7.969763"><ele>263.0</ele><time>2026-04-08T10:49:10.97Z</time></trkpt><trkpt lat="44.7712553" lon="7.9697763"><ele>263.0</ele><time>2026-04-08T10:49:12.97Z</time></trkpt><trkpt lat="44.7713305" lon="7.9697261"><ele>263.0</ele><time>2026-04-08T10:49:14.97Z</time></trkpt><trkpt lat="44.7714386" lon="7.9696442"><ele>262.0</ele><time>2026-04-08T10:49:16.97Z</time></trkpt><trkpt lat="44.7715029" lon="7.9695751"><ele>261.0</ele><time>2026-04-08T10:49:17.97Z</time></trkpt><trkpt lat="44.7715653" lon="7.9695111"><ele>260.0</ele><time>2026-04-08T10:49:18.97Z</time></trkpt><trkpt lat="44.7716354" lon="7.9694444"><ele>259.0</ele><time>2026-04-08T10:49:19.97Z</time></trkpt><trkpt lat="44.7716976" lon="7.9693781"><ele>258.0</ele><time>2026-04-08T10:49:20.97Z</time></trkpt><trkpt lat="44.7717526" lon="7.9692922"><ele>257.0</ele><time>2026-04-08T10:49:21.97Z</time></trkpt><trkpt lat="44.7717998" lon="7.9691984"><ele>257.83333333333337</ele><time>2026-04-08T10:49:22.97Z</time></trkpt><trkpt lat="44.7718464" lon="7.969114"><ele>258.6666666666667</ele><time>2026-04-08T10:49:23.97Z</time></trkpt><trkpt lat="44.7718812" lon="7.9690257"><ele>259.5</ele><time>2026-04-08T10:49:24.97Z</time></trkpt><trkpt lat="44.7719215" lon="7.9689302"><ele>260.3333333333333</ele><time>2026-04-08T10:49:25.97Z</time></trkpt><trkpt lat="44.7719595" lon="7.9688455"><ele>261.16666666666663</ele><time>2026-04-08T10:49:26.97Z</time></trkpt><trkpt lat="44.7720021" lon="7.9687466"><ele>262.0</ele><time>2026-04-08T10:49:27.97Z</time></trkpt><trkpt lat="44.7720553" lon="7.9686531"><ele>259.66666666666663</ele><time>2026-04-08T10:49:28.97Z</time></trkpt><trkpt lat="44.7721022" lon="7.9685595"><ele>257.3333333333333</ele><time>2026-04-08T10:49:29.97Z</time></trkpt><trkpt lat="44.7721507" lon="7.968467"><ele>255.0</ele><time>2026-04-08T10:49:30.97Z</time></trkpt><trkpt lat="44.7721913" lon="7.9683751"><ele>252.66666666666669</ele><time>2026-04-08T10:49:31.97Z</time></trkpt><trkpt lat="44.7722401" lon="7.968289"><ele>250.33333333333334</ele><time>2026-04-08T10:49:32.97Z</time></trkpt><trkpt lat="44.7722858" lon="7.9682248"><ele>248.0</ele><time>2026-04-08T10:49:33.97Z</time></trkpt><trkpt lat="44.7723686" lon="7.9681446"><ele>248.0</ele><time>2026-04-08T10:49:35.97Z</time></trkpt><trkpt lat="44.7722894" lon="7.9681758"><ele>248.0</ele><time>2026-04-08T10:49:41.97Z</time></trkpt><trkpt lat="44.7722255" lon="7.9683193"><ele>248.0</ele><time>2026-04-08T10:49:43.97Z</time></trkpt><trkpt lat="44.7721811" lon="7.9684203"><ele>248.0</ele><time>2026-04-08T10:49:44.97Z</time></trkpt><trkpt lat="44.7721235" lon="7.9685295"><ele>248.0</ele><time>2026-04-08T10:49:45.97Z</time></trkpt><trkpt lat="44.7720724" lon="7.9686326"><ele>247.0</ele><time>2026-04-08T10:49:46.97Z</time></trkpt><trkpt lat="44.7720239" lon="7.968746"><ele>246.0</ele><time>2026-04-08T10:49:47.97Z</time></trkpt><trkpt lat="44.7719715" lon="7.9688697"><ele>245.0</ele><time>2026-04-08T10:49:48.97Z</time></trkpt><trkpt lat="44.7719121" lon="7.9689938"><ele>244.0</ele><time>2026-04-08T10:49:49.97Z</time></trkpt><trkpt lat="44.7718558" lon="7.9691064"><ele>243.0</ele><time>2026-04-08T10:49:50.97Z</time></trkpt><trkpt lat="44.7717953" lon="7.9692113"><ele>245.8</ele><time>2026-04-08T10:49:51.97Z</time></trkpt><trkpt lat="44.7717317" lon="7.9693109"><ele>248.60000000000002</ele><time>2026-04-08T10:49:52.97Z</time></trkpt><trkpt lat="44.771656" lon="7.9693978"><ele>251.39999999999998</ele><time>2026-04-08T10:49:53.97Z</time></trkpt><trkpt lat="44.7715712" lon="7.9694833"><ele>254.2</ele><time>2026-04-08T10:49:54.97Z</time></trkpt><trkpt lat="44.7714822" lon="7.9695681"><ele>257.0</ele><time>2026-04-08T10:49:55.97Z</time></trkpt><trkpt lat="44.7714034" lon="7.9696472"><ele>257.0</ele><time>2026-04-08T10:49:56.97Z</time></trkpt><trkpt lat="44.7713361" lon="7.969709"><ele>257.0</ele><time>2026-04-08T10:49:57.97Z</time></trkpt><trkpt lat="44.7712413" lon="7.9697844"><ele>257.0</ele><time>2026-04-08T10:49:59.97Z</time></trkpt><trkpt lat="44.7712128" lon="7.969907"><ele>257.0</ele><time>2026-04-08T10:50:01.97Z</time></trkpt><trkpt lat="44.771225" lon="7.9699961"><ele>257.0</ele><time>2026-04-08T10:50:02.97Z</time></trkpt><trkpt lat="44.7712538" lon="7.9700999"><ele>257.0</ele><time>2026-04-08T10:50:03.97Z</time></trkpt><trkpt lat="44.7712922" lon="7.9702002"><ele>258.6</ele><time>2026-04-08T10:50:04.97Z</time></trkpt><trkpt lat="44.7713502" lon="7.9702828"><ele>260.2</ele><time>2026-04-08T10:50:05.97Z</time></trkpt><trkpt lat="44.7714318" lon="7.9703654"><ele>261.8</ele><time>2026-04-08T10:50:06.97Z</time></trkpt><trkpt lat="44.771512" lon="7.9704749"><ele>263.4</ele><time>2026-04-08T10:50:07.97Z</time></trkpt><trkpt lat="44.771584" lon="7.9706114"><ele>265.0</ele><time>2026-04-08T10:50:08.97Z</time></trkpt><trkpt lat="44.7716559" lon="7.9707483"><ele>264.0</ele><time>2026-04-08T10:50:09.97Z</time></trkpt><trkpt lat="44.7717224" lon="7.9708821"><ele>263.0</ele><time>2026-04-08T10:50:10.97Z</time></trkpt><trkpt lat="44.7717957" lon="7.9710192"><ele>262.0</ele><time>2026-04-08T10:50:11.97Z</time></trkpt><trkpt lat="44.7718575" lon="7.9711599"><ele>261.0</ele><time>2026-04-08T10:50:12.97Z</time></trkpt><trkpt lat="44.7719126" lon="7.9713135"><ele>261.0</ele><time>2026-04-08T10:50:13.97Z</time></trkpt><trkpt lat="44.7719667" lon="7.9714764"><ele>261.0</ele><time>2026-04-08T10:50:14.97Z</time></trkpt><trkpt lat="44.7720166" lon="7.9716339"><ele>261.0</ele><time>2026-04-08T10:50:15.97Z</time></trkpt><trkpt lat="44.772083" lon="7.9717946"><ele>261.0</ele><time>2026-04-08T10:50:16.97Z</time></trkpt><trkpt lat="44.7721524" lon="7.9719361"><ele>262.40000000000003</ele><time>2026-04-08T10:50:17.97Z</time></trkpt><trkpt lat="44.7722288" lon="7.9720641"><ele>263.8</ele><time>2026-04-08T10:50:18.97Z</time></trkpt><trkpt lat="44.772297" lon="7.9721722"><ele>265.20000000000005</ele><time>2026-04-08T10:50:19.97Z</time></trkpt><trkpt lat="44.7723581" lon="7.9722721"><ele>266.6</ele><time>2026-04-08T10:50:20.97Z</time></trkpt><trkpt lat="44.7724074" lon="7.9723793"><ele>268.0</ele><time>2026-04-08T10:50:21.97Z</time></trkpt><trkpt lat="44.7724412" lon="7.9724919"><ele>268.3333333333333</ele><time>2026-04-08T10:50:22.97Z</time></trkpt><trkpt lat="44.7724607" lon="7.9726075"><ele>268.66666666666663</ele><time>2026-04-08T10:50:23.97Z</time></trkpt><trkpt lat="44.7724749" lon="7.9727095"><ele>269.0</ele><time>2026-04-08T10:50:24.97Z</time></trkpt><trkpt lat="44.7724862" lon="7.9727981"><ele>269.3333333333333</ele><time>2026-04-08T10:50:25.97Z</time></trkpt><trkpt lat="44.7725059" lon="7.9729307"><ele>269.6666666666667</ele><time>2026-04-08T10:50:27.97Z</time></trkpt><trkpt lat="44.7725287" lon="7.9730449"><ele>270.0</ele><time>2026-04-08T10:50:29.97Z</time></trkpt><trkpt lat="44.7725766" lon="7.9731739"><ele>270.0</ele><time>2026-04-08T10:50:31.97Z</time></trkpt><trkpt lat="44.7726079" lon="7.9732625"><ele>270.0</ele><time>2026-04-08T10:50:32.97Z</time></trkpt><trkpt lat="44.7726234" lon="7.9733561"><ele>270.0</ele><time>2026-04-08T10:50:33.97Z</time></trkpt><trkpt lat="44.7726267" lon="7.9734544"><ele>270.0</ele><time>2026-04-08T10:50:34.97Z</time></trkpt><trkpt lat="44.7726246" lon="7.9735548"><ele>270.0</ele><time>2026-04-08T10:50:35.97Z</time></trkpt><trkpt lat="44.7726231" lon="7.9736533"><ele>270.0</ele><time>2026-04-08T10:50:36.97Z</time></trkpt><trkpt lat="44.7726207" lon="7.9737541"><ele>270.0</ele><time>2026-04-08T10:50:37.97Z</time></trkpt><trkpt lat="44.7726293" lon="7.9738582"><ele>269.5</ele><time>2026-04-08T10:50:38.97Z</time></trkpt><trkpt lat="44.7726387" lon="7.973958"><ele>269.0</ele><time>2026-04-08T10:50:39.97Z</time></trkpt><trkpt lat="44.772654" lon="7.9740642"><ele>268.5</ele><time>2026-04-08T10:50:40.97Z</time></trkpt><trkpt lat="44.7726654" lon="7.9741734"><ele>268.0</ele><time>2026-04-08T10:50:41.97Z</time></trkpt><trkpt lat="44.7726787" lon="7.9742857"><ele>267.5</ele><time>2026-04-08T10:50:42.97Z</time></trkpt><trkpt lat="44.7726898" lon="7.9743927"><ele>267.0</ele><time>2026-04-08T10:50:43.97Z</time></trkpt><trkpt lat="44.7727086" lon="7.9744983"><ele>266.5</ele><time>2026-04-08T10:50:44.97Z</time></trkpt><trkpt lat="44.7727038" lon="7.9745991"><ele>266.0</ele><time>2026-04-08T10:50:45.97Z</time></trkpt><trkpt lat="44.7726981" lon="7.9746961"><ele>265.5</ele><time>2026-04-08T10:50:46.97Z</time></trkpt><trkpt lat="44.7727222" lon="7.9748469"><ele>265.0</ele><time>2026-04-08T10:50:48.97Z</time></trkpt><trkpt lat="44.772814" lon="7.974932"><ele>264.5</ele><time>2026-04-08T10:50:50.97Z</time></trkpt><trkpt lat="44.7728734" lon="7.9749633"><ele>264.0</ele><time>2026-04-08T10:50:51.97Z</time></trkpt><trkpt lat="44.7729526" lon="7.9750128"><ele>265.6666666666667</ele><time>2026-04-08T10:50:52.97Z</time></trkpt><trkpt lat="44.7730259" lon="7.9750566"><ele>267.3333333333333</ele><time>2026-04-08T10:50:53.97Z</time></trkpt><trkpt lat="44.7731029" lon="7.9751014"><ele>269.0</ele><time>2026-04-08T10:50:54.97Z</time></trkpt><trkpt lat="44.7731874" lon="7.9751518"><ele>270.66666666666663</ele><time>2026-04-08T10:50:55.97Z</time></trkpt><trkpt lat="44.7732445" lon="7.9751946"><ele>272.3333333333333</ele><time>2026-04-08T10:50:56.97Z</time></trkpt><trkpt lat="44.7732748" lon="7.9753661"><ele>274.0</ele><time>2026-04-08T10:50:58.97Z</time></trkpt><trkpt lat="44.7732451" lon="7.9754687"><ele>274.0</ele><time>2026-04-08T10:50:59.97Z</time></trkpt><trkpt lat="44.7732033" lon="7.9755728"><ele>274.0</ele><time>2026-04-08T10:51:00.97Z</time></trkpt><trkpt lat="44.7731652" lon="7.9756838"><ele>274.0</ele><time>2026-04-08T10:51:01.97Z</time></trkpt><trkpt lat="44.7731537" lon="7.9758207"><ele>274.0</ele><time>2026-04-08T10:51:02.97Z</time></trkpt><trkpt lat="44.7731893" lon="7.9759525"><ele>274.0</ele><time>2026-04-08T10:51:03.97Z</time></trkpt><trkpt lat="44.7732297" lon="7.9760814"><ele>273.2</ele><time>2026-04-08T10:51:04.97Z</time></trkpt><trkpt lat="44.77329" lon="7.9761974"><ele>272.4</ele><time>2026-04-08T10:51:05.97Z</time></trkpt><trkpt lat="44.7733566" lon="7.9763083"><ele>271.6</ele><time>2026-04-08T10:51:06.97Z</time></trkpt><trkpt lat="44.7734393" lon="7.9763835"><ele>270.8</ele><time>2026-04-08T10:51:07.97Z</time></trkpt><trkpt lat="44.7735297" lon="7.9764484"><ele>270.0</ele><time>2026-04-08T10:51:08.97Z</time></trkpt><trkpt lat="44.7736251" lon="7.9765177"><ele>268.4</ele><time>2026-04-08T10:51:09.97Z</time></trkpt><trkpt lat="44.7737262" lon="7.9765605"><ele>266.8</ele><time>2026-04-08T10:51:10.97Z</time></trkpt><trkpt lat="44.77382" lon="7.9766097"><ele>265.2</ele><time>2026-04-08T10:51:11.97Z</time></trkpt><trkpt lat="44.7739219" lon="7.9766512"><ele>263.6</ele><time>2026-04-08T10:51:12.97Z</time></trkpt><trkpt lat="44.7740153" lon="7.9767078"><ele>262.0</ele><time>2026-04-08T10:51:13.97Z</time></trkpt><trkpt lat="44.774113" lon="7.9767695"><ele>262.0</ele><time>2026-04-08T10:51:14.97Z</time></trkpt><trkpt lat="44.7742061" lon="7.9768463"><ele>262.0</ele><time>2026-04-08T10:51:15.97Z</time></trkpt><trkpt lat="44.7742903" lon="7.9769157"><ele>262.0</ele><time>2026-04-08T10:51:16.97Z</time></trkpt><trkpt lat="44.7743672" lon="7.9770027"><ele>262.0</ele><time>2026-04-08T10:51:17.97Z</time></trkpt><trkpt lat="44.7744255" lon="7.9770988"><ele>262.0</ele><time>2026-04-08T10:51:18.97Z</time></trkpt><trkpt lat="44.7744849" lon="7.9771834"><ele>265.2</ele><time>2026-04-08T10:51:19.97Z</time></trkpt><trkpt lat="44.7745614" lon="7.9772517"><ele>268.4</ele><time>2026-04-08T10:51:20.97Z</time></trkpt><trkpt lat="44.7746453" lon="7.9773083"><ele>271.6</ele><time>2026-04-08T10:51:21.97Z</time></trkpt><trkpt lat="44.7747343" lon="7.9773743"><ele>274.8</ele><time>2026-04-08T10:51:22.97Z</time></trkpt><trkpt lat="44.7748255" lon="7.9774316"><ele>278.0</ele><time>2026-04-08T10:51:23.97Z</time></trkpt><trkpt lat="44.7749063" lon="7.9775009"><ele>275.8</ele><time>2026-04-08T10:51:24.97Z</time></trkpt><trkpt lat="44.7749675" lon="7.9775828"><ele>273.6</ele><time>2026-04-08T10:51:25.97Z</time></trkpt><trkpt lat="44.7750184" lon="7.9776759"><ele>271.4</ele><time>2026-04-08T10:51:26.97Z</time></trkpt><trkpt lat="44.7750759" lon="7.9777992"><ele>269.2</ele><time>2026-04-08T10:51:27.97Z</time></trkpt><trkpt lat="44.7751334" lon="7.9779199"><ele>267.0</ele><time>2026-04-08T10:51:28.97Z</time></trkpt><trkpt lat="44.7751931" lon="7.9780257"><ele>266.5</ele><time>2026-04-08T10:51:29.97Z</time></trkpt><trkpt lat="44.7752466" lon="7.9781278"><ele>266.0</ele><time>2026-04-08T10:51:30.97Z</time></trkpt><trkpt lat="44.77529" lon="7.978201"><ele>265.5</ele><time>2026-04-08T10:51:31.97Z</time></trkpt><trkpt lat="44.7753512" lon="7.9783016"><ele>265.0</ele><time>2026-04-08T10:51:33.97Z</time></trkpt><trkpt lat="44.7753944" lon="7.9784092"><ele>264.5</ele><time>2026-04-08T10:51:35.97Z</time></trkpt><trkpt lat="44.7754141" lon="7.9785382"><ele>264.0</ele><time>2026-04-08T10:51:37.97Z</time></trkpt><trkpt lat="44.7754215" lon="7.9787153"><ele>264.3333333333333</ele><time>2026-04-08T10:51:39.97Z</time></trkpt><trkpt lat="44.7754162" lon="7.9788147"><ele>264.6666666666667</ele><time>2026-04-08T10:51:40.97Z</time></trkpt><trkpt lat="44.775429" lon="7.9789075"><ele>265.0</ele><time>2026-04-08T10:51:41.97Z</time></trkpt><trkpt lat="44.7754529" lon="7.9790065"><ele>265.33333333333337</ele><time>2026-04-08T10:51:42.97Z</time></trkpt><trkpt lat="44.7754839" lon="7.9791097"><ele>265.6666666666667</ele><time>2026-04-08T10:51:43.97Z</time></trkpt><trkpt lat="44.7755241" lon="7.9792073"><ele>266.0</ele><time>2026-04-08T10:51:44.97Z</time></trkpt><trkpt lat="44.7755737" lon="7.9793023"><ele>266.0</ele><time>2026-04-08T10:51:45.97Z</time></trkpt><trkpt lat="44.7756249" lon="7.979407"><ele>266.0</ele><time>2026-04-08T10:51:46.97Z</time></trkpt><trkpt lat="44.7756847" lon="7.9795213"><ele>266.0</ele><time>2026-04-08T10:51:47.97Z</time></trkpt><trkpt lat="44.7757411" lon="7.9796437"><ele>266.0</ele><time>2026-04-08T10:51:48.97Z</time></trkpt><trkpt lat="44.7758008" lon="7.9797605"><ele>266.0</ele><time>2026-04-08T10:51:49.97Z</time></trkpt><trkpt lat="44.7758583" lon="7.9798873"><ele>266.0</ele><time>2026-04-08T10:51:50.97Z</time></trkpt><trkpt lat="44.7759185" lon="7.980007"><ele>266.0</ele><time>2026-04-08T10:51:51.97Z</time></trkpt><trkpt lat="44.7759833" lon="7.9801253"><ele>266.0</ele><time>2026-04-08T10:51:52.97Z</time></trkpt><trkpt lat="44.7760422" lon="7.9802369"><ele>266.0</ele><time>2026-04-08T10:51:53.97Z</time></trkpt><trkpt lat="44.7760998" lon="7.9803363"><ele>266.0</ele><time>2026-04-08T10:51:54.97Z</time></trkpt><trkpt lat="44.7761502" lon="7.9804273"><ele>265.33333333333337</ele><time>2026-04-08T10:51:55.97Z</time></trkpt><trkpt lat="44.7761922" lon="7.9805111"><ele>264.6666666666667</ele><time>2026-04-08T10:51:56.97Z</time></trkpt><trkpt lat="44.7762224" lon="7.9805931"><ele>264.0</ele><time>2026-04-08T10:51:57.97Z</time></trkpt><trkpt lat="44.7762755" lon="7.9807202"><ele>263.3333333333333</ele><time>2026-04-08T10:51:59.97Z</time></trkpt><trkpt lat="44.7763239" lon="7.9807978"><ele>262.66666666666663</ele><time>2026-04-08T10:52:01.97Z</time></trkpt><trkpt lat="44.7763947" lon="7.980762"><ele>262.0</ele><time>2026-04-08T10:52:04.97Z</time></trkpt><trkpt lat="44.7763471" lon="7.9806813"><ele>262.0</ele><time>2026-04-08T10:52:21.97Z</time></trkpt><trkpt lat="44.7762694" lon="7.9806205"><ele>262.0</ele><time>2026-04-08T10:52:23.97Z</time></trkpt><trkpt lat="44.7761911" lon="7.9804922"><ele>262.0</ele><time>2026-04-08T10:52:25.97Z</time></trkpt><trkpt lat="44.7761504" lon="7.9804155"><ele>262.0</ele><time>2026-04-08T10:52:26.97Z</time></trkpt><trkpt lat="44.7761109" lon="7.9803457"><ele>262.0</ele><time>2026-04-08T10:52:27.97Z</time></trkpt><trkpt lat="44.7760712" lon="7.9802763"><ele>262.0</ele><time>2026-04-08T10:52:28.97Z</time></trkpt><trkpt lat="44.7760032" lon="7.9801368"><ele>262.8</ele><time>2026-04-08T10:52:30.97Z</time></trkpt><trkpt lat="44.7759371" lon="7.9800155"><ele>263.6</ele><time>2026-04-08T10:52:32.97Z</time></trkpt><trkpt lat="44.7758621" lon="7.9798803"><ele>264.40000000000003</ele><time>2026-04-08T10:52:34.97Z</time></trkpt><trkpt lat="44.7758253" lon="7.9797991"><ele>265.2</ele><time>2026-04-08T10:52:35.97Z</time></trkpt><trkpt lat="44.775785" lon="7.9797075"><ele>266.0</ele><time>2026-04-08T10:52:36.97Z</time></trkpt><trkpt lat="44.77574" lon="7.9796181"><ele>266.0</ele><time>2026-04-08T10:52:37.97Z</time></trkpt><trkpt lat="44.7756956" lon="7.9795364"><ele>266.0</ele><time>2026-04-08T10:52:38.97Z</time></trkpt><trkpt lat="44.7756522" lon="7.9794473"><ele>266.0</ele><time>2026-04-08T10:52:39.97Z</time></trkpt><trkpt lat="44.7756121" lon="7.9793681"><ele>266.0</ele><time>2026-04-08T10:52:40.97Z</time></trkpt><trkpt lat="44.7755439" lon="7.9792218"><ele>266.0</ele><time>2026-04-08T10:52:42.97Z</time></trkpt><trkpt lat="44.7754818" lon="7.9790717"><ele>265.0</ele><time>2026-04-08T10:52:44.97Z</time></trkpt><trkpt lat="44.7754409" lon="7.9789473"><ele>264.0</ele><time>2026-04-08T10:52:46.97Z</time></trkpt><trkpt lat="44.7754059" lon="7.9788507"><ele>263.0</ele><time>2026-04-08T10:52:48.97Z</time></trkpt><trkpt lat="44.7753181" lon="7.9788669"><ele>262.0</ele><time>2026-04-08T10:52:51.97Z</time></trkpt><trkpt lat="44.7753145" lon="7.9789585"><ele>261.0</ele><time>2026-04-08T10:52:54.97Z</time></trkpt><trkpt lat="44.7753616" lon="7.9788365"><ele>260.0</ele><time>2026-04-08T10:52:57.97Z</time></trkpt><trkpt lat="44.7753853" lon="7.978709"><ele>260.0</ele><time>2026-04-08T10:52:59.97Z</time></trkpt><trkpt lat="44.7753973" lon="7.9785497"><ele>260.0</ele><time>2026-04-08T10:53:01.97Z</time></trkpt><trkpt lat="44.7754134" lon="7.9783848"><ele>260.0</ele><time>2026-04-08T10:53:03.97Z</time></trkpt><trkpt lat="44.7754373" lon="7.9782984"><ele>260.0</ele><time>2026-04-08T10:53:04.97Z</time></trkpt><trkpt lat="44.7754687" lon="7.9782137"><ele>260.0</ele><time>2026-04-08T10:53:05.97Z</time></trkpt><trkpt lat="44.7755058" lon="7.9781219"><ele>260.0</ele><time>2026-04-08T10:53:06.97Z</time></trkpt><trkpt lat="44.7755382" lon="7.9780417"><ele>260.6666666666667</ele><time>2026-04-08T10:53:07.97Z</time></trkpt><trkpt lat="44.775564" lon="7.9779577"><ele>261.33333333333337</ele><time>2026-04-08T10:53:08.97Z</time></trkpt><trkpt lat="44.7755905" lon="7.9778726"><ele>262.0</ele><time>2026-04-08T10:53:09.97Z</time></trkpt><trkpt lat="44.7756202" lon="7.977789"><ele>262.6666666666667</ele><time>2026-04-08T10:53:10.97Z</time></trkpt><trkpt lat="44.7756609" lon="7.9777035"><ele>263.3333333333333</ele><time>2026-04-08T10:53:11.97Z</time></trkpt><trkpt lat="44.7756995" lon="7.9776196"><ele>264.0</ele><time>2026-04-08T10:53:12.97Z</time></trkpt><trkpt lat="44.7757359" lon="7.9774719"><ele>265.1666666666667</ele><time>2026-04-08T10:53:14.97Z</time></trkpt><trkpt lat="44.7757206" lon="7.977327"><ele>266.3333333333333</ele><time>2026-04-08T10:53:16.97Z</time></trkpt><trkpt lat="44.7757029" lon="7.9772366"><ele>267.5</ele><time>2026-04-08T10:53:17.97Z</time></trkpt><trkpt lat="44.7756854" lon="7.9771412"><ele>268.66666666666663</ele><time>2026-04-08T10:53:18.97Z</time></trkpt><trkpt lat="44.7756665" lon="7.9770414"><ele>269.8333333333333</ele><time>2026-04-08T10:53:19.97Z</time></trkpt><trkpt lat="44.7756487" lon="7.976936"><ele>271.0</ele><time>2026-04-08T10:53:20.97Z</time></trkpt><trkpt lat="44.7756379" lon="7.9768125"><ele>271.16666666666663</ele><time>2026-04-08T10:53:21.97Z</time></trkpt><trkpt lat="44.7756321" lon="7.9766853"><ele>271.3333333333333</ele><time>2026-04-08T10:53:22.97Z</time></trkpt><trkpt lat="44.7756372" lon="7.9765751"><ele>271.5</ele><time>2026-04-08T10:53:23.97Z</time></trkpt><trkpt lat="44.7756301" lon="7.976468"><ele>271.6666666666667</ele><time>2026-04-08T10:53:24.97Z</time></trkpt><trkpt lat="44.7756193" lon="7.9763756"><ele>271.83333333333337</ele><time>2026-04-08T10:53:25.97Z</time></trkpt><trkpt lat="44.7755862" lon="7.9762974"><ele>272.0</ele><time>2026-04-08T10:53:27.97Z</time></trkpt><trkpt lat="44.7756116" lon="7.9764154"><ele>272.0</ele><time>2026-04-08T10:53:31.97Z</time></trkpt><trkpt lat="44.7756319" lon="7.9765464"><ele>272.0</ele><time>2026-04-08T10:53:33.97Z</time></trkpt><trkpt lat="44.7756424" lon="7.9767269"><ele>272.0</ele><time>2026-04-08T10:53:35.97Z</time></trkpt><trkpt lat="44.7756528" lon="7.9768311"><ele>272.0</ele><time>2026-04-08T10:53:36.97Z</time></trkpt><trkpt lat="44.775673" lon="7.9769258"><ele>272.0</ele><time>2026-04-08T10:53:37.97Z</time></trkpt><trkpt lat="44.7756885" lon="7.9770354"><ele>272.0</ele><time>2026-04-08T10:53:38.97Z</time></trkpt><trkpt lat="44.7757049" lon="7.9771441"><ele>271.83333333333337</ele><time>2026-04-08T10:53:39.97Z</time></trkpt><trkpt lat="44.7757237" lon="7.9772521"><ele>271.6666666666667</ele><time>2026-04-08T10:53:40.97Z</time></trkpt><trkpt lat="44.7757372" lon="7.9773569"><ele>271.5</ele><time>2026-04-08T10:53:41.97Z</time></trkpt><trkpt lat="44.7757291" lon="7.9774622"><ele>271.3333333333333</ele><time>2026-04-08T10:53:42.97Z</time></trkpt><trkpt lat="44.77571" lon="7.9775659"><ele>271.16666666666663</ele><time>2026-04-08T10:53:43.97Z</time></trkpt><trkpt lat="44.77568" lon="7.977661"><ele>271.0</ele><time>2026-04-08T10:53:44.97Z</time></trkpt><trkpt lat="44.7756384" lon="7.9777553"><ele>269.6</ele><time>2026-04-08T10:53:46.97Z</time></trkpt><trkpt lat="44.7755952" lon="7.9778607"><ele>268.20000000000005</ele><time>2026-04-08T10:53:56.97Z</time></trkpt><trkpt lat="44.775546" lon="7.9779894"><ele>266.79999999999995</ele><time>2026-04-08T10:53:58.969Z</time></trkpt><trkpt lat="44.775491" lon="7.9781547"><ele>265.4</ele><time>2026-04-08T10:54:00.97Z</time></trkpt><trkpt lat="44.7754637" lon="7.9782439"><ele>264.0</ele><time>2026-04-08T10:54:01.97Z</time></trkpt><trkpt lat="44.7754309" lon="7.9783276"><ele>263.2</ele><time>2026-04-08T10:54:02.97Z</time></trkpt><trkpt lat="44.7754105" lon="7.9784123"><ele>262.4</ele><time>2026-04-08T10:54:03.97Z</time></trkpt><trkpt lat="44.7753994" lon="7.9785784"><ele>261.6</ele><time>2026-04-08T10:54:05.97Z</time></trkpt><trkpt lat="44.7753854" lon="7.978747"><ele>260.8</ele><time>2026-04-08T10:54:07.97Z</time></trkpt><trkpt lat="44.775412" lon="7.9789182"><ele>260.0</ele><time>2026-04-08T10:54:09.97Z</time></trkpt><trkpt lat="44.775436" lon="7.9790051"><ele>260.0</ele><time>2026-04-08T10:54:10.97Z</time></trkpt><trkpt lat="44.7754683" lon="7.9790883"><ele>260.0</ele><time>2026-04-08T10:54:11.97Z</time></trkpt><trkpt lat="44.7754993" lon="7.9791687"><ele>260.0</ele><time>2026-04-08T10:54:12.97Z</time></trkpt><trkpt lat="44.7755327" lon="7.9792531"><ele>260.0</ele><time>2026-04-08T10:54:13.97Z</time></trkpt><trkpt lat="44.7755682" lon="7.9793313"><ele>260.0</ele><time>2026-04-08T10:54:14.97Z</time></trkpt><trkpt lat="44.775636" lon="7.9794666"><ele>260.0</ele><time>2026-04-08T10:54:16.97Z</time></trkpt><trkpt lat="44.7757041" lon="7.9795974"><ele>261.0</ele><time>2026-04-08T10:54:18.97Z</time></trkpt><trkpt lat="44.775743" lon="7.9796709"><ele>262.0</ele><time>2026-04-08T10:54:19.97Z</time></trkpt><trkpt lat="44.7758166" lon="7.9798125"><ele>263.0</ele><time>2026-04-08T10:54:21.97Z</time></trkpt><trkpt lat="44.7758575" lon="7.9798898"><ele>264.0</ele><time>2026-04-08T10:54:22.97Z</time></trkpt><trkpt lat="44.7758963" lon="7.9799664"><ele>265.0</ele><time>2026-04-08T10:54:23.97Z</time></trkpt><trkpt lat="44.7759345" lon="7.9800455"><ele>266.0</ele><time>2026-04-08T10:54:24.97Z</time></trkpt><trkpt lat="44.7759788" lon="7.9801232"><ele>265.33333333333337</ele><time>2026-04-08T10:54:25.97Z</time></trkpt><trkpt lat="44.7760208" lon="7.9801916"><ele>264.6666666666667</ele><time>2026-04-08T10:54:26.97Z</time></trkpt><trkpt lat="44.7760645" lon="7.9802651"><ele>264.0</ele><time>2026-04-08T10:54:27.97Z</time></trkpt><trkpt lat="44.7761039" lon="7.9803411"><ele>263.3333333333333</ele><time>2026-04-08T10:54:28.97Z</time></trkpt><trkpt lat="44.7761395" lon="7.9804143"><ele>262.66666666666663</ele><time>2026-04-08T10:54:29.97Z</time></trkpt><trkpt lat="44.776206" lon="7.9805468"><ele>262.0</ele><time>2026-04-08T10:54:31.97Z</time></trkpt><trkpt lat="44.7762579" lon="7.9806531"><ele>262.0</ele><time>2026-04-08T10:54:33.97Z</time></trkpt><trkpt lat="44.7763215" lon="7.9806534"><ele>262.0</ele><time>2026-04-08T10:54:35.97Z</time></trkpt><trkpt lat="44.7763166" lon="7.9805414"><ele>262.0</ele><time>2026-04-08T10:54:38.97Z</time></trkpt><trkpt lat="44.7762323" lon="7.9803761"><ele>262.0</ele><time>2026-04-08T10:54:41.97Z</time></trkpt><trkpt lat="44.7761817" lon="7.9802574"><ele>262.0</ele><time>2026-04-08T10:54:43.97Z</time></trkpt><trkpt lat="44.7761465" lon="7.9801531"><ele>262.0</ele><time>2026-04-08T10:54:45.97Z</time></trkpt><trkpt lat="44.776099" lon="7.9800467"><ele>262.0</ele><time>2026-04-08T10:54:47.97Z</time></trkpt><trkpt lat="44.7761049" lon="7.9799492"><ele>262.0</ele><time>2026-04-08T10:54:49.97Z</time></trkpt><trkpt lat="44.7760814" lon="7.9798664"><ele>262.0</ele><time>2026-04-08T10:54:52.97Z</time></trkpt><trkpt lat="44.7761686" lon="7.9798971"><ele>262.0</ele><time>2026-04-08T10:54:56.97Z</time></trkpt><trkpt lat="44.7762463" lon="7.9799778"><ele>262.0</ele><time>2026-04-08T10:54:58.97Z</time></trkpt><trkpt lat="44.7763084" lon="7.9800917"><ele>262.0</ele><time>2026-04-08T10:55:00.97Z</time></trkpt><trkpt lat="44.7764038" lon="7.9801777"><ele>262.0</ele><time>2026-04-08T10:55:02.97Z</time></trkpt><trkpt lat="44.7765056" lon="7.9801788"><ele>262.0</ele><time>2026-04-08T10:55:04.97Z</time></trkpt><trkpt lat="44.7765958" lon="7.980128"><ele>262.0</ele><time>2026-04-08T10:55:06.97Z</time></trkpt><trkpt lat="44.7766466" lon="7.9799984"><ele>262.0</ele><time>2026-04-08T10:55:08.97Z</time></trkpt><trkpt lat="44.7766967" lon="7.9798366"><ele>260.2</ele><time>2026-04-08T10:55:10.97Z</time></trkpt><trkpt lat="44.7767355" lon="7.9796987"><ele>258.4</ele><time>2026-04-08T10:55:12.97Z</time></trkpt><trkpt lat="44.7767723" lon="7.9795589"><ele>256.6</ele><time>2026-04-08T10:55:14.97Z</time></trkpt><trkpt lat="44.7768242" lon="7.9794618"><ele>254.8</ele><time>2026-04-08T10:55:16.97Z</time></trkpt><trkpt lat="44.7769169" lon="7.9794178"><ele>253.0</ele><time>2026-04-08T10:55:18.97Z</time></trkpt><trkpt lat="44.7770067" lon="7.9793551"><ele>248.2</ele><time>2026-04-08T10:55:20.97Z</time></trkpt><trkpt lat="44.7770048" lon="7.9791659"><ele>243.4</ele><time>2026-04-08T10:55:22.97Z</time></trkpt><trkpt lat="44.7769869" lon="7.9790488"><ele>238.59999999999997</ele><time>2026-04-08T10:55:23.97Z</time></trkpt><trkpt lat="44.7769847" lon="7.9789382"><ele>233.79999999999998</ele><time>2026-04-08T10:55:24.97Z</time></trkpt><trkpt lat="44.776973" lon="7.9788186"><ele>229.0</ele><time>2026-04-08T10:55:25.97Z</time></trkpt><trkpt lat="44.7769509" lon="7.978726"><ele>228.99999999999997</ele><time>2026-04-08T10:55:26.97Z</time></trkpt><trkpt lat="44.7769354" lon="7.9786344"><ele>229.0</ele><time>2026-04-08T10:55:27.97Z</time></trkpt><trkpt lat="44.7769495" lon="7.9785469"><ele>229.0</ele><time>2026-04-08T10:55:28.97Z</time></trkpt><trkpt lat="44.7769902" lon="7.9784692"><ele>229.0</ele><time>2026-04-08T10:55:29.97Z</time></trkpt><trkpt lat="44.7770931" lon="7.978391"><ele>228.99999999999997</ele><time>2026-04-08T10:55:31.97Z</time></trkpt><trkpt lat="44.7771781" lon="7.9783336"><ele>229.0</ele><time>2026-04-08T10:55:33.97Z</time></trkpt><trkpt lat="44.7772461" lon="7.978258"><ele>228.49999999999997</ele><time>2026-04-08T10:55:35.97Z</time></trkpt><trkpt lat="44.7772825" lon="7.9781772"><ele>228.0</ele><time>2026-04-08T10:55:37.97Z</time></trkpt><trkpt lat="44.777309" lon="7.9780879"><ele>227.5</ele><time>2026-04-08T10:55:39.97Z</time></trkpt><trkpt lat="44.7773508" lon="7.9779668"><ele>227.0</ele><time>2026-04-08T10:55:42.97Z</time></trkpt><trkpt lat="44.7774143" lon="7.9778605"><ele>226.49999999999997</ele><time>2026-04-08T10:55:44.97Z</time></trkpt><trkpt lat="44.7774771" lon="7.9777425"><ele>226.0</ele><time>2026-04-08T10:55:46.97Z</time></trkpt><trkpt lat="44.7775369" lon="7.977636"><ele>226.0</ele><time>2026-04-08T10:55:48.97Z</time></trkpt><trkpt lat="44.777592" lon="7.9775652"><ele>226.00000000000003</ele><time>2026-04-08T10:55:50.97Z</time></trkpt><trkpt lat="44.7776746" lon="7.977537"><ele>226.00000000000003</ele><time>2026-04-08T10:55:53.97Z</time></trkpt><trkpt lat="44.7777383" lon="7.9776318"><ele>226.0</ele><time>2026-04-08T10:55:55.97Z</time></trkpt><trkpt lat="44.7778108" lon="7.9777278"><ele>226.0</ele><time>2026-04-08T10:55:57.97Z</time></trkpt><trkpt lat="44.7778895" lon="7.9778461"><ele>225.99999999999997</ele><time>2026-04-08T10:55:59.97Z</time></trkpt><trkpt lat="44.7779441" lon="7.9779323"><ele>226.0</ele><time>2026-04-08T10:56:00.97Z</time></trkpt><trkpt lat="44.7780037" lon="7.9780256"><ele>226.0</ele><time>2026-04-08T10:56:01.97Z</time></trkpt><trkpt lat="44.7780521" lon="7.9781112"><ele>226.0</ele><time>2026-04-08T10:56:02.97Z</time></trkpt><trkpt lat="44.7780981" lon="7.9781884"><ele>225.99999999999997</ele><time>2026-04-08T10:56:03.97Z</time></trkpt><trkpt lat="44.7781485" lon="7.9782713"><ele>226.0</ele><time>2026-04-08T10:56:04.97Z</time></trkpt><trkpt lat="44.7781999" lon="7.9783671"><ele>225.4</ele><time>2026-04-08T10:56:05.97Z</time></trkpt><trkpt lat="44.7782569" lon="7.9784688"><ele>224.8</ele><time>2026-04-08T10:56:06.97Z</time></trkpt><trkpt lat="44.7783166" lon="7.9785803"><ele>224.20000000000002</ele><time>2026-04-08T10:56:07.97Z</time></trkpt><trkpt lat="44.7783726" lon="7.9786928"><ele>223.60000000000002</ele><time>2026-04-08T10:56:08.97Z</time></trkpt><trkpt lat="44.7784205" lon="7.9788147"><ele>223.0</ele><time>2026-04-08T10:56:09.97Z</time></trkpt><trkpt lat="44.7784701" lon="7.9789318"><ele>222.4</ele><time>2026-04-08T10:56:10.97Z</time></trkpt><trkpt lat="44.7785391" lon="7.9790411"><ele>221.8</ele><time>2026-04-08T10:56:11.97Z</time></trkpt><trkpt lat="44.7786126" lon="7.9791576"><ele>221.2</ele><time>2026-04-08T10:56:12.97Z</time></trkpt><trkpt lat="44.7786924" lon="7.9792827"><ele>220.6</ele><time>2026-04-08T10:56:13.97Z</time></trkpt><trkpt lat="44.7787725" lon="7.9793972"><ele>220.0</ele><time>2026-04-08T10:56:14.97Z</time></trkpt><trkpt lat="44.7788467" lon="7.9795009"><ele>220.0</ele><time>2026-04-08T10:56:15.97Z</time></trkpt><trkpt lat="44.7789204" lon="7.9796052"><ele>220.0</ele><time>2026-04-08T10:56:16.97Z</time></trkpt><trkpt lat="44.7789957" lon="7.9797012"><ele>220.0</ele><time>2026-04-08T10:56:17.97Z</time></trkpt><trkpt lat="44.7790709" lon="7.9798062"><ele>220.0</ele><time>2026-04-08T10:56:18.97Z</time></trkpt><trkpt lat="44.7791401" lon="7.9799117"><ele>220.0</ele><time>2026-04-08T10:56:19.97Z</time></trkpt><trkpt lat="44.779201" lon="7.9800184"><ele>219.99999999999997</ele><time>2026-04-08T10:56:20.97Z</time></trkpt><trkpt lat="44.779251" lon="7.9801228"><ele>220.0</ele><time>2026-04-08T10:56:21.97Z</time></trkpt><trkpt lat="44.7792992" lon="7.9802298"><ele>220.0</ele><time>2026-04-08T10:56:22.97Z</time></trkpt><trkpt lat="44.7793568" lon="7.980324"><ele>220.0</ele><time>2026-04-08T10:56:23.97Z</time></trkpt><trkpt lat="44.7794214" lon="7.9804176"><ele>219.99999999999997</ele><time>2026-04-08T10:56:24.97Z</time></trkpt><trkpt lat="44.7794814" lon="7.9804953"><ele>220.0</ele><time>2026-04-08T10:56:25.97Z</time></trkpt><trkpt lat="44.7795392" lon="7.9805686"><ele>219.99999999999997</ele><time>2026-04-08T10:56:26.97Z</time></trkpt><trkpt lat="44.7795961" lon="7.980635"><ele>220.0</ele><time>2026-04-08T10:56:27.97Z</time></trkpt><trkpt lat="44.7796462" lon="7.9807059"><ele>220.0</ele><time>2026-04-08T10:56:28.97Z</time></trkpt><trkpt lat="44.7796966" lon="7.9807671"><ele>220.0</ele><time>2026-04-08T10:56:29.97Z</time></trkpt><trkpt lat="44.7797391" lon="7.9808448"><ele>219.99999999999997</ele><time>2026-04-08T10:56:30.97Z</time></trkpt><trkpt lat="44.7797862" lon="7.9809212"><ele>220.0</ele><time>2026-04-08T10:56:31.97Z</time></trkpt><trkpt lat="44.7798742" lon="7.9810639"><ele>219.83333333333331</ele><time>2026-04-08T10:56:33.97Z</time></trkpt><trkpt lat="44.7799334" lon="7.9811308"><ele>219.66666666666666</ele><time>2026-04-08T10:56:34.97Z</time></trkpt><trkpt lat="44.7799931" lon="7.9811889"><ele>219.5</ele><time>2026-04-08T10:56:35.97Z</time></trkpt><trkpt lat="44.7800564" lon="7.98126"><ele>219.33333333333331</ele><time>2026-04-08T10:56:36.97Z</time></trkpt><trkpt lat="44.7801247" lon="7.9813279"><ele>219.16666666666666</ele><time>2026-04-08T10:56:37.97Z</time></trkpt><trkpt lat="44.7801893" lon="7.9813849"><ele>219.0</ele><time>2026-04-08T10:56:38.97Z</time></trkpt><trkpt lat="44.7802503" lon="7.9814308"><ele>219.0</ele><time>2026-04-08T10:56:39.97Z</time></trkpt><trkpt lat="44.7803576" lon="7.9814999"><ele>218.99999999999997</ele><time>2026-04-08T10:56:41.97Z</time></trkpt><trkpt lat="44.7804286" lon="7.9815998"><ele>218.99999999999997</ele><time>2026-04-08T10:56:43.97Z</time></trkpt><trkpt lat="44.780425" lon="7.9817701"><ele>219.0</ele><time>2026-04-08T10:56:45.97Z</time></trkpt><trkpt lat="44.7803924" lon="7.9818491"><ele>219.0</ele><time>2026-04-08T10:56:46.97Z</time></trkpt><trkpt lat="44.7803567" lon="7.9819296"><ele>217.83333333333334</ele><time>2026-04-08T10:56:47.97Z</time></trkpt><trkpt lat="44.7803156" lon="7.9820031"><ele>216.66666666666669</ele><time>2026-04-08T10:56:48.97Z</time></trkpt><trkpt lat="44.7802955" lon="7.9820917"><ele>215.5</ele><time>2026-04-08T10:56:49.97Z</time></trkpt><trkpt lat="44.7803126" lon="7.9821885"><ele>214.33333333333334</ele><time>2026-04-08T10:56:50.97Z</time></trkpt><trkpt lat="44.7803472" lon="7.982287"><ele>213.16666666666669</ele><time>2026-04-08T10:56:51.97Z</time></trkpt><trkpt lat="44.780392" lon="7.982387"><ele>212.0</ele><time>2026-04-08T10:56:52.97Z</time></trkpt><trkpt lat="44.7804399" lon="7.982492"><ele>212.39999999999998</ele><time>2026-04-08T10:56:53.97Z</time></trkpt><trkpt lat="44.7804832" lon="7.9826046"><ele>212.79999999999998</ele><time>2026-04-08T10:56:54.97Z</time></trkpt><trkpt lat="44.7805239" lon="7.9827083"><ele>213.2</ele><time>2026-04-08T10:56:55.97Z</time></trkpt><trkpt lat="44.7805676" lon="7.9828199"><ele>213.6</ele><time>2026-04-08T10:56:56.97Z</time></trkpt><trkpt lat="44.7806116" lon="7.9829289"><ele>214.0</ele><time>2026-04-08T10:56:57.97Z</time></trkpt><trkpt lat="44.7806593" lon="7.9830653"><ele>214.0</ele><time>2026-04-08T10:56:58.97Z</time></trkpt><trkpt lat="44.7807124" lon="7.9831898"><ele>213.99999999999997</ele><time>2026-04-08T10:56:59.97Z</time></trkpt><trkpt lat="44.7807689" lon="7.9833191"><ele>213.99999999999997</ele><time>2026-04-08T10:57:00.97Z</time></trkpt><trkpt lat="44.7808331" lon="7.9834269"><ele>214.0</ele><time>2026-04-08T10:57:01.97Z</time></trkpt><trkpt lat="44.7809119" lon="7.9835325"><ele>214.0</ele><time>2026-04-08T10:57:02.97Z</time></trkpt><trkpt lat="44.7809864" lon="7.9836284"><ele>213.2</ele><time>2026-04-08T10:57:03.97Z</time></trkpt><trkpt lat="44.7810625" lon="7.9837239"><ele>212.39999999999998</ele><time>2026-04-08T10:57:04.97Z</time></trkpt><trkpt lat="44.7811261" lon="7.9838173"><ele>211.6</ele><time>2026-04-08T10:57:05.97Z</time></trkpt><trkpt lat="44.7811826" lon="7.9839242"><ele>210.8</ele><time>2026-04-08T10:57:06.97Z</time></trkpt><trkpt lat="44.7812318" lon="7.9840393"><ele>210.0</ele><time>2026-04-08T10:57:07.97Z</time></trkpt><trkpt lat="44.7812744" lon="7.9841682"><ele>210.4</ele><time>2026-04-08T10:57:08.97Z</time></trkpt><trkpt lat="44.7813133" lon="7.984304"><ele>210.8</ele><time>2026-04-08T10:57:09.97Z</time></trkpt><trkpt lat="44.7813587" lon="7.9844312"><ele>211.2</ele><time>2026-04-08T10:57:10.97Z</time></trkpt><trkpt lat="44.7814101" lon="7.9845374"><ele>211.6</ele><time>2026-04-08T10:57:11.97Z</time></trkpt><trkpt lat="44.7814785" lon="7.9846251"><ele>212.0</ele><time>2026-04-08T10:57:12.97Z</time></trkpt><trkpt lat="44.7815946" lon="7.9846848"><ele>212.0</ele><time>2026-04-08T10:57:13.97Z</time></trkpt><trkpt lat="44.7816941" lon="7.9847471"><ele>212.0</ele><time>2026-04-08T10:57:14.97Z</time></trkpt><trkpt lat="44.7818062" lon="7.9848171"><ele>212.0</ele><time>2026-04-08T10:57:15.97Z</time></trkpt><trkpt lat="44.7819217" lon="7.9848881"><ele>212.0</ele><time>2026-04-08T10:57:16.97Z</time></trkpt><trkpt lat="44.78203" lon="7.9849595"><ele>212.5</ele><time>2026-04-08T10:57:17.97Z</time></trkpt><trkpt lat="44.7821477" lon="7.9850466"><ele>213.0</ele><time>2026-04-08T10:57:18.97Z</time></trkpt><trkpt lat="44.7822608" lon="7.9851257"><ele>213.5</ele><time>2026-04-08T10:57:19.97Z</time></trkpt><trkpt lat="44.7823778" lon="7.9852102"><ele>214.0</ele><time>2026-04-08T10:57:20.97Z</time></trkpt><trkpt lat="44.7824882" lon="7.9852939"><ele>214.0</ele><time>2026-04-08T10:57:21.97Z</time></trkpt><trkpt lat="44.7825963" lon="7.9853767"><ele>214.0</ele><time>2026-04-08T10:57:22.97Z</time></trkpt><trkpt lat="44.7827072" lon="7.9854723"><ele>214.0</ele><time>2026-04-08T10:57:23.97Z</time></trkpt><trkpt lat="44.7828084" lon="7.985571"><ele>214.0</ele><time>2026-04-08T10:57:24.97Z</time></trkpt><trkpt lat="44.7828958" lon="7.9856727"><ele>214.25</ele><time>2026-04-08T10:57:25.97Z</time></trkpt><trkpt lat="44.7829761" lon="7.9857935"><ele>214.5</ele><time>2026-04-08T10:57:26.97Z</time></trkpt><trkpt lat="44.7830575" lon="7.9859098"><ele>214.75</ele><time>2026-04-08T10:57:27.97Z</time></trkpt><trkpt lat="44.7831471" lon="7.9860094"><ele>215.0</ele><time>2026-04-08T10:57:28.97Z</time></trkpt><trkpt lat="44.7832401" lon="7.9860893"><ele>215.0</ele><time>2026-04-08T10:57:29.97Z</time></trkpt><trkpt lat="44.7833398" lon="7.9861274"><ele>215.0</ele><time>2026-04-08T10:57:30.97Z</time></trkpt><trkpt lat="44.7834524" lon="7.9861333"><ele>215.0</ele><time>2026-04-08T10:57:31.97Z</time></trkpt><trkpt lat="44.7835707" lon="7.9861374"><ele>215.0</ele><time>2026-04-08T10:57:32.97Z</time></trkpt><trkpt lat="44.7837008" lon="7.9861517"><ele>215.75</ele><time>2026-04-08T10:57:33.97Z</time></trkpt><trkpt lat="44.783835" lon="7.9861937"><ele>216.5</ele><time>2026-04-08T10:57:34.97Z</time></trkpt><trkpt lat="44.7839747" lon="7.9862314"><ele>217.25</ele><time>2026-04-08T10:57:35.97Z</time></trkpt><trkpt lat="44.784111" lon="7.9862748"><ele>218.0</ele><time>2026-04-08T10:57:36.97Z</time></trkpt><trkpt lat="44.7842583" lon="7.986316"><ele>218.25</ele><time>2026-04-08T10:57:37.97Z</time></trkpt><trkpt lat="44.7844042" lon="7.9863445"><ele>218.5</ele><time>2026-04-08T10:57:38.97Z</time></trkpt><trkpt lat="44.7845358" lon="7.9863666"><ele>218.75</ele><time>2026-04-08T10:57:39.97Z</time></trkpt><trkpt lat="44.7846586" lon="7.9863859"><ele>219.0</ele><time>2026-04-08T10:57:40.97Z</time></trkpt><trkpt lat="44.7847721" lon="7.9864091"><ele>219.0</ele><time>2026-04-08T10:57:41.97Z</time></trkpt><trkpt lat="44.7848779" lon="7.9864233"><ele>218.99999999999997</ele><time>2026-04-08T10:57:42.97Z</time></trkpt><trkpt lat="44.7849744" lon="7.9864224"><ele>218.99999999999997</ele><time>2026-04-08T10:57:43.97Z</time></trkpt><trkpt lat="44.7850672" lon="7.986402"><ele>219.0</ele><time>2026-04-08T10:57:44.97Z</time></trkpt><trkpt lat="44.7851542" lon="7.9863697"><ele>219.0</ele><time>2026-04-08T10:57:45.97Z</time></trkpt><trkpt lat="44.7852301" lon="7.9863254"><ele>218.0</ele><time>2026-04-08T10:57:46.97Z</time></trkpt><trkpt lat="44.7852965" lon="7.9862951"><ele>217.0</ele><time>2026-04-08T10:57:47.969Z</time></trkpt><trkpt lat="44.7853958" lon="7.9862607"><ele>216.0</ele><time>2026-04-08T10:57:49.97Z</time></trkpt><trkpt lat="44.7854732" lon="7.9862654"><ele>215.0</ele><time>2026-04-08T10:57:52.97Z</time></trkpt><trkpt lat="44.7855575" lon="7.9863289"><ele>214.0</ele><time>2026-04-08T10:57:55.97Z</time></trkpt><trkpt lat="44.7856469" lon="7.9863152"><ele>213.0</ele><time>2026-04-08T10:57:57.97Z</time></trkpt><trkpt lat="44.7857497" lon="7.9862459"><ele>213.0</ele><time>2026-04-08T10:57:59.97Z</time></trkpt><trkpt lat="44.7858179" lon="7.9862325"><ele>213.0</ele><time>2026-04-08T10:58:00.97Z</time></trkpt><trkpt lat="44.7858885" lon="7.9862179"><ele>213.0</ele><time>2026-04-08T10:58:01.97Z</time></trkpt><trkpt lat="44.7859564" lon="7.9862047"><ele>213.0</ele><time>2026-04-08T10:58:02.97Z</time></trkpt><trkpt lat="44.7860361" lon="7.9862757"><ele>213.0</ele><time>2026-04-08T10:58:04.97Z</time></trkpt><trkpt lat="44.7859601" lon="7.9863485"><ele>213.0</ele><time>2026-04-08T10:58:06.97Z</time></trkpt><trkpt lat="44.7858437" lon="7.9863817"><ele>213.0</ele><time>2026-04-08T10:58:08.97Z</time></trkpt><trkpt lat="44.7857349" lon="7.9864463"><ele>213.0</ele><time>2026-04-08T10:58:10.97Z</time></trkpt><trkpt lat="44.7856387" lon="7.9865223"><ele>213.0</ele><time>2026-04-08T10:58:12.97Z</time></trkpt><trkpt lat="44.7855476" lon="7.9866253"><ele>213.0</ele><time>2026-04-08T10:58:14.97Z</time></trkpt><trkpt lat="44.7854588" lon="7.986746"><ele>213.42857142857142</ele><time>2026-04-08T10:58:16.97Z</time></trkpt><trkpt lat="44.7854064" lon="7.9867979"><ele>213.85714285714286</ele><time>2026-04-08T10:58:17.97Z</time></trkpt><trkpt lat="44.7853518" lon="7.9868552"><ele>214.28571428571428</ele><time>2026-04-08T10:58:18.97Z</time></trkpt><trkpt lat="44.7852923" lon="7.9869221"><ele>214.71428571428572</ele><time>2026-04-08T10:58:19.97Z</time></trkpt><trkpt lat="44.7852312" lon="7.9869927"><ele>215.14285714285714</ele><time>2026-04-08T10:58:20.97Z</time></trkpt><trkpt lat="44.7851697" lon="7.9870648"><ele>215.57142857142856</ele><time>2026-04-08T10:58:21.97Z</time></trkpt><trkpt lat="44.7851071" lon="7.9871388"><ele>216.0</ele><time>2026-04-08T10:58:22.97Z</time></trkpt><trkpt lat="44.78505" lon="7.9872113"><ele>217.5</ele><time>2026-04-08T10:58:23.97Z</time></trkpt><trkpt lat="44.7849885" lon="7.9872725"><ele>219.0</ele><time>2026-04-08T10:58:24.97Z</time></trkpt><trkpt lat="44.7849256" lon="7.98731"><ele>220.5</ele><time>2026-04-08T10:58:25.97Z</time></trkpt><trkpt lat="44.7848531" lon="7.9873425"><ele>222.0</ele><time>2026-04-08T10:58:26.97Z</time></trkpt><trkpt lat="44.78478" lon="7.9873823"><ele>223.5</ele><time>2026-04-08T10:58:27.97Z</time></trkpt><trkpt lat="44.7846984" lon="7.9874152"><ele>225.0</ele><time>2026-04-08T10:58:28.97Z</time></trkpt><trkpt lat="44.7846239" lon="7.9874459"><ele>225.0</ele><time>2026-04-08T10:58:29.97Z</time></trkpt><trkpt lat="44.7845478" lon="7.9874715"><ele>225.0</ele><time>2026-04-08T10:58:30.97Z</time></trkpt><trkpt lat="44.784481" lon="7.9874921"><ele>225.0</ele><time>2026-04-08T10:58:31.97Z</time></trkpt><trkpt lat="44.7843812" lon="7.9875017"><ele>225.0</ele><time>2026-04-08T10:58:33.97Z</time></trkpt><trkpt lat="44.7844743" lon="7.9875016"><ele>225.0</ele><time>2026-04-08T10:58:38.97Z</time></trkpt><trkpt lat="44.784542" lon="7.9874835"><ele>225.0</ele><time>2026-04-08T10:58:39.97Z</time></trkpt><trkpt lat="44.7846195" lon="7.9874582"><ele>225.0</ele><time>2026-04-08T10:58:40.97Z</time></trkpt><trkpt lat="44.7847023" lon="7.9874299"><ele>225.0</ele><time>2026-04-08T10:58:41.97Z</time></trkpt><trkpt lat="44.7847817" lon="7.9873961"><ele>225.0</ele><time>2026-04-08T10:58:42.97Z</time></trkpt><trkpt lat="44.7848689" lon="7.987366"><ele>225.0</ele><time>2026-04-08T10:58:43.97Z</time></trkpt><trkpt lat="44.7849505" lon="7.987311"><ele>225.0</ele><time>2026-04-08T10:58:44.97Z</time></trkpt><trkpt lat="44.7850319" lon="7.9872193"><ele>225.0</ele><time>2026-04-08T10:58:45.97Z</time></trkpt><trkpt lat="44.7851113" lon="7.9871208"><ele>225.0</ele><time>2026-04-08T10:58:46.97Z</time></trkpt><trkpt lat="44.7851974" lon="7.9870158"><ele>225.0</ele><time>2026-04-08T10:58:47.97Z</time></trkpt><trkpt lat="44.7852819" lon="7.9869121"><ele>225.0</ele><time>2026-04-08T10:58:48.97Z</time></trkpt><trkpt lat="44.7853707" lon="7.9868109"><ele>225.0</ele><time>2026-04-08T10:58:49.97Z</time></trkpt><trkpt lat="44.7854569" lon="7.9867061"><ele>222.6</ele><time>2026-04-08T10:58:50.97Z</time></trkpt><trkpt lat="44.7855461" lon="7.9866071"><ele>220.2</ele><time>2026-04-08T10:58:51.97Z</time></trkpt><trkpt lat="44.785633" lon="7.9865155"><ele>217.8</ele><time>2026-04-08T10:58:52.97Z</time></trkpt><trkpt lat="44.7857184" lon="7.9864245"><ele>215.4</ele><time>2026-04-08T10:58:53.97Z</time></trkpt><trkpt lat="44.7858007" lon="7.9863843"><ele>213.0</ele><time>2026-04-08T10:58:54.97Z</time></trkpt><trkpt lat="44.7858817" lon="7.9863684"><ele>213.0</ele><time>2026-04-08T10:58:55.969Z</time></trkpt><trkpt lat="44.7859541" lon="7.9863617"><ele>213.0</ele><time>2026-04-08T10:58:56.97Z</time></trkpt><trkpt lat="44.7860478" lon="7.9863015"><ele>213.0</ele><time>2026-04-08T10:58:58.97Z</time></trkpt><trkpt lat="44.785996" lon="7.9861972"><ele>213.0</ele><time>2026-04-08T10:59:00.97Z</time></trkpt><trkpt lat="44.7859324" lon="7.9861858"><ele>213.0</ele><time>2026-04-08T10:59:01.97Z</time></trkpt><trkpt lat="44.7858608" lon="7.9861866"><ele>213.0</ele><time>2026-04-08T10:59:02.97Z</time></trkpt><trkpt lat="44.7857897" lon="7.9862066"><ele>213.0</ele><time>2026-04-08T10:59:03.97Z</time></trkpt><trkpt lat="44.7857174" lon="7.986249"><ele>213.0</ele><time>2026-04-08T10:59:04.97Z</time></trkpt><trkpt lat="44.7856569" lon="7.9862919"><ele>213.0</ele><time>2026-04-08T10:59:05.97Z</time></trkpt><trkpt lat="44.7855776" lon="7.9862638"><ele>213.0</ele><time>2026-04-08T10:59:07.97Z</time></trkpt><trkpt lat="44.785634" lon="7.9861432"><ele>213.0</ele><time>2026-04-08T10:59:09.97Z</time></trkpt><trkpt lat="44.7857687" lon="7.9860745"><ele>213.0</ele><time>2026-04-08T10:59:11.97Z</time></trkpt><trkpt lat="44.7858546" lon="7.986017"><ele>213.0</ele><time>2026-04-08T10:59:12.97Z</time></trkpt><trkpt lat="44.7859505" lon="7.9859497"><ele>213.0</ele><time>2026-04-08T10:59:13.97Z</time></trkpt><trkpt lat="44.7860466" lon="7.9858667"><ele>213.0</ele><time>2026-04-08T10:59:14.97Z</time></trkpt><trkpt lat="44.7861415" lon="7.9857826"><ele>213.0</ele><time>2026-04-08T10:59:15.97Z</time></trkpt><trkpt lat="44.7862377" lon="7.9856893"><ele>209.0</ele><time>2026-04-08T10:59:16.97Z</time></trkpt><trkpt lat="44.7863376" lon="7.985586"><ele>205.0</ele><time>2026-04-08T10:59:17.97Z</time></trkpt><trkpt lat="44.786433" lon="7.9854589"><ele>201.0</ele><time>2026-04-08T10:59:18.97Z</time></trkpt><trkpt lat="44.7865248" lon="7.9853434"><ele>197.0</ele><time>2026-04-08T10:59:19.97Z</time></trkpt><trkpt lat="44.7866141" lon="7.9852187"><ele>197.0</ele><time>2026-04-08T10:59:20.97Z</time></trkpt><trkpt lat="44.7866989" lon="7.985095"><ele>197.0</ele><time>2026-04-08T10:59:21.97Z</time></trkpt><trkpt lat="44.7867804" lon="7.9849798"><ele>197.0</ele><time>2026-04-08T10:59:22.97Z</time></trkpt><trkpt lat="44.7868692" lon="7.9848664"><ele>197.0</ele><time>2026-04-08T10:59:23.97Z</time></trkpt><trkpt lat="44.7869618" lon="7.9847688"><ele>196.8</ele><time>2026-04-08T10:59:24.97Z</time></trkpt><trkpt lat="44.7870583" lon="7.984692"><ele>196.6</ele><time>2026-04-08T10:59:25.97Z</time></trkpt><trkpt lat="44.78716" lon="7.9846188"><ele>196.4</ele><time>2026-04-08T10:59:26.97Z</time></trkpt><trkpt lat="44.787262" lon="7.9845595"><ele>196.20000000000002</ele><time>2026-04-08T10:59:27.97Z</time></trkpt><trkpt lat="44.7873692" lon="7.9845313"><ele>196.0</ele><time>2026-04-08T10:59:28.97Z</time></trkpt><trkpt lat="44.7874788" lon="7.9845478"><ele>196.0</ele><time>2026-04-08T10:59:29.97Z</time></trkpt><trkpt lat="44.7875866" lon="7.9845936"><ele>196.0</ele><time>2026-04-08T10:59:30.97Z</time></trkpt><trkpt lat="44.7877025" lon="7.9846433"><ele>196.0</ele><time>2026-04-08T10:59:31.97Z</time></trkpt><trkpt lat="44.7878237" lon="7.9847009"><ele>196.0</ele><time>2026-04-08T10:59:32.97Z</time></trkpt><trkpt lat="44.7879436" lon="7.9847651"><ele>196.25</ele><time>2026-04-08T10:59:33.97Z</time></trkpt><trkpt lat="44.788067" lon="7.9848299"><ele>196.5</ele><time>2026-04-08T10:59:34.97Z</time></trkpt><trkpt lat="44.7881779" lon="7.9848789"><ele>196.75</ele><time>2026-04-08T10:59:35.97Z</time></trkpt><trkpt lat="44.7882829" lon="7.9849379"><ele>197.0</ele><time>2026-04-08T10:59:36.97Z</time></trkpt><trkpt lat="44.7883869" lon="7.9849889"><ele>197.0</ele><time>2026-04-08T10:59:37.97Z</time></trkpt><trkpt lat="44.7884906" lon="7.9850296"><ele>197.0</ele><time>2026-04-08T10:59:38.97Z</time></trkpt><trkpt lat="44.7885961" lon="7.9850661"><ele>197.0</ele><time>2026-04-08T10:59:39.97Z</time></trkpt><trkpt lat="44.7886971" lon="7.9850982"><ele>197.0</ele><time>2026-04-08T10:59:40.97Z</time></trkpt><trkpt lat="44.7887944" lon="7.9851358"><ele>197.0</ele><time>2026-04-08T10:59:41.97Z</time></trkpt><trkpt lat="44.788886" lon="7.9851745"><ele>197.00000000000003</ele><time>2026-04-08T10:59:42.97Z</time></trkpt><trkpt lat="44.7889726" lon="7.9852085"><ele>197.0</ele><time>2026-04-08T10:59:43.97Z</time></trkpt><trkpt lat="44.7890551" lon="7.9852325"><ele>197.0</ele><time>2026-04-08T10:59:44.97Z</time></trkpt><trkpt lat="44.7891329" lon="7.9852398"><ele>197.0</ele><time>2026-04-08T10:59:45.97Z</time></trkpt><trkpt lat="44.7892063" lon="7.9852284"><ele>197.00000000000003</ele><time>2026-04-08T10:59:46.97Z</time></trkpt><trkpt lat="44.7892766" lon="7.9852174"><ele>197.0</ele><time>2026-04-08T10:59:47.97Z</time></trkpt><trkpt lat="44.7893501" lon="7.9852193"><ele>196.83333333333334</ele><time>2026-04-08T10:59:48.97Z</time></trkpt><trkpt lat="44.7894314" lon="7.985228"><ele>196.66666666666669</ele><time>2026-04-08T10:59:49.97Z</time></trkpt><trkpt lat="44.7895107" lon="7.9852542"><ele>196.5</ele><time>2026-04-08T10:59:50.97Z</time></trkpt><trkpt lat="44.7895952" lon="7.9852775"><ele>196.33333333333331</ele><time>2026-04-08T10:59:51.97Z</time></trkpt><trkpt lat="44.7896874" lon="7.9853016"><ele>196.16666666666666</ele><time>2026-04-08T10:59:52.97Z</time></trkpt><trkpt lat="44.7897863" lon="7.9853267"><ele>196.0</ele><time>2026-04-08T10:59:53.97Z</time></trkpt><trkpt lat="44.7898849" lon="7.9853612"><ele>196.0</ele><time>2026-04-08T10:59:54.97Z</time></trkpt><trkpt lat="44.7899774" lon="7.9853914"><ele>196.0</ele><time>2026-04-08T10:59:55.97Z</time></trkpt><trkpt lat="44.790075" lon="7.9854233"><ele>196.0</ele><time>2026-04-08T10:59:56.97Z</time></trkpt><trkpt lat="44.7901742" lon="7.9854529"><ele>196.0</ele><time>2026-04-08T10:59:57.97Z</time></trkpt><trkpt lat="44.7902815" lon="7.9854844"><ele>196.0</ele><time>2026-04-08T10:59:58.97Z</time></trkpt><trkpt lat="44.790386" lon="7.9855121"><ele>196.0</ele><time>2026-04-08T10:59:59.97Z</time></trkpt><trkpt lat="44.7904888" lon="7.9855508"><ele>196.0</ele><time>2026-04-08T11:00:00.97Z</time></trkpt><trkpt lat="44.7905929" lon="7.9855829"><ele>196.0</ele><time>2026-04-08T11:00:01.97Z</time></trkpt><trkpt lat="44.7906998" lon="7.985621"><ele>196.0</ele><time>2026-04-08T11:00:02.97Z</time></trkpt><trkpt lat="44.7908018" lon="7.9856524"><ele>196.0</ele><time>2026-04-08T11:00:03.97Z</time></trkpt><trkpt lat="44.7908987" lon="7.9856823"><ele>195.99999999999997</ele><time>2026-04-08T11:00:04.97Z</time></trkpt><trkpt lat="44.7909855" lon="7.9857277"><ele>196.0</ele><time>2026-04-08T11:00:05.97Z</time></trkpt><trkpt lat="44.7910592" lon="7.9857949"><ele>196.0</ele><time>2026-04-08T11:00:06.97Z</time></trkpt><trkpt lat="44.7911122" lon="7.9858871"><ele>196.0</ele><time>2026-04-08T11:00:07.97Z</time></trkpt><trkpt lat="44.7911558" lon="7.9859817"><ele>195.99999999999997</ele><time>2026-04-08T11:00:08.97Z</time></trkpt><trkpt lat="44.7911943" lon="7.9860664"><ele>196.0</ele><time>2026-04-08T11:00:09.97Z</time></trkpt><trkpt lat="44.7912838" lon="7.9860951"><ele>195.16666666666666</ele><time>2026-04-08T11:00:10.97Z</time></trkpt><trkpt lat="44.7913638" lon="7.9860845"><ele>194.33333333333331</ele><time>2026-04-08T11:00:11.97Z</time></trkpt><trkpt lat="44.7914425" lon="7.9860375"><ele>193.5</ele><time>2026-04-08T11:00:12.97Z</time></trkpt><trkpt lat="44.7915243" lon="7.9859864"><ele>192.66666666666666</ele><time>2026-04-08T11:00:13.97Z</time></trkpt><trkpt lat="44.791609" lon="7.9859571"><ele>191.83333333333331</ele><time>2026-04-08T11:00:14.97Z</time></trkpt><trkpt lat="44.791693" lon="7.9859627"><ele>191.0</ele><time>2026-04-08T11:00:15.97Z</time></trkpt><trkpt lat="44.7917777" lon="7.9859836"><ele>191.16666666666666</ele><time>2026-04-08T11:00:16.97Z</time></trkpt><trkpt lat="44.791862" lon="7.9860061"><ele>191.33333333333331</ele><time>2026-04-08T11:00:17.97Z</time></trkpt><trkpt lat="44.7919443" lon="7.9860296"><ele>191.5</ele><time>2026-04-08T11:00:18.97Z</time></trkpt><trkpt lat="44.7920332" lon="7.986053"><ele>191.66666666666666</ele><time>2026-04-08T11:00:19.97Z</time></trkpt><trkpt lat="44.7921224" lon="7.9860837"><ele>191.83333333333334</ele><time>2026-04-08T11:00:20.97Z</time></trkpt><trkpt lat="44.7922127" lon="7.9861152"><ele>192.0</ele><time>2026-04-08T11:00:21.97Z</time></trkpt><trkpt lat="44.7923036" lon="7.9861465"><ele>192.0</ele><time>2026-04-08T11:00:22.97Z</time></trkpt><trkpt lat="44.7923899" lon="7.9861837"><ele>192.0</ele><time>2026-04-08T11:00:23.97Z</time></trkpt><trkpt lat="44.7924862" lon="7.9862087"><ele>192.0</ele><time>2026-04-08T11:00:24.97Z</time></trkpt><trkpt lat="44.7925839" lon="7.9862361"><ele>192.0</ele><time>2026-04-08T11:00:25.97Z</time></trkpt><trkpt lat="44.7926824" lon="7.9862662"><ele>192.0</ele><time>2026-04-08T11:00:26.97Z</time></trkpt><trkpt lat="44.7927806" lon="7.9862948"><ele>192.6</ele><time>2026-04-08T11:00:27.97Z</time></trkpt><trkpt lat="44.7928788" lon="7.9863284"><ele>193.2</ele><time>2026-04-08T11:00:28.97Z</time></trkpt><trkpt lat="44.7929783" lon="7.9863669"><ele>193.8</ele><time>2026-04-08T11:00:29.97Z</time></trkpt><trkpt lat="44.7930828" lon="7.9864077"><ele>194.4</ele><time>2026-04-08T11:00:30.97Z</time></trkpt><trkpt lat="44.7931964" lon="7.9864474"><ele>195.0</ele><time>2026-04-08T11:00:31.97Z</time></trkpt><trkpt lat="44.7933105" lon="7.9864862"><ele>195.0</ele><time>2026-04-08T11:00:32.97Z</time></trkpt><trkpt lat="44.7934285" lon="7.9865268"><ele>195.0</ele><time>2026-04-08T11:00:33.97Z</time></trkpt><trkpt lat="44.7935428" lon="7.9865572"><ele>195.0</ele><time>2026-04-08T11:00:34.97Z</time></trkpt><trkpt lat="44.7936556" lon="7.9865994"><ele>195.0</ele><time>2026-04-08T11:00:35.97Z</time></trkpt><trkpt lat="44.7937738" lon="7.986638"><ele>194.5</ele><time>2026-04-08T11:00:36.97Z</time></trkpt><trkpt lat="44.7938949" lon="7.9866805"><ele>194.0</ele><time>2026-04-08T11:00:37.97Z</time></trkpt><trkpt lat="44.7940153" lon="7.9867194"><ele>193.5</ele><time>2026-04-08T11:00:38.97Z</time></trkpt><trkpt lat="44.7941331" lon="7.9867605"><ele>193.0</ele><time>2026-04-08T11:00:39.97Z</time></trkpt><trkpt lat="44.7942486" lon="7.9867956"><ele>193.0</ele><time>2026-04-08T11:00:40.97Z</time></trkpt><trkpt lat="44.7943667" lon="7.9868383"><ele>193.0</ele><time>2026-04-08T11:00:41.97Z</time></trkpt><trkpt lat="44.794483" lon="7.9868792"><ele>193.0</ele><time>2026-04-08T11:00:42.97Z</time></trkpt><trkpt lat="44.7945996" lon="7.9869239"><ele>193.0</ele><time>2026-04-08T11:00:43.97Z</time></trkpt><trkpt lat="44.7947147" lon="7.9869612"><ele>193.0</ele><time>2026-04-08T11:00:44.97Z</time></trkpt><trkpt lat="44.7948337" lon="7.9869999"><ele>193.0</ele><time>2026-04-08T11:00:45.97Z</time></trkpt><trkpt lat="44.7949521" lon="7.9870371"><ele>193.0</ele><time>2026-04-08T11:00:46.97Z</time></trkpt><trkpt lat="44.7950587" lon="7.9870747"><ele>193.0</ele><time>2026-04-08T11:00:47.97Z</time></trkpt><trkpt lat="44.795178" lon="7.9871038"><ele>193.0</ele><time>2026-04-08T11:00:48.97Z</time></trkpt><trkpt lat="44.7952864" lon="7.9871469"><ele>193.0</ele><time>2026-04-08T11:00:49.97Z</time></trkpt><trkpt lat="44.7953908" lon="7.9871864"><ele>193.0</ele><time>2026-04-08T11:00:50.97Z</time></trkpt><trkpt lat="44.7955036" lon="7.9872223"><ele>193.0</ele><time>2026-04-08T11:00:51.97Z</time></trkpt><trkpt lat="44.7956108" lon="7.9872667"><ele>193.0</ele><time>2026-04-08T11:00:52.97Z</time></trkpt><trkpt lat="44.7957197" lon="7.9873145"><ele>193.0</ele><time>2026-04-08T11:00:53.97Z</time></trkpt><trkpt lat="44.7958192" lon="7.9873732"><ele>193.0</ele><time>2026-04-08T11:00:54.97Z</time></trkpt><trkpt lat="44.7959147" lon="7.98745"><ele>193.0</ele><time>2026-04-08T11:00:55.97Z</time></trkpt><trkpt lat="44.7960044" lon="7.987536"><ele>193.0</ele><time>2026-04-08T11:00:56.97Z</time></trkpt><trkpt lat="44.7960917" lon="7.9876353"><ele>193.0</ele><time>2026-04-08T11:00:57.97Z</time></trkpt><trkpt lat="44.7961646" lon="7.9877443"><ele>193.0</ele><time>2026-04-08T11:00:58.97Z</time></trkpt><trkpt lat="44.7962342" lon="7.9878538"><ele>193.0</ele><time>2026-04-08T11:00:59.97Z</time></trkpt><trkpt lat="44.7962983" lon="7.9879682"><ele>193.0</ele><time>2026-04-08T11:01:00.97Z</time></trkpt><trkpt lat="44.796348" lon="7.9880924"><ele>193.0</ele><time>2026-04-08T11:01:01.97Z</time></trkpt><trkpt lat="44.7963883" lon="7.9882253"><ele>193.0</ele><time>2026-04-08T11:01:02.97Z</time></trkpt><trkpt lat="44.7964294" lon="7.9883576"><ele>193.16666666666666</ele><time>2026-04-08T11:01:03.97Z</time></trkpt><trkpt lat="44.7964653" lon="7.9884922"><ele>193.33333333333331</ele><time>2026-04-08T11:01:04.97Z</time></trkpt><trkpt lat="44.7964831" lon="7.9886173"><ele>193.5</ele><time>2026-04-08T11:01:05.97Z</time></trkpt><trkpt lat="44.7965084" lon="7.988735"><ele>193.66666666666669</ele><time>2026-04-08T11:01:06.97Z</time></trkpt><trkpt lat="44.7965328" lon="7.9888567"><ele>193.83333333333334</ele><time>2026-04-08T11:01:07.97Z</time></trkpt><trkpt lat="44.7965474" lon="7.9889645"><ele>194.0</ele><time>2026-04-08T11:01:08.97Z</time></trkpt><trkpt lat="44.7965501" lon="7.9890842"><ele>194.28571428571428</ele><time>2026-04-08T11:01:09.97Z</time></trkpt><trkpt lat="44.7965661" lon="7.989195"><ele>194.57142857142858</ele><time>2026-04-08T11:01:10.97Z</time></trkpt><trkpt lat="44.7965779" lon="7.9892825"><ele>194.85714285714286</ele><time>2026-04-08T11:01:11.97Z</time></trkpt><trkpt lat="44.7965946" lon="7.9893683"><ele>195.14285714285714</ele><time>2026-04-08T11:01:12.97Z</time></trkpt><trkpt lat="44.7965886" lon="7.9894783"><ele>195.42857142857144</ele><time>2026-04-08T11:01:14.97Z</time></trkpt><trkpt lat="44.7965475" lon="7.9895833"><ele>195.71428571428572</ele><time>2026-04-08T11:01:18.97Z</time></trkpt><trkpt lat="44.7964738" lon="7.9896057"><ele>196.0</ele><time>2026-04-08T11:01:20.97Z</time></trkpt><trkpt lat="44.7964159" lon="7.9895581"><ele>196.0</ele><time>2026-04-08T11:01:21.97Z</time></trkpt><trkpt lat="44.7963128" lon="7.9895162"><ele>196.0</ele><time>2026-04-08T11:01:23.97Z</time></trkpt><trkpt lat="44.7962058" lon="7.98947"><ele>196.0</ele><time>2026-04-08T11:01:25.97Z</time></trkpt><trkpt lat="44.7961046" lon="7.9894308"><ele>196.0</ele><time>2026-04-08T11:01:27.97Z</time></trkpt><trkpt lat="44.7960639" lon="7.9895497"><ele>196.0</ele><time>2026-04-08T11:01:29.97Z</time></trkpt><trkpt lat="44.7961282" lon="7.9896267"><ele>196.0</ele><time>2026-04-08T11:01:31.97Z</time></trkpt><trkpt lat="44.7961921" lon="7.9896479"><ele>196.0</ele><time>2026-04-08T11:01:32.97Z</time></trkpt><trkpt lat="44.796325" lon="7.9897031"><ele>196.0</ele><time>2026-04-08T11:01:34.97Z</time></trkpt><trkpt lat="44.7964061" lon="7.9897351"><ele>196.0</ele><time>2026-04-08T11:01:35.97Z</time></trkpt><trkpt lat="44.7964898" lon="7.9897772"><ele>196.0</ele><time>2026-04-08T11:01:36.97Z</time></trkpt><trkpt lat="44.7965656" lon="7.989818"><ele>195.99999999999997</ele><time>2026-04-08T11:01:37.97Z</time></trkpt><trkpt lat="44.7966366" lon="7.9898593"><ele>196.0</ele><time>2026-04-08T11:01:38.97Z</time></trkpt><trkpt lat="44.7967084" lon="7.9899011"><ele>196.0</ele><time>2026-04-08T11:01:39.97Z</time></trkpt><trkpt lat="44.796776" lon="7.9899432"><ele>196.0</ele><time>2026-04-08T11:01:40.97Z</time></trkpt><trkpt lat="44.7968812" lon="7.9899952"><ele>195.99999999999997</ele><time>2026-04-08T11:01:42.97Z</time></trkpt><trkpt lat="44.7969642" lon="7.9899656"><ele>196.0</ele><time>2026-04-08T11:01:44.97Z</time></trkpt><trkpt lat="44.7970481" lon="7.9899048"><ele>196.49999999999997</ele><time>2026-04-08T11:01:46.97Z</time></trkpt><trkpt lat="44.7971209" lon="7.9898875"><ele>197.0</ele><time>2026-04-08T11:01:48.97Z</time></trkpt><trkpt lat="44.7972008" lon="7.9899372"><ele>197.5</ele><time>2026-04-08T11:01:51.97Z</time></trkpt><trkpt lat="44.7972687" lon="7.9899899"><ele>198.0</ele><time>2026-04-08T11:01:54.97Z</time></trkpt><trkpt lat="44.7973581" lon="7.9900137"><ele>198.49999999999997</ele><time>2026-04-08T11:01:56.97Z</time></trkpt><trkpt lat="44.7974608" lon="7.9900669"><ele>199.0</ele><time>2026-04-08T11:01:58.97Z</time></trkpt><trkpt lat="44.7975613" lon="7.9901409"><ele>199.2</ele><time>2026-04-08T11:02:00.97Z</time></trkpt><trkpt lat="44.797634" lon="7.9902008"><ele>199.39999999999998</ele><time>2026-04-08T11:02:02.97Z</time></trkpt><trkpt lat="44.797719" lon="7.9902566"><ele>199.6</ele><time>2026-04-08T11:02:04.97Z</time></trkpt><trkpt lat="44.7978367" lon="7.9902679"><ele>199.8</ele><time>2026-04-08T11:02:06.97Z</time></trkpt><trkpt lat="44.7979556" lon="7.990263"><ele>200.0</ele><time>2026-04-08T11:02:08.97Z</time></trkpt><trkpt lat="44.7980723" lon="7.9902574"><ele>201.6</ele><time>2026-04-08T11:02:10.97Z</time></trkpt><trkpt lat="44.7981922" lon="7.990284"><ele>203.2</ele><time>2026-04-08T11:02:12.97Z</time></trkpt><trkpt lat="44.7983239" lon="7.9903405"><ele>204.8</ele><time>2026-04-08T11:02:14.97Z</time></trkpt><trkpt lat="44.7983954" lon="7.9902789"><ele>206.4</ele><time>2026-04-08T11:02:15.97Z</time></trkpt><trkpt lat="44.7984634" lon="7.9902487"><ele>208.0</ele><time>2026-04-08T11:02:16.97Z</time></trkpt><trkpt lat="44.7985312" lon="7.9902045"><ele>209.8</ele><time>2026-04-08T11:02:17.97Z</time></trkpt><trkpt lat="44.7986053" lon="7.9901538"><ele>211.60000000000002</ele><time>2026-04-08T11:02:18.97Z</time></trkpt><trkpt lat="44.7986886" lon="7.9900862"><ele>213.39999999999998</ele><time>2026-04-08T11:02:19.97Z</time></trkpt><trkpt lat="44.7987489" lon="7.989978"><ele>215.2</ele><time>2026-04-08T11:02:20.97Z</time></trkpt><trkpt lat="44.7988329" lon="7.9898869"><ele>217.0</ele><time>2026-04-08T11:02:21.97Z</time></trkpt><trkpt lat="44.7989048" lon="7.9897865"><ele>216.99999999999997</ele><time>2026-04-08T11:02:22.97Z</time></trkpt><trkpt lat="44.7989796" lon="7.9896926"><ele>217.0</ele><time>2026-04-08T11:02:23.97Z</time></trkpt><trkpt lat="44.7990587" lon="7.9896527"><ele>217.0</ele><time>2026-04-08T11:02:24.97Z</time></trkpt><trkpt lat="44.7991425" lon="7.989646"><ele>217.0</ele><time>2026-04-08T11:02:25.97Z</time></trkpt><trkpt lat="44.7992183" lon="7.989651"><ele>216.99999999999997</ele><time>2026-04-08T11:02:26.97Z</time></trkpt><trkpt lat="44.7992933" lon="7.9896549"><ele>217.0</ele><time>2026-04-08T11:02:27.97Z</time></trkpt><trkpt lat="44.7993685" lon="7.9896528"><ele>218.83333333333331</ele><time>2026-04-08T11:02:28.97Z</time></trkpt><trkpt lat="44.7994554" lon="7.9896785"><ele>220.66666666666666</ele><time>2026-04-08T11:02:29.97Z</time></trkpt><trkpt lat="44.7995366" lon="7.9897264"><ele>222.5</ele><time>2026-04-08T11:02:30.97Z</time></trkpt><trkpt lat="44.7996066" lon="7.9897914"><ele>224.33333333333331</ele><time>2026-04-08T11:02:31.97Z</time></trkpt><trkpt lat="44.7996673" lon="7.9898864"><ele>226.16666666666666</ele><time>2026-04-08T11:02:32.97Z</time></trkpt><trkpt lat="44.7997268" lon="7.9899818"><ele>228.0</ele><time>2026-04-08T11:02:33.97Z</time></trkpt><trkpt lat="44.7997838" lon="7.9900931"><ele>228.0</ele><time>2026-04-08T11:02:34.97Z</time></trkpt><trkpt lat="44.7998381" lon="7.9902022"><ele>228.0</ele><time>2026-04-08T11:02:35.97Z</time></trkpt><trkpt lat="44.799881" lon="7.9902947"><ele>228.0</ele><time>2026-04-08T11:02:36.97Z</time></trkpt><trkpt lat="44.7999226" lon="7.99039"><ele>228.0</ele><time>2026-04-08T11:02:37.97Z</time></trkpt><trkpt lat="44.7999633" lon="7.9904755"><ele>228.0</ele><time>2026-04-08T11:02:38.97Z</time></trkpt><trkpt lat="44.8000057" lon="7.9905572"><ele>228.0</ele><time>2026-04-08T11:02:39.97Z</time></trkpt><trkpt lat="44.8000428" lon="7.9906438"><ele>228.0</ele><time>2026-04-08T11:02:40.97Z</time></trkpt><trkpt lat="44.8001268" lon="7.9907528"><ele>228.0</ele><time>2026-04-08T11:02:42.97Z</time></trkpt><trkpt lat="44.800247" lon="7.9907993"><ele>228.0</ele><time>2026-04-08T11:02:44.97Z</time></trkpt><trkpt lat="44.8003196" lon="7.9908104"><ele>228.0</ele><time>2026-04-08T11:02:45.97Z</time></trkpt><trkpt lat="44.8003969" lon="7.9908193"><ele>228.0</ele><time>2026-04-08T11:02:46.97Z</time></trkpt><trkpt lat="44.8004815" lon="7.9908352"><ele>227.66666666666666</ele><time>2026-04-08T11:02:47.97Z</time></trkpt><trkpt lat="44.8005589" lon="7.9908346"><ele>227.33333333333331</ele><time>2026-04-08T11:02:48.97Z</time></trkpt><trkpt lat="44.8006437" lon="7.9908444"><ele>227.0</ele><time>2026-04-08T11:02:49.97Z</time></trkpt><trkpt lat="44.8007237" lon="7.9908527"><ele>226.66666666666666</ele><time>2026-04-08T11:02:50.97Z</time></trkpt><trkpt lat="44.8008055" lon="7.9908583"><ele>226.33333333333331</ele><time>2026-04-08T11:02:51.97Z</time></trkpt><trkpt lat="44.8008988" lon="7.9908736"><ele>226.0</ele><time>2026-04-08T11:02:52.97Z</time></trkpt><trkpt lat="44.8009869" lon="7.9908598"><ele>225.8</ele><time>2026-04-08T11:02:53.97Z</time></trkpt><trkpt lat="44.8010777" lon="7.9908495"><ele>225.60000000000002</ele><time>2026-04-08T11:02:54.97Z</time></trkpt><trkpt lat="44.8011774" lon="7.9908438"><ele>225.4</ele><time>2026-04-08T11:02:55.97Z</time></trkpt><trkpt lat="44.8012758" lon="7.9908278"><ele>225.2</ele><time>2026-04-08T11:02:56.97Z</time></trkpt><trkpt lat="44.8013755" lon="7.9908141"><ele>225.0</ele><time>2026-04-08T11:02:57.97Z</time></trkpt><trkpt lat="44.8014776" lon="7.9907965"><ele>229.0</ele><time>2026-04-08T11:02:58.97Z</time></trkpt><trkpt lat="44.801574" lon="7.9907639"><ele>233.0</ele><time>2026-04-08T11:02:59.97Z</time></trkpt><trkpt lat="44.80167" lon="7.9907141"><ele>237.0</ele><time>2026-04-08T11:03:00.97Z</time></trkpt><trkpt lat="44.8017624" lon="7.9906531"><ele>241.0</ele><time>2026-04-08T11:03:01.97Z</time></trkpt><trkpt lat="44.8018593" lon="7.9905675"><ele>245.0</ele><time>2026-04-08T11:03:02.97Z</time></trkpt><trkpt lat="44.8019457" lon="7.9904758"><ele>246.25</ele><time>2026-04-08T11:03:03.97Z</time></trkpt><trkpt lat="44.8020393" lon="7.9903738"><ele>247.5</ele><time>2026-04-08T11:03:04.97Z</time></trkpt><trkpt lat="44.8021425" lon="7.9902915"><ele>248.75</ele><time>2026-04-08T11:03:05.97Z</time></trkpt><trkpt lat="44.8022596" lon="7.9902267"><ele>250.0</ele><time>2026-04-08T11:03:06.97Z</time></trkpt><trkpt lat="44.8023716" lon="7.9901914"><ele>250.0</ele><time>2026-04-08T11:03:07.97Z</time></trkpt><trkpt lat="44.8024752" lon="7.9901497"><ele>250.0</ele><time>2026-04-08T11:03:08.97Z</time></trkpt><trkpt lat="44.8025676" lon="7.9901036"><ele>250.0</ele><time>2026-04-08T11:03:09.97Z</time></trkpt><trkpt lat="44.8026672" lon="7.9900642"><ele>250.0</ele><time>2026-04-08T11:03:10.97Z</time></trkpt><trkpt lat="44.8027624" lon="7.9900198"><ele>250.0</ele><time>2026-04-08T11:03:11.97Z</time></trkpt><trkpt lat="44.8028559" lon="7.9899713"><ele>254.0</ele><time>2026-04-08T11:03:12.97Z</time></trkpt><trkpt lat="44.8029508" lon="7.9899149"><ele>258.0</ele><time>2026-04-08T11:03:13.97Z</time></trkpt><trkpt lat="44.8030462" lon="7.9898675"><ele>262.0</ele><time>2026-04-08T11:03:14.97Z</time></trkpt><trkpt lat="44.8031474" lon="7.989825"><ele>266.0</ele><time>2026-04-08T11:03:15.97Z</time></trkpt><trkpt lat="44.8032518" lon="7.9898307"><ele>270.0</ele><time>2026-04-08T11:03:16.97Z</time></trkpt><trkpt lat="44.8033532" lon="7.9898603"><ele>270.0</ele><time>2026-04-08T11:03:17.97Z</time></trkpt><trkpt lat="44.8034588" lon="7.9898995"><ele>270.0</ele><time>2026-04-08T11:03:18.97Z</time></trkpt><trkpt lat="44.803565" lon="7.9899523"><ele>270.0</ele><time>2026-04-08T11:03:19.97Z</time></trkpt><trkpt lat="44.8036511" lon="7.990018"><ele>270.0</ele><time>2026-04-08T11:03:20.97Z</time></trkpt><trkpt lat="44.8037206" lon="7.9900816"><ele>270.0</ele><time>2026-04-08T11:03:21.97Z</time></trkpt><trkpt lat="44.8037767" lon="7.9901882"><ele>273.3333333333333</ele><time>2026-04-08T11:03:22.97Z</time></trkpt><trkpt lat="44.8038107" lon="7.9903017"><ele>276.6666666666667</ele><time>2026-04-08T11:03:23.97Z</time></trkpt><trkpt lat="44.8038099" lon="7.9904192"><ele>280.0</ele><time>2026-04-08T11:03:24.97Z</time></trkpt><trkpt lat="44.8037853" lon="7.9905335"><ele>283.33333333333337</ele><time>2026-04-08T11:03:25.97Z</time></trkpt><trkpt lat="44.8037577" lon="7.9906453"><ele>286.6666666666667</ele><time>2026-04-08T11:03:26.97Z</time></trkpt><trkpt lat="44.8037304" lon="7.9907452"><ele>290.0</ele><time>2026-04-08T11:03:27.97Z</time></trkpt><trkpt lat="44.803704" lon="7.9908382"><ele>287.8</ele><time>2026-04-08T11:03:28.97Z</time></trkpt><trkpt lat="44.8036664" lon="7.990988"><ele>285.6</ele><time>2026-04-08T11:03:30.97Z</time></trkpt><trkpt lat="44.8036471" lon="7.9910728"><ele>283.4</ele><time>2026-04-08T11:03:31.97Z</time></trkpt><trkpt lat="44.8036662" lon="7.9912093"><ele>281.2</ele><time>2026-04-08T11:03:33.97Z</time></trkpt><trkpt lat="44.8037575" lon="7.9913034"><ele>279.0</ele><time>2026-04-08T11:03:35.97Z</time></trkpt><trkpt lat="44.8038182" lon="7.9913398"><ele>279.0</ele><time>2026-04-08T11:03:36.97Z</time></trkpt><trkpt lat="44.8038833" lon="7.9913709"><ele>279.0</ele><time>2026-04-08T11:03:37.97Z</time></trkpt><trkpt lat="44.803943" lon="7.9914089"><ele>279.0</ele><time>2026-04-08T11:03:38.97Z</time></trkpt><trkpt lat="44.8040112" lon="7.9914442"><ele>279.0</ele><time>2026-04-08T11:03:39.97Z</time></trkpt><trkpt lat="44.8040903" lon="7.9914886"><ele>279.0</ele><time>2026-04-08T11:03:40.97Z</time></trkpt><trkpt lat="44.8041679" lon="7.9915326"><ele>279.0</ele><time>2026-04-08T11:03:41.97Z</time></trkpt><trkpt lat="44.8042547" lon="7.9915836"><ele>277.4</ele><time>2026-04-08T11:03:42.97Z</time></trkpt><trkpt lat="44.8043326" lon="7.9916342"><ele>275.79999999999995</ele><time>2026-04-08T11:03:43.97Z</time></trkpt><trkpt lat="44.804408" lon="7.9916974"><ele>274.20000000000005</ele><time>2026-04-08T11:03:44.97Z</time></trkpt><trkpt lat="44.804483" lon="7.99176"><ele>272.6</ele><time>2026-04-08T11:03:45.97Z</time></trkpt><trkpt lat="44.8045665" lon="7.9918236"><ele>271.0</ele><time>2026-04-08T11:03:46.97Z</time></trkpt><trkpt lat="44.8046624" lon="7.9918819"><ele>271.0</ele><time>2026-04-08T11:03:47.97Z</time></trkpt><trkpt lat="44.8047672" lon="7.9919297"><ele>271.0</ele><time>2026-04-08T11:03:48.97Z</time></trkpt><trkpt lat="44.8048725" lon="7.9919744"><ele>271.0</ele><time>2026-04-08T11:03:49.97Z</time></trkpt><trkpt lat="44.804971" lon="7.992015"><ele>271.0</ele><time>2026-04-08T11:03:50.97Z</time></trkpt><trkpt lat="44.8050656" lon="7.9920636"><ele>271.0</ele><time>2026-04-08T11:03:51.97Z</time></trkpt><trkpt lat="44.8051508" lon="7.9921179"><ele>271.0</ele><time>2026-04-08T11:03:52.97Z</time></trkpt><trkpt lat="44.8052288" lon="7.9921785"><ele>271.0</ele><time>2026-04-08T11:03:53.97Z</time></trkpt><trkpt lat="44.8052993" lon="7.9922588"><ele>271.0</ele><time>2026-04-08T11:03:54.97Z</time></trkpt><trkpt lat="44.8053618" lon="7.9923516"><ele>271.0</ele><time>2026-04-08T11:03:55.97Z</time></trkpt><trkpt lat="44.8054171" lon="7.9924523"><ele>271.0</ele><time>2026-04-08T11:03:56.97Z</time></trkpt><trkpt lat="44.8054739" lon="7.9925671"><ele>271.0</ele><time>2026-04-08T11:03:57.97Z</time></trkpt><trkpt lat="44.8055394" lon="7.9927053"><ele>271.0</ele><time>2026-04-08T11:03:58.97Z</time></trkpt><trkpt lat="44.805599" lon="7.9928395"><ele>271.0</ele><time>2026-04-08T11:03:59.97Z</time></trkpt><trkpt lat="44.8056519" lon="7.9929786"><ele>271.0</ele><time>2026-04-08T11:04:00.97Z</time></trkpt><trkpt lat="44.8057132" lon="7.9931274"><ele>271.0</ele><time>2026-04-08T11:04:01.97Z</time></trkpt><trkpt lat="44.8057752" lon="7.9932677"><ele>271.0</ele><time>2026-04-08T11:04:02.97Z</time></trkpt><trkpt lat="44.8058398" lon="7.9934034"><ele>271.0</ele><time>2026-04-08T11:04:03.97Z</time></trkpt><trkpt lat="44.8059017" lon="7.993531"><ele>271.0</ele><time>2026-04-08T11:04:04.97Z</time></trkpt><trkpt lat="44.8059595" lon="7.993661"><ele>269.0</ele><time>2026-04-08T11:04:05.97Z</time></trkpt><trkpt lat="44.8060181" lon="7.9937823"><ele>267.0</ele><time>2026-04-08T11:04:06.97Z</time></trkpt><trkpt lat="44.8060772" lon="7.9938903"><ele>265.0</ele><time>2026-04-08T11:04:07.97Z</time></trkpt><trkpt lat="44.8061294" lon="7.9940164"><ele>263.0</ele><time>2026-04-08T11:04:08.97Z</time></trkpt><trkpt lat="44.8061884" lon="7.9941348"><ele>261.0</ele><time>2026-04-08T11:04:09.97Z</time></trkpt><trkpt lat="44.8062498" lon="7.9942622"><ele>261.0</ele><time>2026-04-08T11:04:10.97Z</time></trkpt><trkpt lat="44.8063099" lon="7.9943977"><ele>261.0</ele><time>2026-04-08T11:04:11.97Z</time></trkpt><trkpt lat="44.8063712" lon="7.9945426"><ele>261.0</ele><time>2026-04-08T11:04:12.97Z</time></trkpt><trkpt lat="44.8064148" lon="7.9946904"><ele>261.0</ele><time>2026-04-08T11:04:13.97Z</time></trkpt><trkpt lat="44.806446" lon="7.9948383"><ele>261.0</ele><time>2026-04-08T11:04:14.97Z</time></trkpt><trkpt lat="44.8064767" lon="7.995001"><ele>261.0</ele><time>2026-04-08T11:04:15.97Z</time></trkpt><trkpt lat="44.8065181" lon="7.9951717"><ele>261.0</ele><time>2026-04-08T11:04:16.97Z</time></trkpt><trkpt lat="44.806561" lon="7.9953519"><ele>261.0</ele><time>2026-04-08T11:04:17.97Z</time></trkpt><trkpt lat="44.8066221" lon="7.995525"><ele>262.0</ele><time>2026-04-08T11:04:18.97Z</time></trkpt><trkpt lat="44.8066896" lon="7.9956955"><ele>263.0</ele><time>2026-04-08T11:04:19.97Z</time></trkpt><trkpt lat="44.8067634" lon="7.9958798"><ele>264.0</ele><time>2026-04-08T11:04:20.97Z</time></trkpt><trkpt lat="44.8068315" lon="7.9960526"><ele>265.0</ele><time>2026-04-08T11:04:21.97Z</time></trkpt><trkpt lat="44.8068883" lon="7.9962219"><ele>266.5</ele><time>2026-04-08T11:04:22.97Z</time></trkpt><trkpt lat="44.8069414" lon="7.9963857"><ele>268.0</ele><time>2026-04-08T11:04:23.97Z</time></trkpt><trkpt lat="44.8069948" lon="7.9965283"><ele>269.5</ele><time>2026-04-08T11:04:24.97Z</time></trkpt><trkpt lat="44.8070407" lon="7.9966708"><ele>271.0</ele><time>2026-04-08T11:04:25.97Z</time></trkpt><trkpt lat="44.8070901" lon="7.9968024"><ele>271.8</ele><time>2026-04-08T11:04:26.97Z</time></trkpt><trkpt lat="44.807143" lon="7.9969318"><ele>272.6</ele><time>2026-04-08T11:04:27.97Z</time></trkpt><trkpt lat="44.8072047" lon="7.9970531"><ele>273.4</ele><time>2026-04-08T11:04:28.97Z</time></trkpt><trkpt lat="44.8072709" lon="7.9971774"><ele>274.2</ele><time>2026-04-08T11:04:29.97Z</time></trkpt><trkpt lat="44.8073475" lon="7.9973068"><ele>275.0</ele><time>2026-04-08T11:04:30.97Z</time></trkpt><trkpt lat="44.8074108" lon="7.9974285"><ele>275.8</ele><time>2026-04-08T11:04:31.97Z</time></trkpt><trkpt lat="44.807465" lon="7.9975432"><ele>276.6</ele><time>2026-04-08T11:04:32.97Z</time></trkpt><trkpt lat="44.8075246" lon="7.9976528"><ele>277.4</ele><time>2026-04-08T11:04:33.97Z</time></trkpt><trkpt lat="44.8075794" lon="7.9977636"><ele>278.2</ele><time>2026-04-08T11:04:34.97Z</time></trkpt><trkpt lat="44.8076396" lon="7.9978707"><ele>279.0</ele><time>2026-04-08T11:04:35.97Z</time></trkpt><trkpt lat="44.807706" lon="7.9979704"><ele>279.0</ele><time>2026-04-08T11:04:36.97Z</time></trkpt><trkpt lat="44.8077799" lon="7.998067"><ele>279.0</ele><time>2026-04-08T11:04:37.97Z</time></trkpt><trkpt lat="44.8078583" lon="7.9981624"><ele>279.0</ele><time>2026-04-08T11:04:38.97Z</time></trkpt><trkpt lat="44.8079459" lon="7.9982568"><ele>279.0</ele><time>2026-04-08T11:04:39.97Z</time></trkpt><trkpt lat="44.8080363" lon="7.9983561"><ele>279.0</ele><time>2026-04-08T11:04:40.97Z</time></trkpt><trkpt lat="44.8081249" lon="7.9984518"><ele>280.0</ele><time>2026-04-08T11:04:41.97Z</time></trkpt><trkpt lat="44.8082076" lon="7.9985572"><ele>281.0</ele><time>2026-04-08T11:04:42.97Z</time></trkpt><trkpt lat="44.8082833" lon="7.9986583"><ele>282.0</ele><time>2026-04-08T11:04:43.97Z</time></trkpt><trkpt lat="44.808359" lon="7.9987578"><ele>283.0</ele><time>2026-04-08T11:04:44.97Z</time></trkpt><trkpt lat="44.8084288" lon="7.9988449"><ele>284.0</ele><time>2026-04-08T11:04:45.97Z</time></trkpt><trkpt lat="44.808507" lon="7.9989359"><ele>284.0</ele><time>2026-04-08T11:04:46.97Z</time></trkpt><trkpt lat="44.8086013" lon="7.9990089"><ele>284.0</ele><time>2026-04-08T11:04:47.97Z</time></trkpt><trkpt lat="44.8086997" lon="7.99907"><ele>284.0</ele><time>2026-04-08T11:04:48.97Z</time></trkpt><trkpt lat="44.8088042" lon="7.9991218"><ele>284.0</ele><time>2026-04-08T11:04:49.97Z</time></trkpt><trkpt lat="44.8089057" lon="7.9991657"><ele>284.0</ele><time>2026-04-08T11:04:50.97Z</time></trkpt><trkpt lat="44.8090114" lon="7.9992106"><ele>285.59999999999997</ele><time>2026-04-08T11:04:51.97Z</time></trkpt><trkpt lat="44.8091162" lon="7.9992357"><ele>287.2</ele><time>2026-04-08T11:04:52.97Z</time></trkpt><trkpt lat="44.8092307" lon="7.9992522"><ele>288.79999999999995</ele><time>2026-04-08T11:04:53.97Z</time></trkpt><trkpt lat="44.8093381" lon="7.9992792"><ele>290.4</ele><time>2026-04-08T11:04:54.97Z</time></trkpt><trkpt lat="44.809433" lon="7.9993348"><ele>292.0</ele><time>2026-04-08T11:04:55.97Z</time></trkpt><trkpt lat="44.8095084" lon="7.9993955"><ele>292.0</ele><time>2026-04-08T11:04:56.97Z</time></trkpt><trkpt lat="44.8095689" lon="7.9994566"><ele>292.0</ele><time>2026-04-08T11:04:57.97Z</time></trkpt><trkpt lat="44.8096433" lon="7.9995619"><ele>292.0</ele><time>2026-04-08T11:04:59.97Z</time></trkpt><trkpt lat="44.8097101" lon="7.9996592"><ele>292.0</ele><time>2026-04-08T11:05:02.97Z</time></trkpt><trkpt lat="44.8097668" lon="7.9997967"><ele>292.0</ele><time>2026-04-08T11:05:04.97Z</time></trkpt><trkpt lat="44.8097875" lon="7.9998894"><ele>292.0</ele><time>2026-04-08T11:05:05.97Z</time></trkpt><trkpt lat="44.809819" lon="7.9999902"><ele>292.0</ele><time>2026-04-08T11:05:06.97Z</time></trkpt><trkpt lat="44.8098361" lon="8.0000981"><ele>292.0</ele><time>2026-04-08T11:05:07.97Z</time></trkpt><trkpt lat="44.8098549" lon="8.0002008"><ele>292.0</ele><time>2026-04-08T11:05:08.97Z</time></trkpt><trkpt lat="44.8098734" lon="8.0003149"><ele>292.0</ele><time>2026-04-08T11:05:09.97Z</time></trkpt><trkpt lat="44.8098811" lon="8.0004283"><ele>292.0</ele><time>2026-04-08T11:05:10.97Z</time></trkpt><trkpt lat="44.8098894" lon="8.0005492"><ele>292.0</ele><time>2026-04-08T11:05:11.97Z</time></trkpt><trkpt lat="44.8098779" lon="8.0006623"><ele>292.0</ele><time>2026-04-08T11:05:12.97Z</time></trkpt><trkpt lat="44.8098676" lon="8.0007746"><ele>292.0</ele><time>2026-04-08T11:05:13.97Z</time></trkpt><trkpt lat="44.8098494" lon="8.000889"><ele>292.0</ele><time>2026-04-08T11:05:14.97Z</time></trkpt><trkpt lat="44.8098227" lon="8.0009932"><ele>292.0</ele><time>2026-04-08T11:05:15.97Z</time></trkpt><trkpt lat="44.8097885" lon="8.0010928"><ele>292.0</ele><time>2026-04-08T11:05:16.97Z</time></trkpt><trkpt lat="44.8097602" lon="8.001175"><ele>292.3333333333333</ele><time>2026-04-08T11:05:17.97Z</time></trkpt><trkpt lat="44.8097283" lon="8.0012563"><ele>292.66666666666663</ele><time>2026-04-08T11:05:18.97Z</time></trkpt><trkpt lat="44.8096969" lon="8.001334"><ele>293.0</ele><time>2026-04-08T11:05:19.97Z</time></trkpt><trkpt lat="44.8096372" lon="8.0014429"><ele>293.3333333333333</ele><time>2026-04-08T11:05:21.97Z</time></trkpt><trkpt lat="44.8095955" lon="8.0015213"><ele>293.6666666666667</ele><time>2026-04-08T11:05:23.97Z</time></trkpt><trkpt lat="44.809551" lon="8.0016067"><ele>294.0</ele><time>2026-04-08T11:05:26.97Z</time></trkpt><trkpt lat="44.8095131" lon="8.0017096"><ele>294.0</ele><time>2026-04-08T11:05:29.97Z</time></trkpt><trkpt lat="44.8095821" lon="8.0017512"><ele>294.0</ele><time>2026-04-08T11:05:32.97Z</time></trkpt><trkpt lat="44.809641" lon="8.0016813"><ele>294.0</ele><time>2026-04-08T11:05:35.97Z</time></trkpt><trkpt lat="44.8096573" lon="8.0015041"><ele>294.0</ele><time>2026-04-08T11:05:36.97Z</time></trkpt><trkpt lat="44.8097126" lon="8.0013801"><ele>294.0</ele><time>2026-04-08T11:05:38.97Z</time></trkpt><trkpt lat="44.8097491" lon="8.0013006"><ele>293.6666666666667</ele><time>2026-04-08T11:05:39.97Z</time></trkpt><trkpt lat="44.8097797" lon="8.0012183"><ele>293.3333333333333</ele><time>2026-04-08T11:05:40.97Z</time></trkpt><trkpt lat="44.8098064" lon="8.001124"><ele>293.0</ele><time>2026-04-08T11:05:41.97Z</time></trkpt><trkpt lat="44.8098368" lon="8.0010248"><ele>292.66666666666663</ele><time>2026-04-08T11:05:42.97Z</time></trkpt><trkpt lat="44.809864" lon="8.0009177"><ele>292.3333333333333</ele><time>2026-04-08T11:05:43.97Z</time></trkpt><trkpt lat="44.8098916" lon="8.0008063"><ele>292.0</ele><time>2026-04-08T11:05:44.97Z</time></trkpt><trkpt lat="44.8099086" lon="8.0006935"><ele>292.0</ele><time>2026-04-08T11:05:45.97Z</time></trkpt><trkpt lat="44.8099114" lon="8.0005752"><ele>292.0</ele><time>2026-04-08T11:05:46.97Z</time></trkpt><trkpt lat="44.8099077" lon="8.000455"><ele>292.0</ele><time>2026-04-08T11:05:47.97Z</time></trkpt><trkpt lat="44.8098994" lon="8.000326"><ele>292.0</ele><time>2026-04-08T11:05:48.97Z</time></trkpt><trkpt lat="44.8098836" lon="8.0002001"><ele>292.0</ele><time>2026-04-08T11:05:49.97Z</time></trkpt><trkpt lat="44.8098654" lon="8.0000858"><ele>292.0</ele><time>2026-04-08T11:05:50.97Z</time></trkpt><trkpt lat="44.8098377" lon="7.9999586"><ele>292.0</ele><time>2026-04-08T11:05:51.97Z</time></trkpt><trkpt lat="44.8098033" lon="7.9998266"><ele>292.0</ele><time>2026-04-08T11:05:52.97Z</time></trkpt><trkpt lat="44.8097785" lon="7.9996936"><ele>292.0</ele><time>2026-04-08T11:05:53.97Z</time></trkpt><trkpt lat="44.8097606" lon="7.9995608"><ele>292.0</ele><time>2026-04-08T11:05:54.97Z</time></trkpt><trkpt lat="44.80975" lon="7.9994424"><ele>292.0</ele><time>2026-04-08T11:05:55.97Z</time></trkpt><trkpt lat="44.8097521" lon="7.9993529"><ele>292.0</ele><time>2026-04-08T11:05:56.97Z</time></trkpt><trkpt lat="44.8098199" lon="7.9992885"><ele>292.0</ele><time>2026-04-08T11:05:59.97Z</time></trkpt><trkpt lat="44.8098938" lon="7.9992479"><ele>292.0</ele><time>2026-04-08T11:06:01.97Z</time></trkpt><trkpt lat="44.8099838" lon="7.9991953"><ele>292.0</ele><time>2026-04-08T11:06:03.97Z</time></trkpt><trkpt lat="44.8100867" lon="7.9991335"><ele>292.0</ele><time>2026-04-08T11:06:05.97Z</time></trkpt><trkpt lat="44.8101736" lon="7.9991104"><ele>292.0</ele><time>2026-04-08T11:06:07.97Z</time></trkpt><trkpt lat="44.8102634" lon="7.9991"><ele>293.16666666666663</ele><time>2026-04-08T11:06:09.97Z</time></trkpt><trkpt lat="44.8103754" lon="7.9991216"><ele>294.3333333333333</ele><time>2026-04-08T11:06:11.97Z</time></trkpt><trkpt lat="44.8104382" lon="7.9991371"><ele>295.5</ele><time>2026-04-08T11:06:12.97Z</time></trkpt><trkpt lat="44.8105629" lon="7.9991646"><ele>296.6666666666667</ele><time>2026-04-08T11:06:14.97Z</time></trkpt><trkpt lat="44.81063" lon="7.9991544"><ele>297.83333333333337</ele><time>2026-04-08T11:06:15.97Z</time></trkpt><trkpt lat="44.8107039" lon="7.9991544"><ele>299.0</ele><time>2026-04-08T11:06:16.97Z</time></trkpt><trkpt lat="44.8107832" lon="7.9991594"><ele>299.0</ele><time>2026-04-08T11:06:17.97Z</time></trkpt><trkpt lat="44.8108637" lon="7.9991509"><ele>299.0</ele><time>2026-04-08T11:06:18.97Z</time></trkpt><trkpt lat="44.8109366" lon="7.9991671"><ele>299.0</ele><time>2026-04-08T11:06:19.97Z</time></trkpt><trkpt lat="44.811017" lon="7.9991561"><ele>299.0</ele><time>2026-04-08T11:06:20.97Z</time></trkpt><trkpt lat="44.8110971" lon="7.9991547"><ele>299.0</ele><time>2026-04-08T11:06:21.97Z</time></trkpt><trkpt lat="44.8111684" lon="7.9991433"><ele>299.0</ele><time>2026-04-08T11:06:22.97Z</time></trkpt><trkpt lat="44.8112469" lon="7.9991376"><ele>298.83333333333337</ele><time>2026-04-08T11:06:23.97Z</time></trkpt><trkpt lat="44.8113254" lon="7.999133"><ele>298.6666666666667</ele><time>2026-04-08T11:06:24.97Z</time></trkpt><trkpt lat="44.8114094" lon="7.999133"><ele>298.5</ele><time>2026-04-08T11:06:25.97Z</time></trkpt><trkpt lat="44.8114774" lon="7.9991271"><ele>298.3333333333333</ele><time>2026-04-08T11:06:26.97Z</time></trkpt><trkpt lat="44.8115533" lon="7.999122"><ele>298.16666666666663</ele><time>2026-04-08T11:06:27.97Z</time></trkpt><trkpt lat="44.8116214" lon="7.9991309"><ele>298.0</ele><time>2026-04-08T11:06:28.97Z</time></trkpt><trkpt lat="44.8117258" lon="7.99911"><ele>298.0</ele><time>2026-04-08T11:06:30.97Z</time></trkpt><trkpt lat="44.8118047" lon="7.9990323"><ele>298.0</ele><time>2026-04-08T11:06:32.97Z</time></trkpt><trkpt lat="44.8119154" lon="7.9989346"><ele>298.0</ele><time>2026-04-08T11:06:34.97Z</time></trkpt><trkpt lat="44.8119754" lon="7.9988789"><ele>298.0</ele><time>2026-04-08T11:06:35.97Z</time></trkpt><trkpt lat="44.8120405" lon="7.9988106"><ele>298.0</ele><time>2026-04-08T11:06:36.97Z</time></trkpt><trkpt lat="44.8120912" lon="7.9987327"><ele>297.8333333333333</ele><time>2026-04-08T11:06:37.969Z</time></trkpt><trkpt lat="44.8121392" lon="7.9986564"><ele>297.66666666666663</ele><time>2026-04-08T11:06:38.97Z</time></trkpt><trkpt lat="44.8121886" lon="7.9985707"><ele>297.5</ele><time>2026-04-08T11:06:39.97Z</time></trkpt><trkpt lat="44.8122505" lon="7.9985053"><ele>297.3333333333333</ele><time>2026-04-08T11:06:40.97Z</time></trkpt><trkpt lat="44.8123067" lon="7.9984185"><ele>297.1666666666667</ele><time>2026-04-08T11:06:41.97Z</time></trkpt><trkpt lat="44.8123729" lon="7.9983442"><ele>297.0</ele><time>2026-04-08T11:06:42.97Z</time></trkpt><trkpt lat="44.8124395" lon="7.9982651"><ele>297.0</ele><time>2026-04-08T11:06:43.97Z</time></trkpt><trkpt lat="44.8125057" lon="7.998184"><ele>297.0</ele><time>2026-04-08T11:06:44.97Z</time></trkpt><trkpt lat="44.8125685" lon="7.9981081"><ele>297.0</ele><time>2026-04-08T11:06:45.97Z</time></trkpt><trkpt lat="44.8126342" lon="7.9980344"><ele>297.0</ele><time>2026-04-08T11:06:46.97Z</time></trkpt><trkpt lat="44.8126996" lon="7.9979539"><ele>297.0</ele><time>2026-04-08T11:06:47.97Z</time></trkpt><trkpt lat="44.8127598" lon="7.9978749"><ele>297.0</ele><time>2026-04-08T11:06:48.97Z</time></trkpt><trkpt lat="44.8128285" lon="7.9977995"><ele>297.5</ele><time>2026-04-08T11:06:49.97Z</time></trkpt><trkpt lat="44.812896" lon="7.9977133"><ele>298.0</ele><time>2026-04-08T11:06:50.97Z</time></trkpt><trkpt lat="44.8129638" lon="7.9976315"><ele>298.5</ele><time>2026-04-08T11:06:51.97Z</time></trkpt><trkpt lat="44.8130282" lon="7.9975743"><ele>299.0</ele><time>2026-04-08T11:06:52.97Z</time></trkpt><trkpt lat="44.8131013" lon="7.9975033"><ele>299.5</ele><time>2026-04-08T11:06:53.97Z</time></trkpt><trkpt lat="44.8131671" lon="7.9974366"><ele>300.0</ele><time>2026-04-08T11:06:54.97Z</time></trkpt><trkpt lat="44.8132365" lon="7.9973713"><ele>300.0</ele><time>2026-04-08T11:06:55.97Z</time></trkpt><trkpt lat="44.8133119" lon="7.9973044"><ele>300.0</ele><time>2026-04-08T11:06:56.97Z</time></trkpt><trkpt lat="44.8133917" lon="7.9972201"><ele>300.0</ele><time>2026-04-08T11:06:57.97Z</time></trkpt><trkpt lat="44.813461" lon="7.9971391"><ele>300.0</ele><time>2026-04-08T11:06:58.97Z</time></trkpt><trkpt lat="44.813527" lon="7.9970703"><ele>300.0</ele><time>2026-04-08T11:06:59.97Z</time></trkpt><trkpt lat="44.8135902" lon="7.9969863"><ele>300.0</ele><time>2026-04-08T11:07:00.97Z</time></trkpt><trkpt lat="44.8136625" lon="7.9969141"><ele>300.1666666666667</ele><time>2026-04-08T11:07:01.97Z</time></trkpt><trkpt lat="44.8137194" lon="7.9968373"><ele>300.3333333333333</ele><time>2026-04-08T11:07:02.97Z</time></trkpt><trkpt lat="44.8137742" lon="7.9967498"><ele>300.5</ele><time>2026-04-08T11:07:03.97Z</time></trkpt><trkpt lat="44.8138286" lon="7.996686"><ele>300.66666666666663</ele><time>2026-04-08T11:07:04.97Z</time></trkpt><trkpt lat="44.8138723" lon="7.9966009"><ele>300.8333333333333</ele><time>2026-04-08T11:07:05.97Z</time></trkpt><trkpt lat="44.8139351" lon="7.9965154"><ele>301.0</ele><time>2026-04-08T11:07:06.97Z</time></trkpt><trkpt lat="44.8139905" lon="7.9964059"><ele>304.6</ele><time>2026-04-08T11:07:07.97Z</time></trkpt><trkpt lat="44.8140418" lon="7.9962755"><ele>308.20000000000005</ele><time>2026-04-08T11:07:09.97Z</time></trkpt><trkpt lat="44.814081" lon="7.9961572"><ele>311.79999999999995</ele><time>2026-04-08T11:07:11.97Z</time></trkpt><trkpt lat="44.8141395" lon="7.9960413"><ele>315.4</ele><time>2026-04-08T11:07:14.97Z</time></trkpt><trkpt lat="44.8141899" lon="7.9959319"><ele>319.0</ele><time>2026-04-08T11:07:17.97Z</time></trkpt><trkpt lat="44.8142381" lon="7.9958367"><ele>319.5</ele><time>2026-04-08T11:07:20.97Z</time></trkpt><trkpt lat="44.8142502" lon="7.995732"><ele>320.0</ele><time>2026-04-08T11:07:23.97Z</time></trkpt><trkpt lat="44.8142709" lon="7.9956366"><ele>320.5</ele><time>2026-04-08T11:07:25.97Z</time></trkpt><trkpt lat="44.8143057" lon="7.9955238"><ele>321.0</ele><time>2026-04-08T11:07:27.97Z</time></trkpt><trkpt lat="44.8143534" lon="7.9953812"><ele>321.5</ele><time>2026-04-08T11:07:29.97Z</time></trkpt><trkpt lat="44.8143932" lon="7.9953008"><ele>322.0</ele><time>2026-04-08T11:07:30.97Z</time></trkpt><trkpt lat="44.8144396" lon="7.9952352"><ele>323.8333333333333</ele><time>2026-04-08T11:07:31.97Z</time></trkpt><trkpt lat="44.8144953" lon="7.9951848"><ele>325.66666666666663</ele><time>2026-04-08T11:07:32.97Z</time></trkpt><trkpt lat="44.8145626" lon="7.9951281"><ele>327.5</ele><time>2026-04-08T11:07:33.97Z</time></trkpt><trkpt lat="44.8146308" lon="7.9950784"><ele>329.3333333333333</ele><time>2026-04-08T11:07:34.97Z</time></trkpt><trkpt lat="44.8146958" lon="7.9950434"><ele>331.1666666666667</ele><time>2026-04-08T11:07:35.97Z</time></trkpt><trkpt lat="44.8147672" lon="7.9949985"><ele>333.0</ele><time>2026-04-08T11:07:36.97Z</time></trkpt><trkpt lat="44.8148528" lon="7.9949557"><ele>333.0</ele><time>2026-04-08T11:07:37.97Z</time></trkpt><trkpt lat="44.8149339" lon="7.9949107"><ele>333.0</ele><time>2026-04-08T11:07:38.97Z</time></trkpt><trkpt lat="44.8150196" lon="7.9948493"><ele>333.0</ele><time>2026-04-08T11:07:39.97Z</time></trkpt><trkpt lat="44.8150961" lon="7.9947671"><ele>333.0</ele><time>2026-04-08T11:07:40.97Z</time></trkpt><trkpt lat="44.8151602" lon="7.9946723"><ele>333.0</ele><time>2026-04-08T11:07:41.97Z</time></trkpt><trkpt lat="44.8152232" lon="7.9945693"><ele>334.79999999999995</ele><time>2026-04-08T11:07:42.97Z</time></trkpt><trkpt lat="44.8152931" lon="7.9944535"><ele>336.6</ele><time>2026-04-08T11:07:43.97Z</time></trkpt><trkpt lat="44.8153648" lon="7.994344"><ele>338.4</ele><time>2026-04-08T11:07:44.97Z</time></trkpt><trkpt lat="44.8154316" lon="7.9942426"><ele>340.20000000000005</ele><time>2026-04-08T11:07:45.97Z</time></trkpt><trkpt lat="44.8154993" lon="7.9941391"><ele>342.0</ele><time>2026-04-08T11:07:46.97Z</time></trkpt><trkpt lat="44.8155839" lon="7.9940281"><ele>342.0</ele><time>2026-04-08T11:07:47.97Z</time></trkpt><trkpt lat="44.8156767" lon="7.9939309"><ele>342.0</ele><time>2026-04-08T11:07:48.97Z</time></trkpt><trkpt lat="44.8157847" lon="7.9938405"><ele>342.0</ele><time>2026-04-08T11:07:49.97Z</time></trkpt><trkpt lat="44.8158994" lon="7.9937581"><ele>342.0</ele><time>2026-04-08T11:07:50.97Z</time></trkpt><trkpt lat="44.816026" lon="7.9936819"><ele>341.25</ele><time>2026-04-08T11:07:51.97Z</time></trkpt><trkpt lat="44.8161666" lon="7.9936244"><ele>340.5</ele><time>2026-04-08T11:07:52.97Z</time></trkpt><trkpt lat="44.816312" lon="7.9935703"><ele>339.75</ele><time>2026-04-08T11:07:53.97Z</time></trkpt><trkpt lat="44.8164605" lon="7.993544"><ele>339.0</ele><time>2026-04-08T11:07:54.97Z</time></trkpt><trkpt lat="44.816609" lon="7.993508"><ele>339.0</ele><time>2026-04-08T11:07:55.97Z</time></trkpt><trkpt lat="44.8167573" lon="7.9934651"><ele>339.0</ele><time>2026-04-08T11:07:56.97Z</time></trkpt><trkpt lat="44.8169084" lon="7.9934124"><ele>339.0</ele><time>2026-04-08T11:07:57.97Z</time></trkpt><trkpt lat="44.8170634" lon="7.9933948"><ele>339.0</ele><time>2026-04-08T11:07:58.97Z</time></trkpt><trkpt lat="44.8172206" lon="7.9933628"><ele>339.0</ele><time>2026-04-08T11:07:59.97Z</time></trkpt><trkpt lat="44.8173654" lon="7.9933298"><ele>339.0</ele><time>2026-04-08T11:08:00.97Z</time></trkpt><trkpt lat="44.8175011" lon="7.9932841"><ele>339.0</ele><time>2026-04-08T11:08:01.97Z</time></trkpt><trkpt lat="44.817637" lon="7.9932429"><ele>338.5</ele><time>2026-04-08T11:08:02.97Z</time></trkpt><trkpt lat="44.8177508" lon="7.9931182"><ele>338.0</ele><time>2026-04-08T11:08:03.97Z</time></trkpt><trkpt lat="44.8178523" lon="7.9929886"><ele>337.5</ele><time>2026-04-08T11:08:04.97Z</time></trkpt><trkpt lat="44.8179535" lon="7.9928761"><ele>337.0</ele><time>2026-04-08T11:08:05.97Z</time></trkpt><trkpt lat="44.8180703" lon="7.9928074"><ele>337.0</ele><time>2026-04-08T11:08:06.97Z</time></trkpt><trkpt lat="44.8181956" lon="7.9927763"><ele>337.0</ele><time>2026-04-08T11:08:07.97Z</time></trkpt><trkpt lat="44.8183206" lon="7.9927775"><ele>337.0</ele><time>2026-04-08T11:08:08.97Z</time></trkpt><trkpt lat="44.8184496" lon="7.992794"><ele>337.0</ele><time>2026-04-08T11:08:09.97Z</time></trkpt><trkpt lat="44.8185769" lon="7.9928235"><ele>337.75</ele><time>2026-04-08T11:08:10.97Z</time></trkpt><trkpt lat="44.8187147" lon="7.9928754"><ele>338.5</ele><time>2026-04-08T11:08:11.97Z</time></trkpt><trkpt lat="44.81884" lon="7.9929116"><ele>339.25</ele><time>2026-04-08T11:08:12.97Z</time></trkpt><trkpt lat="44.8189636" lon="7.9929446"><ele>340.0</ele><time>2026-04-08T11:08:13.97Z</time></trkpt><trkpt lat="44.8190765" lon="7.9929633"><ele>340.0</ele><time>2026-04-08T11:08:14.97Z</time></trkpt><trkpt lat="44.8191894" lon="7.9930011"><ele>340.0</ele><time>2026-04-08T11:08:15.97Z</time></trkpt><trkpt lat="44.8193033" lon="7.9930576"><ele>340.0</ele><time>2026-04-08T11:08:16.97Z</time></trkpt><trkpt lat="44.8194139" lon="7.9931121"><ele>340.0</ele><time>2026-04-08T11:08:17.97Z</time></trkpt><trkpt lat="44.8195134" lon="7.9931686"><ele>340.0</ele><time>2026-04-08T11:08:18.97Z</time></trkpt><trkpt lat="44.8196074" lon="7.993233"><ele>340.0</ele><time>2026-04-08T11:08:19.97Z</time></trkpt><trkpt lat="44.8196961" lon="7.9933126"><ele>340.0</ele><time>2026-04-08T11:08:20.97Z</time></trkpt><trkpt lat="44.8197741" lon="7.9934022"><ele>340.0</ele><time>2026-04-08T11:08:21.97Z</time></trkpt><trkpt lat="44.8198347" lon="7.9935094"><ele>340.0</ele><time>2026-04-08T11:08:22.97Z</time></trkpt><trkpt lat="44.8198796" lon="7.9936243"><ele>340.0</ele><time>2026-04-08T11:08:23.97Z</time></trkpt><trkpt lat="44.819924" lon="7.9937319"><ele>340.0</ele><time>2026-04-08T11:08:24.97Z</time></trkpt><trkpt lat="44.8199601" lon="7.9938362"><ele>340.0</ele><time>2026-04-08T11:08:25.97Z</time></trkpt><trkpt lat="44.8200011" lon="7.9939328"><ele>340.0</ele><time>2026-04-08T11:08:26.97Z</time></trkpt><trkpt lat="44.82005" lon="7.9940236"><ele>340.0</ele><time>2026-04-08T11:08:27.97Z</time></trkpt><trkpt lat="44.8200923" lon="7.994111"><ele>340.0</ele><time>2026-04-08T11:08:28.97Z</time></trkpt><trkpt lat="44.820136" lon="7.9941964"><ele>340.16666666666663</ele><time>2026-04-08T11:08:29.97Z</time></trkpt><trkpt lat="44.8201722" lon="7.9942913"><ele>340.3333333333333</ele><time>2026-04-08T11:08:30.97Z</time></trkpt><trkpt lat="44.8202062" lon="7.9944068"><ele>340.5</ele><time>2026-04-08T11:08:31.97Z</time></trkpt><trkpt lat="44.8202201" lon="7.9945136"><ele>340.6666666666667</ele><time>2026-04-08T11:08:32.97Z</time></trkpt><trkpt lat="44.8202197" lon="7.9946324"><ele>340.83333333333337</ele><time>2026-04-08T11:08:33.97Z</time></trkpt><trkpt lat="44.8202228" lon="7.9947541"><ele>341.0</ele><time>2026-04-08T11:08:34.97Z</time></trkpt><trkpt lat="44.8202231" lon="7.9948636"><ele>341.0</ele><time>2026-04-08T11:08:35.97Z</time></trkpt><trkpt lat="44.8202273" lon="7.9949746"><ele>341.0</ele><time>2026-04-08T11:08:36.97Z</time></trkpt><trkpt lat="44.8202428" lon="7.9950842"><ele>341.0</ele><time>2026-04-08T11:08:37.97Z</time></trkpt><trkpt lat="44.8202713" lon="7.9951881"><ele>341.0</ele><time>2026-04-08T11:08:38.97Z</time></trkpt><trkpt lat="44.820314" lon="7.9952894"><ele>341.0</ele><time>2026-04-08T11:08:39.97Z</time></trkpt><trkpt lat="44.8203698" lon="7.9953739"><ele>341.0</ele><time>2026-04-08T11:08:40.97Z</time></trkpt><trkpt lat="44.8204353" lon="7.9954546"><ele>340.6666666666667</ele><time>2026-04-08T11:08:41.97Z</time></trkpt><trkpt lat="44.8205076" lon="7.9955197"><ele>340.33333333333337</ele><time>2026-04-08T11:08:42.97Z</time></trkpt><trkpt lat="44.8205864" lon="7.9955748"><ele>340.0</ele><time>2026-04-08T11:08:43.97Z</time></trkpt><trkpt lat="44.8206647" lon="7.9956264"><ele>339.6666666666667</ele><time>2026-04-08T11:08:44.97Z</time></trkpt><trkpt lat="44.8207295" lon="7.9956753"><ele>339.3333333333333</ele><time>2026-04-08T11:08:45.97Z</time></trkpt><trkpt lat="44.820801" lon="7.9957218"><ele>339.0</ele><time>2026-04-08T11:08:46.97Z</time></trkpt><trkpt lat="44.8208718" lon="7.99577"><ele>339.0</ele><time>2026-04-08T11:08:47.97Z</time></trkpt><trkpt lat="44.8209429" lon="7.9958131"><ele>339.0</ele><time>2026-04-08T11:08:48.97Z</time></trkpt><trkpt lat="44.8210095" lon="7.9958493"><ele>339.0</ele><time>2026-04-08T11:08:49.97Z</time></trkpt><trkpt lat="44.821089" lon="7.9958734"><ele>339.0</ele><time>2026-04-08T11:08:50.97Z</time></trkpt><trkpt lat="44.8211619" lon="7.995902"><ele>339.0</ele><time>2026-04-08T11:08:51.97Z</time></trkpt><trkpt lat="44.8212278" lon="7.9959226"><ele>339.0</ele><time>2026-04-08T11:08:52.97Z</time></trkpt><trkpt lat="44.8212939" lon="7.9959394"><ele>339.0</ele><time>2026-04-08T11:08:53.97Z</time></trkpt><trkpt lat="44.8213646" lon="7.995945"><ele>339.0</ele><time>2026-04-08T11:08:54.97Z</time></trkpt><trkpt lat="44.8214481" lon="7.9959464"><ele>339.0</ele><time>2026-04-08T11:08:55.97Z</time></trkpt><trkpt lat="44.8215399" lon="7.9959306"><ele>339.0</ele><time>2026-04-08T11:08:56.97Z</time></trkpt><trkpt lat="44.8216155" lon="7.9958551"><ele>339.0</ele><time>2026-04-08T11:08:57.97Z</time></trkpt><trkpt lat="44.8217005" lon="7.9958167"><ele>339.0</ele><time>2026-04-08T11:08:58.97Z</time></trkpt><trkpt lat="44.8217846" lon="7.9957463"><ele>338.6</ele><time>2026-04-08T11:08:59.97Z</time></trkpt><trkpt lat="44.8218741" lon="7.9956981"><ele>338.2</ele><time>2026-04-08T11:09:00.97Z</time></trkpt><trkpt lat="44.8219555" lon="7.9956452"><ele>337.8</ele><time>2026-04-08T11:09:01.97Z</time></trkpt><trkpt lat="44.8220439" lon="7.9956078"><ele>337.40000000000003</ele><time>2026-04-08T11:09:02.97Z</time></trkpt><trkpt lat="44.8221343" lon="7.9955802"><ele>337.0</ele><time>2026-04-08T11:09:03.97Z</time></trkpt><trkpt lat="44.8222298" lon="7.9955382"><ele>337.0</ele><time>2026-04-08T11:09:04.97Z</time></trkpt><trkpt lat="44.8223267" lon="7.9955176"><ele>337.0</ele><time>2026-04-08T11:09:05.97Z</time></trkpt><trkpt lat="44.8224252" lon="7.9954921"><ele>337.0</ele><time>2026-04-08T11:09:06.97Z</time></trkpt><trkpt lat="44.8225293" lon="7.9954906"><ele>337.0</ele><time>2026-04-08T11:09:07.97Z</time></trkpt><trkpt lat="44.8226273" lon="7.9954932"><ele>337.0</ele><time>2026-04-08T11:09:08.97Z</time></trkpt><trkpt lat="44.8227168" lon="7.9954992"><ele>337.40000000000003</ele><time>2026-04-08T11:09:09.97Z</time></trkpt><trkpt lat="44.8228132" lon="7.9955123"><ele>337.8</ele><time>2026-04-08T11:09:10.97Z</time></trkpt><trkpt lat="44.8229078" lon="7.9955316"><ele>338.2</ele><time>2026-04-08T11:09:11.97Z</time></trkpt><trkpt lat="44.8230077" lon="7.9955526"><ele>338.6</ele><time>2026-04-08T11:09:12.97Z</time></trkpt><trkpt lat="44.8231153" lon="7.9955797"><ele>339.0</ele><time>2026-04-08T11:09:13.97Z</time></trkpt><trkpt lat="44.8232181" lon="7.9956006"><ele>339.0</ele><time>2026-04-08T11:09:14.97Z</time></trkpt><trkpt lat="44.8233245" lon="7.9956236"><ele>339.0</ele><time>2026-04-08T11:09:15.97Z</time></trkpt><trkpt lat="44.8234323" lon="7.9956425"><ele>339.0</ele><time>2026-04-08T11:09:16.97Z</time></trkpt><trkpt lat="44.8235446" lon="7.9956734"><ele>339.0</ele><time>2026-04-08T11:09:17.97Z</time></trkpt><trkpt lat="44.823645" lon="7.9957136"><ele>339.0</ele><time>2026-04-08T11:09:18.97Z</time></trkpt><trkpt lat="44.8237312" lon="7.9957738"><ele>337.0</ele><time>2026-04-08T11:09:19.97Z</time></trkpt><trkpt lat="44.8238029" lon="7.9958481"><ele>335.0</ele><time>2026-04-08T11:09:20.97Z</time></trkpt><trkpt lat="44.8238479" lon="7.9959712"><ele>333.0</ele><time>2026-04-08T11:09:21.97Z</time></trkpt><trkpt lat="44.8238642" lon="7.9961023"><ele>331.0</ele><time>2026-04-08T11:09:22.97Z</time></trkpt><trkpt lat="44.8238759" lon="7.9962381"><ele>329.0</ele><time>2026-04-08T11:09:23.97Z</time></trkpt><trkpt lat="44.8238848" lon="7.9963781"><ele>329.0</ele><time>2026-04-08T11:09:24.97Z</time></trkpt><trkpt lat="44.823896" lon="7.9965155"><ele>329.0</ele><time>2026-04-08T11:09:25.97Z</time></trkpt><trkpt lat="44.8239114" lon="7.9966639"><ele>329.0</ele><time>2026-04-08T11:09:26.97Z</time></trkpt><trkpt lat="44.824011" lon="7.9967872"><ele>329.0</ele><time>2026-04-08T11:09:27.97Z</time></trkpt><trkpt lat="44.8240852" lon="7.9968931"><ele>329.0</ele><time>2026-04-08T11:09:28.97Z</time></trkpt><trkpt lat="44.8241709" lon="7.9969594"><ele>329.0</ele><time>2026-04-08T11:09:29.97Z</time></trkpt><trkpt lat="44.8242673" lon="7.9970078"><ele>329.0</ele><time>2026-04-08T11:09:30.97Z</time></trkpt><trkpt lat="44.8243716" lon="7.9970631"><ele>329.0</ele><time>2026-04-08T11:09:31.97Z</time></trkpt><trkpt lat="44.8244802" lon="7.9971234"><ele>329.0</ele><time>2026-04-08T11:09:32.97Z</time></trkpt><trkpt lat="44.824579" lon="7.9971918"><ele>329.0</ele><time>2026-04-08T11:09:33.97Z</time></trkpt><trkpt lat="44.8246757" lon="7.99726"><ele>329.0</ele><time>2026-04-08T11:09:34.97Z</time></trkpt><trkpt lat="44.8247531" lon="7.9973286"><ele>329.0</ele><time>2026-04-08T11:09:35.97Z</time></trkpt><trkpt lat="44.8248255" lon="7.9974107"><ele>329.0</ele><time>2026-04-08T11:09:36.97Z</time></trkpt><trkpt lat="44.8248865" lon="7.9974849"><ele>329.0</ele><time>2026-04-08T11:09:37.97Z</time></trkpt><trkpt lat="44.8249405" lon="7.9975971"><ele>329.0</ele><time>2026-04-08T11:09:38.97Z</time></trkpt><trkpt lat="44.8249878" lon="7.9977134"><ele>328.79999999999995</ele><time>2026-04-08T11:09:39.97Z</time></trkpt><trkpt lat="44.8250449" lon="7.9978493"><ele>328.59999999999997</ele><time>2026-04-08T11:09:40.97Z</time></trkpt><trkpt lat="44.8251034" lon="7.9979739"><ele>328.4</ele><time>2026-04-08T11:09:41.97Z</time></trkpt><trkpt lat="44.8251483" lon="7.9981069"><ele>328.2</ele><time>2026-04-08T11:09:42.97Z</time></trkpt><trkpt lat="44.8251825" lon="7.998229"><ele>328.0</ele><time>2026-04-08T11:09:43.97Z</time></trkpt><trkpt lat="44.8252179" lon="7.998371"><ele>329.59999999999997</ele><time>2026-04-08T11:09:44.97Z</time></trkpt><trkpt lat="44.8252446" lon="7.9984913"><ele>331.2</ele><time>2026-04-08T11:09:45.97Z</time></trkpt><trkpt lat="44.8252575" lon="7.9985919"><ele>332.8</ele><time>2026-04-08T11:09:46.97Z</time></trkpt><trkpt lat="44.825259" lon="7.9987267"><ele>334.4</ele><time>2026-04-08T11:09:47.97Z</time></trkpt><trkpt lat="44.8252614" lon="7.998857"><ele>336.0</ele><time>2026-04-08T11:09:48.97Z</time></trkpt><trkpt lat="44.825265" lon="7.9990004"><ele>336.0</ele><time>2026-04-08T11:09:49.97Z</time></trkpt><trkpt lat="44.8252492" lon="7.9991514"><ele>336.0</ele><time>2026-04-08T11:09:50.97Z</time></trkpt><trkpt lat="44.8252392" lon="7.9992953"><ele>336.0</ele><time>2026-04-08T11:09:51.97Z</time></trkpt><trkpt lat="44.8252227" lon="7.9994283"><ele>336.0</ele><time>2026-04-08T11:09:52.97Z</time></trkpt><trkpt lat="44.82522" lon="7.999549"><ele>336.0</ele><time>2026-04-08T11:09:53.97Z</time></trkpt><trkpt lat="44.825214" lon="7.9996688"><ele>335.8333333333333</ele><time>2026-04-08T11:09:54.97Z</time></trkpt><trkpt lat="44.8252107" lon="7.9997902"><ele>335.6666666666667</ele><time>2026-04-08T11:09:55.97Z</time></trkpt><trkpt lat="44.8252102" lon="7.9998988"><ele>335.5</ele><time>2026-04-08T11:09:56.97Z</time></trkpt><trkpt lat="44.8252078" lon="8.0000183"><ele>335.33333333333337</ele><time>2026-04-08T11:09:57.97Z</time></trkpt><trkpt lat="44.8252053" lon="8.0001305"><ele>335.1666666666667</ele><time>2026-04-08T11:09:58.97Z</time></trkpt><trkpt lat="44.8252131" lon="8.0002531"><ele>335.0</ele><time>2026-04-08T11:09:59.97Z</time></trkpt><trkpt lat="44.8252239" lon="8.0003638"><ele>335.0</ele><time>2026-04-08T11:10:00.97Z</time></trkpt><trkpt lat="44.8252368" lon="8.0004715"><ele>335.0</ele><time>2026-04-08T11:10:01.97Z</time></trkpt><trkpt lat="44.8252525" lon="8.0005799"><ele>335.0</ele><time>2026-04-08T11:10:02.97Z</time></trkpt><trkpt lat="44.8252695" lon="8.0006898"><ele>335.0</ele><time>2026-04-08T11:10:03.97Z</time></trkpt><trkpt lat="44.82529" lon="8.000799"><ele>335.0</ele><time>2026-04-08T11:10:04.969Z</time></trkpt><trkpt lat="44.8252973" lon="8.0009118"><ele>335.0</ele><time>2026-04-08T11:10:05.97Z</time></trkpt><trkpt lat="44.8252884" lon="8.0010111"><ele>332.6666666666667</ele><time>2026-04-08T11:10:06.97Z</time></trkpt><trkpt lat="44.8252765" lon="8.001124"><ele>330.33333333333337</ele><time>2026-04-08T11:10:07.97Z</time></trkpt><trkpt lat="44.8252375" lon="8.0012309"><ele>328.0</ele><time>2026-04-08T11:10:08.97Z</time></trkpt><trkpt lat="44.8252091" lon="8.0013342"><ele>325.6666666666667</ele><time>2026-04-08T11:10:09.97Z</time></trkpt><trkpt lat="44.8251773" lon="8.0014379"><ele>323.3333333333333</ele><time>2026-04-08T11:10:10.97Z</time></trkpt><trkpt lat="44.8251397" lon="8.0015397"><ele>321.0</ele><time>2026-04-08T11:10:11.97Z</time></trkpt><trkpt lat="44.8251086" lon="8.0016361"><ele>319.8333333333333</ele><time>2026-04-08T11:10:12.97Z</time></trkpt><trkpt lat="44.8250785" lon="8.0017315"><ele>318.6666666666667</ele><time>2026-04-08T11:10:13.968Z</time></trkpt><trkpt lat="44.825056" lon="8.0018247"><ele>317.5</ele><time>2026-04-08T11:10:14.97Z</time></trkpt><trkpt lat="44.8250224" lon="8.0019729"><ele>316.33333333333337</ele><time>2026-04-08T11:10:16.97Z</time></trkpt><trkpt lat="44.8249919" lon="8.0020896"><ele>315.1666666666667</ele><time>2026-04-08T11:10:18.97Z</time></trkpt><trkpt lat="44.8249673" lon="8.0022211"><ele>314.0</ele><time>2026-04-08T11:10:20.97Z</time></trkpt><trkpt lat="44.8249254" lon="8.0023794"><ele>315.0</ele><time>2026-04-08T11:10:22.97Z</time></trkpt><trkpt lat="44.824915" lon="8.0025483"><ele>316.0</ele><time>2026-04-08T11:10:24.97Z</time></trkpt><trkpt lat="44.8249143" lon="8.0027187"><ele>317.0</ele><time>2026-04-08T11:10:26.97Z</time></trkpt><trkpt lat="44.8249043" lon="8.0028082"><ele>318.0</ele><time>2026-04-08T11:10:27.97Z</time></trkpt><trkpt lat="44.8248901" lon="8.0029027"><ele>319.0</ele><time>2026-04-08T11:10:28.97Z</time></trkpt><trkpt lat="44.8248639" lon="8.0030675"><ele>319.0</ele><time>2026-04-08T11:10:30.97Z</time></trkpt><trkpt lat="44.8248444" lon="8.0031907"><ele>319.0</ele><time>2026-04-08T11:10:32.97Z</time></trkpt><trkpt lat="44.8248173" lon="8.0032858"><ele>319.0</ele><time>2026-04-08T11:10:34.97Z</time></trkpt><trkpt lat="44.8248058" lon="8.0034067"><ele>319.0</ele><time>2026-04-08T11:10:37.97Z</time></trkpt><trkpt lat="44.8247882" lon="8.0035377"><ele>319.0</ele><time>2026-04-08T11:10:39.97Z</time></trkpt><trkpt lat="44.8247792" lon="8.0036896"><ele>319.79999999999995</ele><time>2026-04-08T11:10:41.97Z</time></trkpt><trkpt lat="44.8247749" lon="8.003846"><ele>320.59999999999997</ele><time>2026-04-08T11:10:43.97Z</time></trkpt><trkpt lat="44.8247826" lon="8.0039374"><ele>321.4</ele><time>2026-04-08T11:10:44.97Z</time></trkpt><trkpt lat="44.8248366" lon="8.0039887"><ele>322.2</ele><time>2026-04-08T11:10:45.97Z</time></trkpt><trkpt lat="44.8249039" lon="8.0041179"><ele>323.0</ele><time>2026-04-08T11:10:47.97Z</time></trkpt><trkpt lat="44.8249641" lon="8.0042268"><ele>323.83333333333337</ele><time>2026-04-08T11:10:49.97Z</time></trkpt><trkpt lat="44.8250072" lon="8.0043253"><ele>324.6666666666667</ele><time>2026-04-08T11:10:51.97Z</time></trkpt><trkpt lat="44.8250473" lon="8.0044386"><ele>325.5</ele><time>2026-04-08T11:10:53.97Z</time></trkpt><trkpt lat="44.8250972" lon="8.0045211"><ele>326.3333333333333</ele><time>2026-04-08T11:10:55.97Z</time></trkpt><trkpt lat="44.8251655" lon="8.0046186"><ele>327.16666666666663</ele><time>2026-04-08T11:10:57.97Z</time></trkpt><trkpt lat="44.8252442" lon="8.0046951"><ele>328.0</ele><time>2026-04-08T11:10:59.97Z</time></trkpt><trkpt lat="44.8252991" lon="8.0047549"><ele>328.16666666666663</ele><time>2026-04-08T11:11:01.97Z</time></trkpt><trkpt lat="44.8253737" lon="8.0048099"><ele>328.3333333333333</ele><time>2026-04-08T11:11:04.97Z</time></trkpt><trkpt lat="44.8254415" lon="8.0048672"><ele>328.5</ele><time>2026-04-08T11:11:06.97Z</time></trkpt><trkpt lat="44.825518" lon="8.0049299"><ele>328.6666666666667</ele><time>2026-04-08T11:11:08.97Z</time></trkpt><trkpt lat="44.8256013" lon="8.0050034"><ele>328.83333333333337</ele><time>2026-04-08T11:11:10.97Z</time></trkpt><trkpt lat="44.8256838" lon="8.0050773"><ele>329.0</ele><time>2026-04-08T11:11:12.97Z</time></trkpt><trkpt lat="44.8257705" lon="8.0051498"><ele>329.6</ele><time>2026-04-08T11:11:14.97Z</time></trkpt><trkpt lat="44.8258369" lon="8.00522"><ele>330.2</ele><time>2026-04-08T11:11:16.97Z</time></trkpt><trkpt lat="44.8259093" lon="8.0052901"><ele>330.8</ele><time>2026-04-08T11:11:18.97Z</time></trkpt><trkpt lat="44.8259731" lon="8.005339"><ele>331.40000000000003</ele><time>2026-04-08T11:11:20.97Z</time></trkpt><trkpt lat="44.8258893" lon="8.0052206"><ele>332.0</ele><time>2026-04-08T11:11:25.97Z</time></trkpt><trkpt lat="44.825793" lon="8.005129"><ele>332.0</ele><time>2026-04-08T11:11:27.97Z</time></trkpt><trkpt lat="44.8257358" lon="8.0050824"><ele>332.0</ele><time>2026-04-08T11:11:28.97Z</time></trkpt><trkpt lat="44.8256732" lon="8.005031"><ele>332.0</ele><time>2026-04-08T11:11:29.97Z</time></trkpt><trkpt lat="44.8256148" lon="8.0049789"><ele>332.0</ele><time>2026-04-08T11:11:30.97Z</time></trkpt><trkpt lat="44.8255452" lon="8.0049374"><ele>332.0</ele><time>2026-04-08T11:11:31.97Z</time></trkpt><trkpt lat="44.8254756" lon="8.0048625"><ele>332.0</ele><time>2026-04-08T11:11:32.97Z</time></trkpt><trkpt lat="44.8253754" lon="8.0047987"><ele>331.40000000000003</ele><time>2026-04-08T11:11:34.97Z</time></trkpt><trkpt lat="44.8254572" lon="8.0047281"><ele>330.8</ele><time>2026-04-08T11:11:40.97Z</time></trkpt><trkpt lat="44.8255527" lon="8.0046986"><ele>330.2</ele><time>2026-04-08T11:11:42.97Z</time></trkpt><trkpt lat="44.8256715" lon="8.0046797"><ele>329.6</ele><time>2026-04-08T11:11:44.97Z</time></trkpt><trkpt lat="44.8257336" lon="8.0046552"><ele>329.0</ele><time>2026-04-08T11:11:45.97Z</time></trkpt><trkpt lat="44.8258577" lon="8.0046383"><ele>329.0</ele><time>2026-04-08T11:11:47.97Z</time></trkpt><trkpt lat="44.8259775" lon="8.0046079"><ele>329.0</ele><time>2026-04-08T11:11:49.97Z</time></trkpt><trkpt lat="44.8260404" lon="8.0046117"><ele>329.0</ele><time>2026-04-08T11:11:50.97Z</time></trkpt><trkpt lat="44.826134" lon="8.0046009"><ele>329.0</ele><time>2026-04-08T11:11:52.97Z</time></trkpt><trkpt lat="44.826256" lon="8.0046881"><ele>329.0</ele><time>2026-04-08T11:11:54.97Z</time></trkpt><trkpt lat="44.826324" lon="8.0047041"><ele>330.0</ele><time>2026-04-08T11:11:55.97Z</time></trkpt><trkpt lat="44.8263743" lon="8.0047926"><ele>331.0</ele><time>2026-04-08T11:11:56.97Z</time></trkpt><trkpt lat="44.8264235" lon="8.0048759"><ele>332.0</ele><time>2026-04-08T11:11:57.97Z</time></trkpt><trkpt lat="44.8265053" lon="8.005022"><ele>333.0</ele><time>2026-04-08T11:11:59.97Z</time></trkpt><trkpt lat="44.8265472" lon="8.0050928"><ele>334.0</ele><time>2026-04-08T11:12:00.97Z</time></trkpt><trkpt lat="44.8265978" lon="8.0051619"><ele>335.0</ele><time>2026-04-08T11:12:01.97Z</time></trkpt><trkpt lat="44.8266438" lon="8.0052321"><ele>334.71428571428567</ele><time>2026-04-08T11:12:02.97Z</time></trkpt><trkpt lat="44.8266936" lon="8.0052986"><ele>334.42857142857144</ele><time>2026-04-08T11:12:03.97Z</time></trkpt><trkpt lat="44.8267555" lon="8.0053737"><ele>334.1428571428571</ele><time>2026-04-08T11:12:04.97Z</time></trkpt><trkpt lat="44.8268122" lon="8.0054478"><ele>333.85714285714283</ele><time>2026-04-08T11:12:05.97Z</time></trkpt><trkpt lat="44.8268662" lon="8.0055198"><ele>333.57142857142856</ele><time>2026-04-08T11:12:06.97Z</time></trkpt><trkpt lat="44.8269145" lon="8.0055934"><ele>333.2857142857143</ele><time>2026-04-08T11:12:07.97Z</time></trkpt><trkpt lat="44.8269777" lon="8.0056041"><ele>333.0</ele><time>2026-04-08T11:12:08.97Z</time></trkpt><trkpt lat="44.8270621" lon="8.0056909"><ele>333.0</ele><time>2026-04-08T11:12:10.97Z</time></trkpt><trkpt lat="44.8271207" lon="8.0057341"><ele>333.0</ele><time>2026-04-08T11:12:12.97Z</time></trkpt><trkpt lat="44.8271822" lon="8.0057063"><ele>333.0</ele><time>2026-04-08T11:12:19.97Z</time></trkpt><trkpt lat="44.827209" lon="8.0055966"><ele>333.0</ele><time>2026-04-08T11:12:22.97Z</time></trkpt><trkpt lat="44.8271876" lon="8.0055008"><ele>333.0</ele><time>2026-04-08T11:12:25.97Z</time></trkpt></trkseg></trk></gpx>